Time,TemperatureF,DewpointF,PressureIn,WindDirection,WindDirectionDegrees,WindSpeedMPH,WindSpeedGustMPH,Humidity,HourlyPrecipIn,Conditions,Clouds,dailyrainin,SoftwareType,DateUTC
2013-03-17 00:00:00,57.0,46.6,29.59,ENE,68,0.0,0.0,68,0.00,,---,0.00,VWS V14.01,2013-03-17 04:00:00,
2013-03-17 00:01:00,57.0,46.6,29.59,ENE,68,0.0,0.0,68,0.00,,---,0.00,VWS V14.01,2013-03-17 04:01:00,
2013-03-17 00:02:00,57.2,46.8,29.59,ENE,68,0.0,0.0,68,0.00,,---,0.00,VWS V14.01,2013-03-17 04:02:00,
2013-03-17 00:03:00,56.8,46.8,29.59,ENE,68,0.0,0.0,69,0.00,,---,0.00,VWS V14.01,2013-03-17 04:03:00,
2013-03-17 00:04:00,57.0,46.6,29.59,ENE,68,0.0,0.0,68,0.00,,---,0.00,VWS V14.01,2013-03-17 04:04:00,
2013-03-17 00:05:00,57.0,46.6,29.59,ENE,68,0.0,0.0,68,0.00,,---,0.00,VWS V14.01,2013-03-17 04:05:00,
2013-03-17 00:06:00,57.0,46.6,29.59,ENE,68,0.0,0.0,68,0.00,,---,0.00,VWS V14.01,2013-03-17 04:06:00,
2013-03-17 00:07:00,57.6,47.1,29.59,ENE,68,0.0,0.0,68,0.00,,---,0.00,VWS V14.01,2013-03-17 04:07:00,
2013-03-17 00:08:00,57.6,47.1,29.59,ENE,68,0.0,0.0,68,0.00,,---,0.00,VWS V14.01,2013-03-17 04:08:00,
2013-03-17 00:09:00,57.2,46.8,29.59,ENE,68,0.0,0.0,68,0.00,,---,0.00,VWS V14.01,2013-03-17 04:09:00,
2013-03-17 00:10:00,57.4,46.9,29.59,ENE,68,0.0,0.0,68,0.00,,---,0.00,VWS V14.01,2013-03-17 04:10:00,
2013-03-17 00:11:00,57.4,46.9,29.59,ENE,68,0.0,0.0,68,0.00,,---,0.00,VWS V14.01,2013-03-17 04:11:00,
2013-03-17 00:12:00,57.7,46.9,29.59,ENE,68,0.0,0.0,67,0.00,,---,0.00,VWS V14.01,2013-03-17 04:12:00,
2013-03-17 00:13:00,57.7,46.5,29.59,ENE,68,0.0,0.0,66,0.00,,---,0.00,VWS V14.01,2013-03-17 04:13:00,
2013-03-17 00:14:00,57.6,46.7,29.59,ENE,68,0.0,0.0,67,0.00,,---,0.00,VWS V14.01,2013-03-17 04:14:00,
2013-03-17 00:15:00,57.7,46.9,29.59,ENE,68,0.0,0.0,67,0.00,,---,0.00,VWS V14.01,2013-03-17 04:15:00,
2013-03-17 00:16:00,57.7,46.9,29.59,ENE,68,0.0,0.0,67,0.00,,---,0.00,VWS V14.01,2013-03-17 04:16:00,
2013-03-17 00:17:00,57.9,46.6,29.59,ENE,68,0.0,0.0,66,0.00,,---,0.00,VWS V14.01,2013-03-17 04:17:00,
2013-03-17 00:18:00,57.9,46.6,29.59,ENE,68,0.0,0.0,66,0.00,,---,0.00,VWS V14.01,2013-03-17 04:18:00,
2013-03-17 00:19:00,57.9,46.6,29.59,ENE,68,0.0,0.0,66,0.00,,---,0.00,VWS V14.01,2013-03-17 04:19:00,
2013-03-17 00:20:00,57.9,46.6,29.59,ENE,68,0.0,0.0,66,0.00,,---,0.00,VWS V14.01,2013-03-17 04:20:00,
2013-03-17 00:21:00,57.9,46.6,29.59,ENE,68,0.0,0.0,66,0.00,,---,0.00,VWS V14.01,2013-03-17 04:21:00,
2013-03-17 00:22:00,57.9,46.6,29.59,ENE,68,0.0,0.0,66,0.00,,---,0.00,VWS V14.01,2013-03-17 04:22:00,
2013-03-17 00:23:00,57.9,46.6,29.59,ENE,68,0.0,0.0,66,0.00,,---,0.00,VWS V14.01,2013-03-17 04:23:00,
2013-03-17 00:24:00,57.9,46.6,29.59,ENE,68,0.0,0.0,66,0.00,,---,0.00,VWS V14.01,2013-03-17 04:24:00,
2013-03-17 00:25:00,58.1,46.8,29.59,ENE,68,0.0,0.0,66,0.00,,---,0.00,VWS V14.01,2013-03-17 04:25:00,
2013-03-17 00:26:00,57.9,47.0,29.59,ENE,68,0.0,0.0,67,0.00,,---,0.00,VWS V14.01,2013-03-17 04:26:00,
2013-03-17 00:27:00,57.9,46.6,29.59,ENE,68,0.0,0.0,66,0.00,,---,0.00,VWS V14.01,2013-03-17 04:27:00,
2013-03-17 00:28:00,58.1,46.4,29.59,ENE,68,0.0,0.0,65,0.00,,---,0.00,VWS V14.01,2013-03-17 04:28:00,
2013-03-17 00:29:00,58.1,46.4,29.59,ENE,68,0.0,0.0,65,0.00,,---,0.00,VWS V14.01,2013-03-17 04:29:00,
2013-03-17 00:30:00,58.1,46.8,29.59,ENE,68,0.0,0.0,66,0.00,,---,0.00,VWS V14.01,2013-03-17 04:30:00,
2013-03-17 00:31:00,58.1,46.4,29.59,ENE,68,0.0,0.0,65,0.00,,---,0.00,VWS V14.01,2013-03-17 04:31:00,
2013-03-17 00:32:00,58.1,46.8,29.59,ENE,68,0.0,0.0,66,0.00,,---,0.00,VWS V14.01,2013-03-17 04:32:00,
2013-03-17 00:33:00,58.1,46.4,29.59,ENE,68,0.0,0.0,65,0.00,,---,0.00,VWS V14.01,2013-03-17 04:33:00,
2013-03-17 00:34:00,58.1,46.4,29.59,ENE,68,0.0,0.0,65,0.00,,---,0.00,VWS V14.01,2013-03-17 04:34:00,
2013-03-17 00:35:00,58.1,46.4,29.59,ENE,68,0.0,0.0,65,0.00,,---,0.00,VWS V14.01,2013-03-17 04:35:00,
2013-03-17 00:36:00,58.1,46.4,29.59,ENE,68,0.0,0.0,65,0.00,,---,0.00,VWS V14.01,2013-03-17 04:36:00,
2013-03-17 00:37:00,58.1,46.8,29.59,ENE,68,0.0,0.0,66,0.00,,---,0.00,VWS V14.01,2013-03-17 04:37:00,
2013-03-17 00:38:00,58.1,46.4,29.59,ENE,68,0.0,0.0,65,0.00,,---,0.00,VWS V14.01,2013-03-17 04:38:00,
2013-03-17 00:39:00,58.1,46.4,29.59,ENE,68,0.0,0.0,65,0.00,,---,0.00,VWS V14.01,2013-03-17 04:39:00,
2013-03-17 00:40:00,58.1,46.8,29.62,ENE,68,0.0,0.0,66,0.00,,---,0.00,VWS V14.01,2013-03-17 04:40:00,
2013-03-17 00:41:00,58.1,46.4,29.62,ENE,68,0.0,0.0,65,0.00,,---,0.00,VWS V14.01,2013-03-17 04:41:00,
2013-03-17 00:42:00,58.1,46.8,29.62,NE,45,0.0,0.0,66,0.00,,---,0.00,VWS V14.01,2013-03-17 04:42:00,
2013-03-17 00:43:00,58.1,46.4,29.59,ENE,68,0.0,0.0,65,0.00,,---,0.00,VWS V14.01,2013-03-17 04:43:00,
2013-03-17 00:44:00,58.1,46.4,29.59,ENE,68,0.0,0.0,65,0.00,,---,0.00,VWS V14.01,2013-03-17 04:44:00,
2013-03-17 00:45:00,57.9,46.6,29.62,NNW,338,0.0,0.0,66,0.00,,---,0.00,VWS V14.01,2013-03-17 04:45:00,
2013-03-17 00:46:00,58.1,46.4,29.62,ENE,68,0.0,0.0,65,0.00,,---,0.00,VWS V14.01,2013-03-17 04:46:00,
2013-03-17 00:47:00,57.6,45.9,29.62,North,0,0.0,0.0,65,0.00,,---,0.00,VWS V14.01,2013-03-17 04:47:00,
2013-03-17 00:48:00,57.9,46.2,29.62,NE,45,0.0,0.0,65,0.00,,---,0.00,VWS V14.01,2013-03-17 04:48:00,
2013-03-17 00:49:00,57.6,45.9,29.62,NNE,22,0.0,0.9,65,0.00,,---,0.00,VWS V14.01,2013-03-17 04:49:00,
2013-03-17 00:50:00,57.9,46.6,29.62,NNW,338,0.0,0.0,66,0.00,,---,0.00,VWS V14.01,2013-03-17 04:50:00,
2013-03-17 00:51:00,57.6,45.9,29.62,NNE,22,0.0,0.0,65,0.00,,---,0.00,VWS V14.01,2013-03-17 04:51:00,
2013-03-17 00:52:00,57.4,46.1,29.62,NNE,22,0.0,0.0,66,0.00,,---,0.00,VWS V14.01,2013-03-17 04:52:00,
2013-03-17 00:53:00,57.6,45.9,29.62,NNE,22,0.0,0.0,65,0.00,,---,0.00,VWS V14.01,2013-03-17 04:53:00,
2013-03-17 00:54:00,57.6,45.9,29.62,NNE,22,0.0,0.9,65,0.00,,---,0.00,VWS V14.01,2013-03-17 04:54:00,
2013-03-17 00:55:00,57.2,45.6,29.62,NNE,22,0.0,0.0,65,0.00,,---,0.00,VWS V14.01,2013-03-17 04:55:00,
2013-03-17 00:56:00,57.6,45.9,29.62,NNE,22,0.0,0.0,65,0.00,,---,0.00,VWS V14.01,2013-03-17 04:56:00,
2013-03-17 00:57:00,57.0,45.8,29.62,NNE,22,0.0,0.0,66,0.00,,---,0.00,VWS V14.01,2013-03-17 04:57:00,
2013-03-17 00:58:00,57.2,45.6,29.62,NNE,22,0.0,0.0,65,0.00,,---,0.00,VWS V14.01,2013-03-17 04:58:00,
2013-03-17 00:59:00,57.2,45.6,29.62,NNE,22,0.0,0.0,65,0.00,,---,0.00,VWS V14.01,2013-03-17 04:59:00,
2013-03-17 01:00:00,57.2,45.6,29.62,NNE,22,0.0,0.0,65,0.00,,---,0.00,VWS V14.01,2013-03-17 05:00:00,
2013-03-17 01:01:00,56.8,46.0,29.62,ENE,68,0.0,0.0,67,0.00,,---,0.00,VWS V14.01,2013-03-17 05:01:00,
2013-03-17 01:02:00,57.0,45.8,29.62,NNE,22,0.0,0.0,66,0.00,,---,0.00,VWS V14.01,2013-03-17 05:02:00,
2013-03-17 01:03:00,56.7,45.8,29.62,ENE,68,0.0,0.0,67,0.00,,---,0.00,VWS V14.01,2013-03-17 05:03:00,
2013-03-17 01:04:00,56.8,45.6,29.62,ENE,68,0.0,0.0,66,0.00,,---,0.00,VWS V14.01,2013-03-17 05:04:00,
2013-03-17 01:05:00,56.7,46.2,29.62,ENE,68,0.0,0.0,68,0.00,,---,0.00,VWS V14.01,2013-03-17 05:05:00,
2013-03-17 01:06:00,56.8,46.0,29.62,ENE,68,0.0,0.0,67,0.00,,---,0.00,VWS V14.01,2013-03-17 05:06:00,
2013-03-17 01:07:00,56.7,45.8,29.62,ENE,68,0.0,0.0,67,0.00,,---,0.00,VWS V14.01,2013-03-17 05:07:00,
2013-03-17 01:08:00,56.7,45.8,29.62,ENE,68,0.0,0.0,67,0.00,,---,0.00,VWS V14.01,2013-03-17 05:08:00,
2013-03-17 01:09:00,56.7,46.6,29.62,ENE,68,0.0,0.0,69,0.00,,---,0.00,VWS V14.01,2013-03-17 05:09:00,
2013-03-17 01:10:00,56.7,46.2,29.62,ENE,68,0.0,0.0,68,0.00,,---,0.00,VWS V14.01,2013-03-17 05:10:00,
2013-03-17 01:11:00,56.7,46.2,29.62,ENE,68,0.0,0.0,68,0.00,,---,0.00,VWS V14.01,2013-03-17 05:11:00,
2013-03-17 01:12:00,56.5,46.5,29.62,ENE,68,0.0,0.0,69,0.00,,---,0.00,VWS V14.01,2013-03-17 05:12:00,
2013-03-17 01:13:00,56.5,46.5,29.62,ENE,68,0.0,0.0,69,0.00,,---,0.00,VWS V14.01,2013-03-17 05:13:00,
2013-03-17 01:14:00,56.7,46.6,29.62,ENE,68,0.0,0.0,69,0.00,,---,0.00,VWS V14.01,2013-03-17 05:14:00,
2013-03-17 01:15:00,56.3,46.7,29.62,East,90,0.0,0.0,70,0.00,,---,0.00,VWS V14.01,2013-03-17 05:15:00,
2013-03-17 01:16:00,56.5,46.5,29.62,ENE,68,0.0,0.0,69,0.00,,---,0.00,VWS V14.01,2013-03-17 05:16:00,
2013-03-17 01:17:00,56.3,46.3,29.62,East,90,0.0,0.0,69,0.00,,---,0.00,VWS V14.01,2013-03-17 05:17:00,
2013-03-17 01:18:00,56.5,46.5,29.62,ENE,68,0.0,0.0,69,0.00,,---,0.00,VWS V14.01,2013-03-17 05:18:00,
2013-03-17 01:19:00,56.3,46.3,29.62,East,90,0.0,0.0,69,0.00,,---,0.00,VWS V14.01,2013-03-17 05:19:00,
2013-03-17 01:20:00,56.3,46.3,29.62,East,90,0.0,0.0,69,0.00,,---,0.00,VWS V14.01,2013-03-17 05:20:00,
2013-03-17 01:21:00,56.3,46.3,29.62,East,90,0.0,0.0,69,0.00,,---,0.00,VWS V14.01,2013-03-17 05:21:00,
2013-03-17 01:22:00,56.3,46.3,29.62,East,90,0.0,0.0,69,0.00,,---,0.00,VWS V14.01,2013-03-17 05:22:00,
2013-03-17 01:23:00,56.3,46.7,29.62,East,90,0.0,0.0,70,0.00,,---,0.00,VWS V14.01,2013-03-17 05:23:00,
2013-03-17 01:24:00,56.3,46.3,29.62,East,90,0.0,0.0,69,0.00,,---,0.00,VWS V14.01,2013-03-17 05:24:00,
2013-03-17 01:25:00,56.3,46.3,29.62,East,90,0.0,0.0,69,0.00,,---,0.00,VWS V14.01,2013-03-17 05:25:00,
2013-03-17 01:26:00,56.3,46.3,29.62,East,90,0.0,0.0,69,0.00,,---,0.00,VWS V14.01,2013-03-17 05:26:00,
2013-03-17 01:27:00,56.3,46.3,29.62,East,90,0.0,0.0,69,0.00,,---,0.00,VWS V14.01,2013-03-17 05:27:00,
2013-03-17 01:28:00,56.3,46.3,29.62,East,90,0.0,0.0,69,0.00,,---,0.00,VWS V14.01,2013-03-17 05:28:00,
2013-03-17 01:29:00,56.3,46.3,29.62,East,90,0.0,0.0,69,0.00,,---,0.00,VWS V14.01,2013-03-17 05:29:00,
2013-03-17 01:30:00,56.3,46.3,29.62,East,90,0.0,0.0,69,0.00,,---,0.00,VWS V14.01,2013-03-17 05:30:00,
2013-03-17 01:31:00,56.3,46.3,29.62,East,90,0.0,0.0,69,0.00,,---,0.00,VWS V14.01,2013-03-17 05:31:00,
2013-03-17 01:32:00,56.3,46.3,29.62,East,90,0.0,0.0,69,0.00,,---,0.00,VWS V14.01,2013-03-17 05:32:00,
2013-03-17 01:33:00,56.3,46.3,29.62,East,90,0.0,0.0,69,0.00,,---,0.00,VWS V14.01,2013-03-17 05:33:00,
2013-03-17 01:34:00,56.3,46.3,29.62,East,90,0.0,0.0,69,0.00,,---,0.00,VWS V14.01,2013-03-17 05:34:00,
2013-03-17 01:35:00,56.3,46.7,29.62,East,90,0.0,0.0,70,0.00,,---,0.00,VWS V14.01,2013-03-17 05:35:00,
2013-03-17 01:36:00,56.3,46.3,29.62,East,90,0.0,0.0,69,0.00,,---,0.00,VWS V14.01,2013-03-17 05:36:00,
2013-03-17 01:37:00,56.3,46.3,29.62,East,90,0.0,0.0,69,0.00,,---,0.00,VWS V14.01,2013-03-17 05:37:00,
2013-03-17 01:38:00,56.3,46.3,29.62,East,90,0.0,0.0,69,0.00,,---,0.00,VWS V14.01,2013-03-17 05:38:00,
2013-03-17 01:39:00,56.3,46.7,29.62,East,90,0.0,0.0,70,0.00,,---,0.00,VWS V14.01,2013-03-17 05:39:00,
2013-03-17 01:40:00,56.3,46.7,29.62,East,90,0.0,0.0,70,0.00,,---,0.00,VWS V14.01,2013-03-17 05:40:00,
2013-03-17 01:41:00,56.3,46.3,29.62,East,90,0.0,0.0,69,0.00,,---,0.00,VWS V14.01,2013-03-17 05:41:00,
2013-03-17 01:42:00,56.1,46.5,29.59,East,90,0.0,2.0,70,0.00,,---,0.00,VWS V14.01,2013-03-17 05:42:00,
2013-03-17 01:43:00,56.3,46.7,29.59,East,90,0.0,2.0,70,0.00,,---,0.00,VWS V14.01,2013-03-17 05:43:00,
2013-03-17 01:44:00,56.3,46.7,29.62,East,90,0.0,0.0,70,0.00,,---,0.00,VWS V14.01,2013-03-17 05:44:00,
2013-03-17 01:45:00,56.3,46.7,29.59,East,90,0.0,0.0,70,0.00,,---,0.00,VWS V14.01,2013-03-17 05:45:00,
2013-03-17 01:46:00,56.1,46.5,29.59,East,90,0.0,0.0,70,0.00,,---,0.00,VWS V14.01,2013-03-17 05:46:00,
2013-03-17 01:47:00,56.1,46.5,29.59,East,90,0.0,2.0,70,0.00,,---,0.00,VWS V14.01,2013-03-17 05:47:00,
2013-03-17 01:48:00,56.3,46.7,29.59,East,90,0.0,2.0,70,0.00,,---,0.00,VWS V14.01,2013-03-17 05:48:00,
2013-03-17 01:49:00,56.3,46.3,29.59,NE,45,0.0,0.0,69,0.00,,---,0.00,VWS V14.01,2013-03-17 05:49:00,
2013-03-17 01:50:00,56.3,46.3,29.59,NE,45,0.0,0.0,69,0.00,,---,0.00,VWS V14.01,2013-03-17 05:50:00,
2013-03-17 01:51:00,56.3,46.7,29.59,NE,45,0.0,0.0,70,0.00,,---,0.00,VWS V14.01,2013-03-17 05:51:00,
2013-03-17 01:52:00,56.1,46.5,29.59,NE,45,0.0,0.0,70,0.00,,---,0.00,VWS V14.01,2013-03-17 05:52:00,
2013-03-17 01:53:00,56.3,46.7,29.59,NE,45,0.0,0.0,70,0.00,,---,0.00,VWS V14.01,2013-03-17 05:53:00,
2013-03-17 01:54:00,56.3,46.3,29.59,NE,45,0.0,0.0,69,0.00,,---,0.00,VWS V14.01,2013-03-17 05:54:00,
2013-03-17 01:55:00,56.1,46.5,29.59,East,90,0.0,0.0,70,0.00,,---,0.00,VWS V14.01,2013-03-17 05:55:00,
2013-03-17 01:56:00,56.3,46.7,29.59,NE,45,0.0,0.0,70,0.00,,---,0.00,VWS V14.01,2013-03-17 05:56:00,
2013-03-17 01:57:00,55.8,46.1,29.62,East,90,0.0,1.6,70,0.00,,---,0.00,VWS V14.01,2013-03-17 05:57:00,
2013-03-17 01:58:00,55.6,46.3,29.62,East,90,0.0,1.6,71,0.00,,---,0.00,VWS V14.01,2013-03-17 05:58:00,
2013-03-17 01:59:00,56.1,46.5,29.59,NE,45,0.0,0.0,70,0.00,,---,0.00,VWS V14.01,2013-03-17 05:59:00,
2013-03-17 02:00:00,56.1,46.5,29.59,East,90,0.0,0.0,70,0.00,,---,0.00,VWS V14.01,2013-03-17 06:00:00,
2013-03-17 02:01:00,55.8,46.1,29.62,East,90,0.0,2.0,70,0.00,,---,0.00,VWS V14.01,2013-03-17 06:01:00,
2013-03-17 02:02:00,55.6,46.3,29.62,East,90,0.0,2.2,71,0.00,,---,0.00,VWS V14.01,2013-03-17 06:02:00,
2013-03-17 02:03:00,55.6,46.3,29.62,NNW,338,0.0,2.0,71,0.00,,---,0.00,VWS V14.01,2013-03-17 06:03:00,
2013-03-17 02:04:00,55.6,46.0,29.62,East,90,0.2,2.2,70,0.00,,---,0.00,VWS V14.01,2013-03-17 06:04:00,
2013-03-17 02:05:00,55.4,45.8,29.62,East,90,0.0,2.5,70,0.00,,---,0.00,VWS V14.01,2013-03-17 06:05:00,
2013-03-17 02:06:00,55.4,45.8,29.62,East,90,0.0,2.0,70,0.00,,---,0.00,VWS V14.01,2013-03-17 06:06:00,
2013-03-17 02:07:00,55.6,46.7,29.62,ENE,68,0.0,0.0,72,0.00,,---,0.00,VWS V14.01,2013-03-17 06:07:00,
2013-03-17 02:08:00,55.6,46.3,29.62,ENE,68,0.0,0.0,71,0.00,,---,0.00,VWS V14.01,2013-03-17 06:08:00,
2013-03-17 02:09:00,55.6,46.3,29.62,NE,45,0.0,0.0,71,0.00,,---,0.00,VWS V14.01,2013-03-17 06:09:00,
2013-03-17 02:10:00,55.6,46.3,29.62,ENE,68,0.0,1.6,71,0.00,,---,0.00,VWS V14.01,2013-03-17 06:10:00,
2013-03-17 02:11:00,55.6,46.3,29.62,ENE,68,0.0,1.6,71,0.00,,---,0.00,VWS V14.01,2013-03-17 06:11:00,
2013-03-17 02:12:00,55.4,45.8,29.62,ENE,68,0.0,0.0,70,0.00,,---,0.00,VWS V14.01,2013-03-17 06:12:00,
2013-03-17 02:13:00,55.2,46.0,29.62,ENE,68,0.0,0.0,71,0.00,,---,0.00,VWS V14.01,2013-03-17 06:13:00,
2013-03-17 02:15:00,55.6,46.3,29.62,ENE,68,0.0,0.0,71,0.00,,---,0.00,VWS V14.01,2013-03-17 06:15:00,
2013-03-17 02:16:00,55.4,46.2,29.62,ENE,68,0.0,0.0,71,0.00,,---,0.00,VWS V14.01,2013-03-17 06:16:00,
2013-03-17 02:17:00,55.0,45.8,29.62,SE,135,0.0,1.6,71,0.00,,---,0.00,VWS V14.01,2013-03-17 06:17:00,
2013-03-17 02:18:00,54.9,46.0,29.62,SE,135,0.0,1.6,72,0.00,,---,0.00,VWS V14.01,2013-03-17 06:18:00,
2013-03-17 02:19:00,54.9,45.7,29.62,SE,135,0.0,0.0,71,0.00,,---,0.00,VWS V14.01,2013-03-17 06:19:00,
2013-03-17 02:20:00,54.9,45.7,29.62,East,90,0.0,0.0,71,0.00,,---,0.00,VWS V14.01,2013-03-17 06:20:00,
2013-03-17 02:21:00,55.2,46.0,29.62,NE,45,0.0,0.0,71,0.00,,---,0.00,VWS V14.01,2013-03-17 06:21:00,
2013-03-17 02:22:00,55.0,45.8,29.62,SE,135,0.0,1.6,71,0.00,,---,0.00,VWS V14.01,2013-03-17 06:22:00,
2013-03-17 02:23:00,54.9,46.0,29.62,SE,135,0.0,1.6,72,0.00,,---,0.00,VWS V14.01,2013-03-17 06:23:00,
2013-03-17 02:24:00,54.9,45.7,29.62,SE,135,0.0,0.0,71,0.00,,---,0.00,VWS V14.01,2013-03-17 06:24:00,
2013-03-17 02:25:00,54.7,46.2,29.62,East,90,0.0,0.0,73,0.00,,---,0.00,VWS V14.01,2013-03-17 06:25:00,
2013-03-17 02:26:00,54.7,46.2,29.62,East,90,0.0,0.0,73,0.00,,---,0.00,VWS V14.01,2013-03-17 06:26:00,
2013-03-17 02:27:00,54.7,45.8,29.62,East,90,0.0,0.0,72,0.00,,---,0.00,VWS V14.01,2013-03-17 06:27:00,
2013-03-17 02:28:00,54.7,46.2,29.62,ESE,112,0.5,2.5,73,0.00,,---,0.00,VWS V14.01,2013-03-17 06:28:00,
2013-03-17 02:29:00,54.7,46.2,29.62,ESE,112,0.0,2.5,73,0.00,,---,0.00,VWS V14.01,2013-03-17 06:29:00,
2013-03-17 02:30:00,54.7,46.2,29.62,East,90,0.0,0.0,73,0.00,,---,0.00,VWS V14.01,2013-03-17 06:30:00,
2013-03-17 02:31:00,54.7,46.2,29.62,East,90,0.0,0.0,73,0.00,,---,0.00,VWS V14.01,2013-03-17 06:31:00,
2013-03-17 02:32:00,54.7,46.2,29.62,East,90,0.0,0.0,73,0.00,,---,0.00,VWS V14.01,2013-03-17 06:32:00,
2013-03-17 02:33:00,54.9,46.4,29.62,East,90,0.0,0.0,73,0.00,,---,0.00,VWS V14.01,2013-03-17 06:33:00,
2013-03-17 02:34:00,54.7,45.8,29.62,East,90,0.0,0.0,72,0.00,,---,0.00,VWS V14.01,2013-03-17 06:34:00,
2013-03-17 02:35:00,54.7,46.2,29.62,East,90,0.0,0.0,73,0.00,,---,0.00,VWS V14.01,2013-03-17 06:35:00,
2013-03-17 02:36:00,54.7,46.2,29.62,East,90,0.0,0.0,73,0.00,,---,0.00,VWS V14.01,2013-03-17 06:36:00,
2013-03-17 02:37:00,54.9,46.4,29.62,East,90,0.0,0.0,73,0.00,,---,0.00,VWS V14.01,2013-03-17 06:37:00,
2013-03-17 02:38:00,54.9,46.4,29.62,East,90,0.0,0.0,73,0.00,,---,0.00,VWS V14.01,2013-03-17 06:38:00,
2013-03-17 02:39:00,54.9,46.4,29.62,East,90,0.0,0.0,73,0.00,,---,0.00,VWS V14.01,2013-03-17 06:39:00,
2013-03-17 02:40:00,54.9,46.4,29.62,East,90,0.0,0.0,73,0.00,,---,0.00,VWS V14.01,2013-03-17 06:40:00,
2013-03-17 02:41:00,54.9,46.4,29.62,East,90,0.0,0.0,73,0.00,,---,0.00,VWS V14.01,2013-03-17 06:41:00,
2013-03-17 02:42:00,54.9,46.4,29.62,East,90,0.0,0.0,73,0.00,,---,0.00,VWS V14.01,2013-03-17 06:42:00,
2013-03-17 02:43:00,54.9,46.4,29.62,East,90,0.0,0.0,73,0.00,,---,0.00,VWS V14.01,2013-03-17 06:43:00,
2013-03-17 02:44:00,54.9,46.4,29.62,East,90,0.0,0.0,73,0.00,,---,0.00,VWS V14.01,2013-03-17 06:44:00,
2013-03-17 02:45:00,54.9,46.4,29.62,East,90,0.0,0.0,73,0.00,,---,0.00,VWS V14.01,2013-03-17 06:45:00,
2013-03-17 02:46:00,54.9,46.4,29.62,East,90,0.0,0.0,73,0.00,,---,0.00,VWS V14.01,2013-03-17 06:46:00,
2013-03-17 02:47:00,54.9,46.4,29.62,East,90,0.0,0.0,73,0.00,,---,0.00,VWS V14.01,2013-03-17 06:47:00,
2013-03-17 02:48:00,54.7,46.2,29.62,East,90,0.0,0.0,73,0.00,,---,0.00,VWS V14.01,2013-03-17 06:48:00,
2013-03-17 02:49:00,54.9,46.4,29.62,East,90,0.0,0.0,73,0.00,,---,0.00,VWS V14.01,2013-03-17 06:49:00,
2013-03-17 02:50:00,54.9,46.4,29.62,East,90,0.0,0.0,73,0.00,,---,0.00,VWS V14.01,2013-03-17 06:50:00,
2013-03-17 02:51:00,54.7,46.2,29.62,East,90,0.0,0.0,73,0.00,,---,0.00,VWS V14.01,2013-03-17 06:51:00,
2013-03-17 02:52:00,54.9,46.4,29.62,East,90,0.0,0.0,73,0.00,,---,0.00,VWS V14.01,2013-03-17 06:52:00,
2013-03-17 02:53:00,54.7,46.2,29.62,East,90,0.0,0.0,73,0.00,,---,0.00,VWS V14.01,2013-03-17 06:53:00,
2013-03-17 02:54:00,54.9,46.4,29.62,East,90,0.0,0.0,73,0.00,,---,0.00,VWS V14.01,2013-03-17 06:54:00,
2013-03-17 02:55:00,54.9,46.4,29.62,East,90,0.0,0.0,73,0.00,,---,0.00,VWS V14.01,2013-03-17 06:55:00,
2013-03-17 02:56:00,54.9,46.4,29.62,East,90,0.0,0.0,73,0.00,,---,0.00,VWS V14.01,2013-03-17 06:56:00,
2013-03-17 02:57:00,54.5,46.4,29.62,NW,315,0.0,0.0,74,0.00,,---,0.00,VWS V14.01,2013-03-17 06:57:00,
2013-03-17 02:58:00,54.5,46.4,29.62,NW,315,0.0,0.0,74,0.00,,---,0.00,VWS V14.01,2013-03-17 06:58:00,
2013-03-17 02:59:00,54.9,46.4,29.62,WNW,292,0.0,0.0,73,0.00,,---,0.00,VWS V14.01,2013-03-17 06:59:00,
2013-03-17 03:00:00,54.3,45.9,29.62,NW,315,0.0,0.0,73,0.00,,---,0.00,VWS V14.01,2013-03-17 07:00:00,
2013-03-17 03:01:00,54.7,46.6,29.62,NNE,22,0.0,0.0,74,0.00,,---,0.00,VWS V14.01,2013-03-17 07:01:00,
2013-03-17 03:02:00,54.5,46.4,29.62,NW,315,0.0,0.0,74,0.00,,---,0.00,VWS V14.01,2013-03-17 07:02:00,
2013-03-17 03:03:00,54.5,46.4,29.62,NW,315,0.0,0.0,74,0.00,,---,0.00,VWS V14.01,2013-03-17 07:03:00,
2013-03-17 03:04:00,54.5,46.0,29.62,NW,315,0.0,0.0,73,0.00,,---,0.00,VWS V14.01,2013-03-17 07:04:00,
2013-03-17 03:05:00,53.8,46.0,29.62,NW,315,0.0,0.0,75,0.00,,---,0.00,VWS V14.01,2013-03-17 07:05:00,
2013-03-17 03:06:00,54.3,46.2,29.62,NW,315,0.0,0.0,74,0.00,,---,0.00,VWS V14.01,2013-03-17 07:06:00,
2013-03-17 03:07:00,53.8,46.0,29.62,North,0,0.0,1.6,75,0.00,,---,0.00,VWS V14.01,2013-03-17 07:07:00,
2013-03-17 03:08:00,54.1,46.0,29.62,NW,315,0.0,0.0,74,0.00,,---,0.00,VWS V14.01,2013-03-17 07:08:00,
2013-03-17 03:09:00,53.4,46.1,29.62,NNW,338,0.0,0.0,76,0.00,,---,0.00,VWS V14.01,2013-03-17 07:09:00,
2013-03-17 03:10:00,53.4,45.7,29.62,NNW,338,0.0,0.0,75,0.00,,---,0.00,VWS V14.01,2013-03-17 07:10:00,
2013-03-17 03:11:00,53.8,46.0,29.62,North,0,0.0,1.6,75,0.00,,---,0.00,VWS V14.01,2013-03-17 07:11:00,
2013-03-17 03:12:00,53.1,46.0,29.62,NNW,338,0.0,0.0,77,0.00,,---,0.00,VWS V14.01,2013-03-17 07:12:00,
2013-03-17 03:13:00,53.1,45.7,29.62,NNW,338,0.0,0.0,76,0.00,,---,0.00,VWS V14.01,2013-03-17 07:13:00,
2013-03-17 03:14:00,53.4,46.1,29.62,NNW,338,0.0,0.0,76,0.00,,---,0.00,VWS V14.01,2013-03-17 07:14:00,
2013-03-17 03:15:00,53.4,45.7,29.62,NNW,338,0.0,0.0,75,0.00,,---,0.00,VWS V14.01,2013-03-17 07:15:00,
2013-03-17 03:16:00,53.2,45.9,29.62,NNW,338,0.0,0.0,76,0.00,,---,0.00,VWS V14.01,2013-03-17 07:16:00,
2013-03-17 03:17:00,52.7,45.7,29.62,NNW,338,0.0,0.0,77,0.00,,---,0.00,VWS V14.01,2013-03-17 07:17:00,
2013-03-17 03:18:00,52.7,45.7,29.62,NNW,338,0.0,0.0,77,0.00,,---,0.00,VWS V14.01,2013-03-17 07:18:00,
2013-03-17 03:19:00,52.9,45.5,29.62,NNW,338,0.0,0.0,76,0.00,,---,0.00,VWS V14.01,2013-03-17 07:19:00,
2013-03-17 03:20:00,52.9,45.5,29.62,NNW,338,0.0,0.0,76,0.00,,---,0.00,VWS V14.01,2013-03-17 07:20:00,
2013-03-17 03:21:00,52.7,46.0,29.62,NNW,338,0.0,0.0,78,0.00,,---,0.00,VWS V14.01,2013-03-17 07:21:00,
2013-03-17 03:22:00,52.3,44.7,29.62,NNE,22,0.0,0.0,75,0.00,,---,0.00,VWS V14.01,2013-03-17 07:22:00,
2013-03-17 03:23:00,52.2,44.5,29.62,NNE,22,0.0,0.0,75,0.00,,---,0.00,VWS V14.01,2013-03-17 07:23:00,
2013-03-17 03:24:00,52.5,45.2,29.62,NNW,338,0.0,0.0,76,0.00,,---,0.00,VWS V14.01,2013-03-17 07:24:00,
2013-03-17 03:25:00,52.3,45.0,29.62,NNW,338,0.0,0.0,76,0.00,,---,0.00,VWS V14.01,2013-03-17 07:25:00,
2013-03-17 03:26:00,52.3,44.7,29.62,NNE,22,0.0,0.0,75,0.00,,---,0.00,VWS V14.01,2013-03-17 07:26:00,
2013-03-17 03:27:00,52.2,44.8,29.62,NNE,22,0.0,0.0,76,0.00,,---,0.00,VWS V14.01,2013-03-17 07:27:00,
2013-03-17 03:28:00,52.2,44.8,29.62,NNE,22,0.0,0.0,76,0.00,,---,0.00,VWS V14.01,2013-03-17 07:28:00,
2013-03-17 03:29:00,52.2,44.8,29.62,NNE,22,0.0,0.0,76,0.00,,---,0.00,VWS V14.01,2013-03-17 07:29:00,
2013-03-17 03:30:00,52.2,44.8,29.62,NNE,22,0.0,0.0,76,0.00,,---,0.00,VWS V14.01,2013-03-17 07:30:00,
2013-03-17 03:31:00,52.2,44.8,29.62,NNE,22,0.0,0.0,76,0.00,,---,0.00,VWS V14.01,2013-03-17 07:31:00,
2013-03-17 03:32:00,52.2,45.2,29.62,NNE,22,0.0,0.0,77,0.00,,---,0.00,VWS V14.01,2013-03-17 07:32:00,
2013-03-17 03:33:00,52.2,44.8,29.62,NNE,22,0.0,0.0,76,0.00,,---,0.00,VWS V14.01,2013-03-17 07:33:00,
2013-03-17 03:34:00,52.2,44.8,29.62,NNE,22,0.0,0.0,76,0.00,,---,0.00,VWS V14.01,2013-03-17 07:34:00,
2013-03-17 03:35:00,52.2,45.2,29.62,NNE,22,0.0,0.0,77,0.00,,---,0.00,VWS V14.01,2013-03-17 07:35:00,
2013-03-17 03:36:00,52.3,45.3,29.62,ENE,68,0.0,0.0,77,0.00,,---,0.00,VWS V14.01,2013-03-17 07:36:00,
2013-03-17 03:37:00,52.3,45.3,29.62,ENE,68,0.0,0.0,77,0.00,,---,0.00,VWS V14.01,2013-03-17 07:37:00,
2013-03-17 03:38:00,52.5,45.9,29.62,ENE,68,0.0,0.0,78,0.00,,---,0.00,VWS V14.01,2013-03-17 07:38:00,
2013-03-17 03:39:00,52.2,45.2,29.62,NNE,22,0.0,0.0,77,0.00,,---,0.00,VWS V14.01,2013-03-17 07:39:00,
2013-03-17 03:40:00,52.3,45.3,29.62,NNE,22,0.0,0.0,77,0.00,,---,0.00,VWS V14.01,2013-03-17 07:40:00,
2013-03-17 03:41:00,52.5,45.5,29.62,ENE,68,0.0,0.0,77,0.00,,---,0.00,VWS V14.01,2013-03-17 07:41:00,
2013-03-17 03:42:00,52.3,45.3,29.62,ENE,68,0.0,0.0,77,0.00,,---,0.00,VWS V14.01,2013-03-17 07:42:00,
2013-03-17 03:43:00,52.5,45.9,29.62,ENE,68,0.0,0.0,78,0.00,,---,0.00,VWS V14.01,2013-03-17 07:43:00,
2013-03-17 03:44:00,52.7,45.7,29.62,ENE,68,0.0,0.0,77,0.00,,---,0.00,VWS V14.01,2013-03-17 07:44:00,
2013-03-17 03:45:00,52.5,45.5,29.62,ENE,68,0.0,0.0,77,0.00,,---,0.00,VWS V14.01,2013-03-17 07:45:00,
2013-03-17 03:46:00,52.9,45.9,29.62,ENE,68,0.0,0.0,77,0.00,,---,0.00,VWS V14.01,2013-03-17 07:46:00,
2013-03-17 03:47:00,52.9,45.9,29.62,ENE,68,0.0,0.0,77,0.00,,---,0.00,VWS V14.01,2013-03-17 07:47:00,
2013-03-17 03:48:00,52.7,45.7,29.62,ENE,68,0.0,0.0,77,0.00,,---,0.00,VWS V14.01,2013-03-17 07:48:00,
2013-03-17 03:49:00,52.7,45.7,29.62,ENE,68,0.0,0.0,77,0.00,,---,0.00,VWS V14.01,2013-03-17 07:49:00,
2013-03-17 03:50:00,52.7,45.7,29.62,ENE,68,0.0,0.0,77,0.00,,---,0.00,VWS V14.01,2013-03-17 07:50:00,
2013-03-17 03:51:00,52.9,45.9,29.62,ENE,68,0.0,0.0,77,0.00,,---,0.00,VWS V14.01,2013-03-17 07:51:00,
2013-03-17 03:52:00,53.2,46.6,29.62,NNE,22,0.0,0.0,78,0.00,,---,0.00,VWS V14.01,2013-03-17 07:52:00,
2013-03-17 03:53:00,53.2,46.6,29.62,NNW,338,0.0,0.0,78,0.00,,---,0.00,VWS V14.01,2013-03-17 07:53:00,
2013-03-17 03:54:00,53.1,46.4,29.62,ENE,68,0.0,0.0,78,0.00,,---,0.00,VWS V14.01,2013-03-17 07:54:00,
2013-03-17 03:55:00,53.4,47.1,29.62,NNW,338,0.0,0.0,79,0.00,,---,0.00,VWS V14.01,2013-03-17 07:55:00,
2013-03-17 03:56:00,53.2,46.6,29.62,ENE,68,0.0,0.0,78,0.00,,---,0.00,VWS V14.01,2013-03-17 07:56:00,
2013-03-17 03:57:00,53.2,46.6,29.62,NNE,22,0.0,0.0,78,0.00,,---,0.00,VWS V14.01,2013-03-17 07:57:00,
2013-03-17 03:58:00,53.1,47.1,29.62,NNW,338,0.0,2.7,80,0.00,,---,0.00,VWS V14.01,2013-03-17 07:58:00,
2013-03-17 04:00:00,53.1,46.4,29.62,NNW,338,0.2,2.2,78,0.00,,---,0.00,VWS V14.01,2013-03-17 08:00:00,
2013-03-17 04:01:00,53.4,48.1,29.62,NNW,338,0.9,3.4,82,0.00,,---,0.00,VWS V14.01,2013-03-17 08:01:00,
2013-03-17 04:02:00,53.2,47.6,29.62,NNW,338,0.7,2.9,81,0.00,,---,0.00,VWS V14.01,2013-03-17 08:02:00,
2013-03-17 04:03:00,52.7,45.7,29.62,NNW,338,0.0,0.0,77,0.00,,---,0.00,VWS V14.01,2013-03-17 08:03:00,
2013-03-17 04:04:00,52.5,45.5,29.62,ENE,68,0.0,0.0,77,0.00,,---,0.00,VWS V14.01,2013-03-17 08:04:00,
2013-03-17 04:05:00,52.5,45.5,29.62,ENE,68,0.0,0.0,77,0.00,,---,0.00,VWS V14.01,2013-03-17 08:05:00,
2013-03-17 04:06:00,52.9,46.2,29.62,NNW,338,0.0,2.2,78,0.00,,---,0.00,VWS V14.01,2013-03-17 08:06:00,
2013-03-17 04:07:00,52.9,46.2,29.62,NNW,338,0.0,1.1,78,0.00,,---,0.00,VWS V14.01,2013-03-17 08:07:00,
2013-03-17 04:08:00,52.7,45.7,29.62,NNW,338,0.0,0.0,77,0.00,,---,0.00,VWS V14.01,2013-03-17 08:08:00,
2013-03-17 04:09:00,52.5,45.5,29.62,ENE,68,0.0,0.0,77,0.00,,---,0.00,VWS V14.01,2013-03-17 08:09:00,
2013-03-17 04:10:00,52.3,46.4,29.62,East,90,0.0,1.6,80,0.00,,---,0.00,VWS V14.01,2013-03-17 08:10:00,
2013-03-17 04:11:00,52.5,45.9,29.62,ENE,68,0.0,0.0,78,0.00,,---,0.00,VWS V14.01,2013-03-17 08:11:00,
2013-03-17 04:12:00,52.3,45.7,29.62,ENE,68,0.0,0.0,78,0.00,,---,0.00,VWS V14.01,2013-03-17 08:12:00,
2013-03-17 04:13:00,52.3,46.4,29.62,East,90,0.0,0.0,80,0.00,,---,0.00,VWS V14.01,2013-03-17 08:13:00,
2013-03-17 04:14:00,52.3,46.4,29.62,East,90,0.0,2.2,80,0.00,,---,0.00,VWS V14.01,2013-03-17 08:14:00,
2013-03-17 04:15:00,52.3,46.4,29.62,East,90,0.0,1.6,80,0.00,,---,0.00,VWS V14.01,2013-03-17 08:15:00,
2013-03-17 04:16:00,52.3,46.0,29.62,ENE,68,0.0,0.0,79,0.00,,---,0.00,VWS V14.01,2013-03-17 08:16:00,
2013-03-17 04:17:00,52.3,46.0,29.62,ENE,68,0.0,0.0,79,0.00,,---,0.00,VWS V14.01,2013-03-17 08:17:00,
2013-03-17 04:18:00,52.3,46.4,29.62,East,90,0.0,0.0,80,0.00,,---,0.00,VWS V14.01,2013-03-17 08:18:00,
2013-03-17 04:19:00,52.3,46.0,29.62,East,90,0.0,0.0,79,0.00,,---,0.00,VWS V14.01,2013-03-17 08:19:00,
2013-03-17 04:20:00,52.7,46.4,29.62,ENE,68,0.0,0.0,79,0.00,,---,0.00,VWS V14.01,2013-03-17 08:20:00,
2013-03-17 04:21:00,52.7,46.4,29.62,ENE,68,0.0,0.0,79,0.00,,---,0.00,VWS V14.01,2013-03-17 08:21:00,
2013-03-17 04:22:00,52.3,46.0,29.62,ENE,68,0.0,0.0,79,0.00,,---,0.00,VWS V14.01,2013-03-17 08:22:00,
2013-03-17 04:23:00,52.5,46.2,29.62,ENE,68,0.0,0.0,79,0.00,,---,0.00,VWS V14.01,2013-03-17 08:23:00,
2013-03-17 04:24:00,52.5,46.2,29.62,ENE,68,0.0,0.0,79,0.00,,---,0.00,VWS V14.01,2013-03-17 08:24:00,
2013-03-17 04:25:00,52.9,46.5,29.62,ENE,68,0.0,0.0,79,0.00,,---,0.00,VWS V14.01,2013-03-17 08:25:00,
2013-03-17 04:26:00,52.7,46.4,29.62,ENE,68,0.0,0.0,79,0.00,,---,0.00,VWS V14.01,2013-03-17 08:26:00,
2013-03-17 04:27:00,52.9,46.5,29.62,ENE,68,0.0,0.0,79,0.00,,---,0.00,VWS V14.01,2013-03-17 08:27:00,
2013-03-17 04:28:00,52.7,46.4,29.62,ENE,68,0.0,0.0,79,0.00,,---,0.00,VWS V14.01,2013-03-17 08:28:00,
2013-03-17 04:29:00,52.9,46.9,29.62,ENE,68,0.0,0.0,80,0.00,,---,0.00,VWS V14.01,2013-03-17 08:29:00,
2013-03-17 04:30:00,52.9,46.6,29.62,ENE,68,0.0,0.0,79,0.00,,---,0.00,VWS V14.01,2013-03-17 08:30:00,
2013-03-17 04:31:00,52.9,46.9,29.62,ENE,68,0.0,0.0,80,0.00,,---,0.00,VWS V14.01,2013-03-17 08:31:00,
2013-03-17 04:32:00,52.9,46.6,29.62,ENE,68,0.0,0.0,79,0.00,,---,0.00,VWS V14.01,2013-03-17 08:32:00,
2013-03-17 04:33:00,52.9,46.6,29.62,ENE,68,0.0,0.0,79,0.00,,---,0.00,VWS V14.01,2013-03-17 08:33:00,
2013-03-17 04:34:00,53.1,47.1,29.62,NW,315,0.0,2.0,80,0.00,,---,0.00,VWS V14.01,2013-03-17 08:34:00,
2013-03-17 04:35:00,52.9,47.2,29.62,NW,315,0.0,2.5,81,0.00,,---,0.00,VWS V14.01,2013-03-17 08:35:00,
2013-03-17 04:36:00,52.9,46.9,29.62,NW,315,0.0,1.6,80,0.00,,---,0.00,VWS V14.01,2013-03-17 08:36:00,
2013-03-17 04:37:00,52.9,46.6,29.62,ENE,68,0.0,0.0,79,0.00,,---,0.00,VWS V14.01,2013-03-17 08:37:00,
2013-03-17 04:38:00,52.9,46.6,29.62,NNW,338,0.0,0.0,79,0.00,,---,0.00,VWS V14.01,2013-03-17 08:38:00,
2013-03-17 04:39:00,53.1,47.1,29.62,NW,315,0.0,2.0,80,0.00,,---,0.00,VWS V14.01,2013-03-17 08:39:00,
2013-03-17 04:40:00,52.9,47.2,29.62,NW,315,0.0,2.5,81,0.00,,---,0.00,VWS V14.01,2013-03-17 08:40:00,
2013-03-17 04:41:00,52.7,46.7,29.62,NW,315,0.0,0.0,80,0.00,,---,0.00,VWS V14.01,2013-03-17 08:41:00,
2013-03-17 04:42:00,52.9,46.9,29.62,NW,315,0.0,1.1,80,0.00,,---,0.00,VWS V14.01,2013-03-17 08:42:00,
2013-03-17 04:43:00,52.5,46.5,29.62,NW,315,0.0,0.0,80,0.00,,---,0.00,VWS V14.01,2013-03-17 08:43:00,
2013-03-17 04:44:00,52.7,46.4,29.62,NW,315,0.0,0.0,79,0.00,,---,0.00,VWS V14.01,2013-03-17 08:44:00,
2013-03-17 04:45:00,52.3,46.0,29.62,NW,315,0.0,0.0,79,0.00,,---,0.00,VWS V14.01,2013-03-17 08:45:00,
2013-03-17 04:46:00,52.7,46.7,29.62,NW,315,0.0,0.0,80,0.00,,---,0.00,VWS V14.01,2013-03-17 08:46:00,
2013-03-17 04:47:00,52.5,46.5,29.62,NW,315,0.0,0.0,80,0.00,,---,0.00,VWS V14.01,2013-03-17 08:47:00,
2013-03-17 04:48:00,52.2,45.5,29.62,NW,315,0.0,0.0,78,0.00,,---,0.00,VWS V14.01,2013-03-17 08:48:00,
2013-03-17 04:49:00,52.2,45.8,29.62,NW,315,0.0,0.0,79,0.00,,---,0.00,VWS V14.01,2013-03-17 08:49:00,
2013-03-17 04:50:00,52.2,45.8,29.62,NW,315,0.0,0.0,79,0.00,,---,0.00,VWS V14.01,2013-03-17 08:50:00,
2013-03-17 04:51:00,52.3,46.0,29.62,NW,315,0.0,0.0,79,0.00,,---,0.00,VWS V14.01,2013-03-17 08:51:00,
2013-03-17 04:52:00,52.2,45.5,29.62,NW,315,0.0,0.0,78,0.00,,---,0.00,VWS V14.01,2013-03-17 08:52:00,
2013-03-17 04:53:00,52.2,45.5,29.62,NW,315,0.0,0.0,78,0.00,,---,0.00,VWS V14.01,2013-03-17 08:53:00,
2013-03-17 04:54:00,52.0,45.7,29.62,NW,315,0.0,0.0,79,0.00,,---,0.00,VWS V14.01,2013-03-17 08:54:00,
2013-03-17 04:55:00,52.0,45.7,29.62,NW,315,0.0,0.0,79,0.00,,---,0.00,VWS V14.01,2013-03-17 08:55:00,
2013-03-17 04:56:00,52.0,45.7,29.62,NW,315,0.0,0.0,79,0.00,,---,0.00,VWS V14.01,2013-03-17 08:56:00,
2013-03-17 04:57:00,52.0,45.7,29.62,NW,315,0.0,0.0,79,0.00,,---,0.00,VWS V14.01,2013-03-17 08:57:00,
2013-03-17 04:58:00,52.0,45.7,29.62,NW,315,0.0,0.0,79,0.00,,---,0.00,VWS V14.01,2013-03-17 08:58:00,
2013-03-17 04:59:00,52.0,45.7,29.62,NW,315,0.0,0.0,79,0.00,,---,0.00,VWS V14.01,2013-03-17 08:59:00,
2013-03-17 05:00:00,52.0,45.7,29.62,NW,315,0.0,0.0,79,0.00,,---,0.00,VWS V14.01,2013-03-17 09:00:00,
2013-03-17 05:01:00,52.0,45.7,29.62,NW,315,0.0,0.0,79,0.00,,---,0.00,VWS V14.01,2013-03-17 09:01:00,
2013-03-17 05:02:00,52.0,45.7,29.62,NW,315,0.0,0.0,79,0.00,,---,0.00,VWS V14.01,2013-03-17 09:02:00,
2013-03-17 05:03:00,52.0,46.3,29.62,NW,315,0.0,2.0,81,0.00,,---,0.00,VWS V14.01,2013-03-17 09:03:00,
2013-03-17 05:04:00,52.0,46.3,29.62,NW,315,0.0,1.3,81,0.00,,---,0.00,VWS V14.01,2013-03-17 09:04:00,
2013-03-17 05:05:00,52.0,46.3,29.62,NW,315,0.0,1.1,81,0.00,,---,0.00,VWS V14.01,2013-03-17 09:05:00,
2013-03-17 05:06:00,52.0,46.3,29.62,NW,315,0.0,1.6,81,0.00,,---,0.00,VWS V14.01,2013-03-17 09:06:00,
2013-03-17 05:07:00,52.2,46.5,29.62,NW,315,0.0,0.0,81,0.00,,---,0.00,VWS V14.01,2013-03-17 09:07:00,
2013-03-17 05:08:00,52.2,46.2,29.62,NW,315,0.0,0.0,80,0.00,,---,0.00,VWS V14.01,2013-03-17 09:08:00,
2013-03-17 05:09:00,52.0,46.3,29.62,NW,315,0.0,1.3,81,0.00,,---,0.00,VWS V14.01,2013-03-17 09:09:00,
2013-03-17 05:10:00,52.0,46.3,29.62,NW,315,0.0,1.1,81,0.00,,---,0.00,VWS V14.01,2013-03-17 09:10:00,
2013-03-17 05:11:00,52.2,46.5,29.62,NW,315,0.0,0.0,81,0.00,,---,0.00,VWS V14.01,2013-03-17 09:11:00,
2013-03-17 05:12:00,52.2,46.5,29.62,NW,315,0.0,0.0,81,0.00,,---,0.00,VWS V14.01,2013-03-17 09:12:00,
2013-03-17 05:13:00,52.2,46.2,29.62,NW,315,0.0,0.0,80,0.00,,---,0.00,VWS V14.01,2013-03-17 09:13:00,
2013-03-17 05:14:00,52.3,47.3,29.62,NW,315,0.0,0.0,83,0.00,,---,0.00,VWS V14.01,2013-03-17 09:14:00,
2013-03-17 05:15:00,52.3,46.7,29.62,NW,315,0.0,0.0,81,0.00,,---,0.00,VWS V14.01,2013-03-17 09:15:00,
2013-03-17 05:16:00,52.3,47.0,29.62,NW,315,0.0,0.0,82,0.00,,---,0.00,VWS V14.01,2013-03-17 09:16:00,
2013-03-17 05:17:00,52.2,46.8,29.62,NW,315,0.0,0.0,82,0.00,,---,0.00,VWS V14.01,2013-03-17 09:17:00,
2013-03-17 05:18:00,52.3,47.3,29.62,NW,315,0.0,0.0,83,0.00,,---,0.00,VWS V14.01,2013-03-17 09:18:00,
2013-03-17 05:19:00,52.3,47.3,29.62,NW,315,0.0,0.0,83,0.00,,---,0.00,VWS V14.01,2013-03-17 09:19:00,
2013-03-17 05:20:00,52.2,46.5,29.62,NW,315,0.0,0.0,81,0.00,,---,0.00,VWS V14.01,2013-03-17 09:20:00,
2013-03-17 05:21:00,52.3,47.0,29.62,NW,315,0.0,0.0,82,0.00,,---,0.00,VWS V14.01,2013-03-17 09:21:00,
2013-03-17 05:22:00,52.2,46.8,29.62,NW,315,0.0,0.0,82,0.00,,---,0.00,VWS V14.01,2013-03-17 09:22:00,
2013-03-17 05:23:00,52.2,46.2,29.62,NW,315,0.0,0.0,80,0.00,,---,0.00,VWS V14.01,2013-03-17 09:23:00,
2013-03-17 05:24:00,52.2,46.8,29.62,NW,315,0.0,0.0,82,0.00,,---,0.00,VWS V14.01,2013-03-17 09:24:00,
2013-03-17 05:25:00,52.0,46.0,29.62,NW,315,0.0,0.0,80,0.00,,---,0.00,VWS V14.01,2013-03-17 09:25:00,
2013-03-17 05:26:00,52.2,46.5,29.62,NW,315,0.0,0.0,81,0.00,,---,0.00,VWS V14.01,2013-03-17 09:26:00,
2013-03-17 05:27:00,52.0,46.0,29.62,NW,315,0.0,0.0,80,0.00,,---,0.00,VWS V14.01,2013-03-17 09:27:00,
2013-03-17 05:28:00,52.0,46.0,29.62,NW,315,0.0,0.0,80,0.00,,---,0.00,VWS V14.01,2013-03-17 09:28:00,
2013-03-17 05:29:00,52.0,46.0,29.62,NW,315,0.0,0.0,80,0.00,,---,0.00,VWS V14.01,2013-03-17 09:29:00,
2013-03-17 05:30:00,52.0,46.0,29.62,NW,315,0.0,0.0,80,0.00,,---,0.00,VWS V14.01,2013-03-17 09:30:00,
2013-03-17 05:31:00,52.0,46.0,29.62,NW,315,0.0,0.0,80,0.00,,---,0.00,VWS V14.01,2013-03-17 09:31:00,
2013-03-17 05:32:00,52.0,46.0,29.62,NW,315,0.0,0.0,80,0.00,,---,0.00,VWS V14.01,2013-03-17 09:32:00,
2013-03-17 05:33:00,52.0,46.0,29.62,NW,315,0.0,0.0,80,0.00,,---,0.00,VWS V14.01,2013-03-17 09:33:00,
2013-03-17 05:34:00,52.0,46.0,29.62,NW,315,0.0,0.0,80,0.00,,---,0.00,VWS V14.01,2013-03-17 09:34:00,
2013-03-17 05:35:00,52.2,46.2,29.62,NW,315,0.0,0.0,80,0.00,,---,0.00,VWS V14.01,2013-03-17 09:35:00,
2013-03-17 05:36:00,52.0,46.0,29.62,NW,315,0.0,0.0,80,0.00,,---,0.00,VWS V14.01,2013-03-17 09:36:00,
2013-03-17 05:37:00,52.2,46.5,29.62,NW,315,0.0,0.0,81,0.00,,---,0.00,VWS V14.01,2013-03-17 09:37:00,
2013-03-17 05:38:00,52.0,46.0,29.62,NW,315,0.0,0.0,80,0.00,,---,0.00,VWS V14.01,2013-03-17 09:38:00,
2013-03-17 05:39:00,52.0,46.0,29.62,NW,315,0.0,0.0,80,0.00,,---,0.00,VWS V14.01,2013-03-17 09:39:00,
2013-03-17 05:40:00,52.2,46.2,29.62,NW,315,0.0,0.0,80,0.00,,---,0.00,VWS V14.01,2013-03-17 09:40:00,
2013-03-17 05:41:00,52.2,46.2,29.62,NW,315,0.0,0.0,80,0.00,,---,0.00,VWS V14.01,2013-03-17 09:41:00,
2013-03-17 05:42:00,52.3,46.7,29.62,NW,315,0.0,0.0,81,0.00,,---,0.00,VWS V14.01,2013-03-17 09:42:00,
2013-03-17 05:43:00,52.3,46.7,29.62,NW,315,0.0,0.0,81,0.00,,---,0.00,VWS V14.01,2013-03-17 09:43:00,
2013-03-17 05:44:00,52.2,46.5,29.62,NW,315,0.0,0.0,81,0.00,,---,0.00,VWS V14.01,2013-03-17 09:44:00,
2013-03-17 05:45:00,52.2,46.5,29.62,NW,315,0.0,0.0,81,0.00,,---,0.00,VWS V14.01,2013-03-17 09:45:00,
2013-03-17 05:46:00,52.3,46.7,29.62,NW,315,0.0,0.0,81,0.00,,---,0.00,VWS V14.01,2013-03-17 09:46:00,
2013-03-17 05:47:00,52.3,46.7,29.62,NW,315,0.0,0.0,81,0.00,,---,0.00,VWS V14.01,2013-03-17 09:47:00,
2013-03-17 05:48:00,52.3,46.7,29.62,NW,315,0.0,0.0,81,0.00,,---,0.00,VWS V14.01,2013-03-17 09:48:00,
2013-03-17 05:49:00,52.3,46.7,29.62,NW,315,0.0,0.0,81,0.00,,---,0.00,VWS V14.01,2013-03-17 09:49:00,
2013-03-17 05:50:00,52.3,46.7,29.62,NW,315,0.0,0.0,81,0.00,,---,0.00,VWS V14.01,2013-03-17 09:50:00,
2013-03-17 05:51:00,52.3,46.7,29.62,NW,315,0.0,0.0,81,0.00,,---,0.00,VWS V14.01,2013-03-17 09:51:00,
2013-03-17 05:52:00,52.3,46.7,29.62,NW,315,0.0,0.0,81,0.00,,---,0.00,VWS V14.01,2013-03-17 09:52:00,
2013-03-17 05:53:00,52.2,46.2,29.62,NW,315,0.0,0.0,80,0.00,,---,0.00,VWS V14.01,2013-03-17 09:53:00,
2013-03-17 05:54:00,52.3,46.7,29.62,NW,315,0.0,0.0,81,0.00,,---,0.00,VWS V14.01,2013-03-17 09:54:00,
2013-03-17 05:55:00,52.2,46.2,29.62,NW,315,0.0,0.0,80,0.00,,---,0.00,VWS V14.01,2013-03-17 09:55:00,
2013-03-17 05:56:00,52.3,46.7,29.62,NW,315,0.0,0.0,81,0.00,,---,0.00,VWS V14.01,2013-03-17 09:56:00,
2013-03-17 05:57:00,52.2,46.5,29.62,NW,315,0.0,0.0,81,0.00,,---,0.00,VWS V14.01,2013-03-17 09:57:00,
2013-03-17 05:58:00,52.2,46.2,29.62,NW,315,0.0,0.0,80,0.00,,---,0.00,VWS V14.01,2013-03-17 09:58:00,
2013-03-17 05:59:00,52.0,46.7,29.62,NW,315,0.0,0.0,82,0.00,,---,0.00,VWS V14.01,2013-03-17 09:59:00,
2013-03-17 06:00:00,52.2,46.2,29.62,NW,315,0.0,0.0,80,0.00,,---,0.00,VWS V14.01,2013-03-17 10:00:00,
2013-03-17 06:01:00,52.2,46.2,29.62,NW,315,0.0,0.0,80,0.00,,---,0.00,VWS V14.01,2013-03-17 10:01:00,
2013-03-17 06:02:00,51.8,45.8,29.62,NW,315,0.0,0.0,80,0.00,,---,0.00,VWS V14.01,2013-03-17 10:02:00,
2013-03-17 06:03:00,52.0,46.7,29.62,NW,315,0.0,0.0,82,0.00,,---,0.00,VWS V14.01,2013-03-17 10:03:00,
2013-03-17 06:04:00,52.0,46.7,29.62,NW,315,0.0,0.0,82,0.00,,---,0.00,VWS V14.01,2013-03-17 10:04:00,
2013-03-17 06:05:00,51.8,46.2,29.62,NW,315,0.0,0.0,81,0.00,,---,0.00,VWS V14.01,2013-03-17 10:05:00,
2013-03-17 06:06:00,52.0,46.3,29.62,NW,315,0.0,0.0,81,0.00,,---,0.00,VWS V14.01,2013-03-17 10:06:00,
2013-03-17 06:07:00,51.8,46.5,29.62,ESE,112,0.0,0.0,82,0.00,,---,0.00,VWS V14.01,2013-03-17 10:07:00,
2013-03-17 06:08:00,51.8,45.8,29.62,NW,315,0.0,0.0,80,0.00,,---,0.00,VWS V14.01,2013-03-17 10:08:00,
2013-03-17 06:09:00,51.8,45.8,29.62,NW,315,0.0,0.0,80,0.00,,---,0.00,VWS V14.01,2013-03-17 10:09:00,
2013-03-17 06:10:00,51.8,46.2,29.62,NW,315,0.0,0.0,81,0.00,,---,0.00,VWS V14.01,2013-03-17 10:10:00,
2013-03-17 06:11:00,51.8,46.2,29.62,NW,315,0.0,0.0,81,0.00,,---,0.00,VWS V14.01,2013-03-17 10:11:00,
2013-03-17 06:12:00,51.8,46.5,29.62,ESE,112,0.0,0.0,82,0.00,,---,0.00,VWS V14.01,2013-03-17 10:12:00,
2013-03-17 06:13:00,52.0,47.3,29.65,East,90,0.2,2.2,84,0.00,,---,0.00,VWS V14.01,2013-03-17 10:13:00,
2013-03-17 06:14:00,52.0,47.3,29.65,East,90,0.0,2.2,84,0.00,,---,0.00,VWS V14.01,2013-03-17 10:14:00,
2013-03-17 06:15:00,51.8,46.8,29.65,ESE,112,0.0,0.0,83,0.00,,---,0.00,VWS V14.01,2013-03-17 10:15:00,
2013-03-17 06:16:00,52.0,47.0,29.65,ESE,112,0.0,0.0,83,0.00,,---,0.00,VWS V14.01,2013-03-17 10:16:00,
2013-03-17 06:17:00,52.2,47.5,29.65,East,90,0.0,2.0,84,0.00,,---,0.00,VWS V14.01,2013-03-17 10:17:00,
2013-03-17 06:18:00,52.0,47.3,29.65,East,90,0.2,2.2,84,0.00,,---,0.00,VWS V14.01,2013-03-17 10:18:00,
2013-03-17 06:19:00,52.2,47.5,29.65,East,90,0.0,1.6,84,0.00,,---,0.00,VWS V14.01,2013-03-17 10:19:00,
2013-03-17 06:20:00,52.2,47.5,29.65,East,90,0.0,2.0,84,0.00,,---,0.00,VWS V14.01,2013-03-17 10:20:00,
2013-03-17 06:21:00,52.2,47.5,29.65,East,90,0.0,2.0,84,0.00,,---,0.00,VWS V14.01,2013-03-17 10:21:00,
2013-03-17 06:22:00,52.2,47.2,29.65,NE,45,0.0,0.0,83,0.00,,---,0.00,VWS V14.01,2013-03-17 10:22:00,
2013-03-17 06:23:00,52.2,47.2,29.65,NNE,22,0.0,0.0,83,0.00,,---,0.00,VWS V14.01,2013-03-17 10:23:00,
2013-03-17 06:24:00,52.2,47.5,29.65,East,90,0.0,1.6,84,0.00,,---,0.00,VWS V14.01,2013-03-17 10:24:00,
2013-03-17 06:25:00,52.2,47.5,29.65,East,90,0.0,1.6,84,0.00,,---,0.00,VWS V14.01,2013-03-17 10:25:00,
2013-03-17 06:26:00,52.2,46.8,29.65,NNW,338,0.2,2.2,82,0.00,,---,0.00,VWS V14.01,2013-03-17 10:26:00,
2013-03-17 06:27:00,52.2,47.2,29.65,NW,315,0.2,1.6,83,0.00,,---,0.00,VWS V14.01,2013-03-17 10:27:00,
2013-03-17 06:28:00,52.2,47.5,29.65,NW,315,0.2,1.3,84,0.00,,---,0.00,VWS V14.01,2013-03-17 10:28:00,
2013-03-17 06:29:00,52.2,47.2,29.65,NNW,338,0.0,0.0,83,0.00,,---,0.00,VWS V14.01,2013-03-17 10:29:00,
2013-03-17 06:30:00,52.2,47.2,29.65,NNW,338,0.2,2.2,83,0.00,,---,0.00,VWS V14.01,2013-03-17 10:30:00,
2013-03-17 06:31:00,52.0,47.3,29.65,NW,315,0.2,0.0,84,0.00,,---,0.00,VWS V14.01,2013-03-17 10:31:00,
2013-03-17 06:32:00,52.2,47.2,29.65,NW,315,0.2,1.6,83,0.00,,---,0.00,VWS V14.01,2013-03-17 10:32:00,
2013-03-17 06:33:00,51.6,46.6,29.65,NW,315,0.2,0.0,83,0.00,,---,0.00,VWS V14.01,2013-03-17 10:33:00,
2013-03-17 06:34:00,51.6,46.6,29.65,NW,315,0.2,0.0,83,0.00,,---,0.00,VWS V14.01,2013-03-17 10:34:00,
2013-03-17 06:35:00,52.0,47.3,29.65,NW,315,0.2,0.0,84,0.00,,---,0.00,VWS V14.01,2013-03-17 10:35:00,
2013-03-17 06:36:00,52.0,47.3,29.65,NW,315,0.2,0.0,84,0.00,,---,0.00,VWS V14.01,2013-03-17 10:36:00,
2013-03-17 06:37:00,51.6,46.3,29.65,NW,315,0.2,0.0,82,0.00,,---,0.00,VWS V14.01,2013-03-17 10:37:00,
2013-03-17 06:38:00,51.6,46.6,29.65,NW,315,0.2,0.0,83,0.00,,---,0.00,VWS V14.01,2013-03-17 10:38:00,
2013-03-17 06:39:00,51.6,46.6,29.65,NW,315,0.2,0.0,83,0.00,,---,0.00,VWS V14.01,2013-03-17 10:39:00,
2013-03-17 06:40:00,51.6,46.6,29.65,NW,315,0.2,0.0,83,0.00,,---,0.00,VWS V14.01,2013-03-17 10:40:00,
2013-03-17 06:41:00,51.4,46.1,29.65,NW,315,0.2,0.0,82,0.00,,---,0.00,VWS V14.01,2013-03-17 10:41:00,
2013-03-17 06:42:00,51.6,46.3,29.65,NW,315,0.2,0.0,82,0.00,,---,0.00,VWS V14.01,2013-03-17 10:42:00,
2013-03-17 06:43:00,51.4,46.1,29.65,NW,315,0.2,0.0,82,0.00,,---,0.00,VWS V14.01,2013-03-17 10:43:00,
2013-03-17 06:44:00,51.3,46.0,29.65,NW,315,0.2,0.0,82,0.00,,---,0.00,VWS V14.01,2013-03-17 10:44:00,
2013-03-17 06:45:00,51.3,46.0,29.65,NW,315,0.2,0.0,82,0.00,,---,0.00,VWS V14.01,2013-03-17 10:45:00,
2013-03-17 06:46:00,51.4,46.1,29.65,NW,315,0.2,0.0,82,0.00,,---,0.00,VWS V14.01,2013-03-17 10:46:00,
2013-03-17 06:47:00,51.4,46.1,29.65,NW,315,0.2,0.0,82,0.00,,---,0.00,VWS V14.01,2013-03-17 10:47:00,
2013-03-17 06:48:00,51.3,46.0,29.65,NW,315,0.2,0.0,82,0.00,,---,0.00,VWS V14.01,2013-03-17 10:48:00,
2013-03-17 06:49:00,51.3,46.0,29.65,NW,315,0.2,0.0,82,0.00,,---,0.00,VWS V14.01,2013-03-17 10:49:00,
2013-03-17 06:50:00,51.3,46.0,29.65,NW,315,0.2,0.0,82,0.00,,---,0.00,VWS V14.01,2013-03-17 10:50:00,
2013-03-17 06:51:00,51.3,46.0,29.65,NW,315,0.2,0.0,82,0.00,,---,0.00,VWS V14.01,2013-03-17 10:51:00,
2013-03-17 06:52:00,51.1,46.1,29.65,NW,315,0.2,0.0,83,0.00,,---,0.00,VWS V14.01,2013-03-17 10:52:00,
2013-03-17 06:53:00,51.1,46.1,29.65,NW,315,0.2,0.0,83,0.00,,---,0.00,VWS V14.01,2013-03-17 10:53:00,
2013-03-17 06:54:00,51.3,46.0,29.65,NW,315,0.2,0.0,82,0.00,,---,0.00,VWS V14.01,2013-03-17 10:54:00,
2013-03-17 06:55:00,51.1,46.1,29.65,NW,315,0.2,0.0,83,0.00,,---,0.00,VWS V14.01,2013-03-17 10:55:00,
2013-03-17 06:56:00,51.3,46.3,29.65,NW,315,0.2,0.0,83,0.00,,---,0.00,VWS V14.01,2013-03-17 10:56:00,
2013-03-17 06:57:00,51.3,46.6,29.65,NW,315,0.2,0.0,84,0.00,,---,0.00,VWS V14.01,2013-03-17 10:57:00,
2013-03-17 06:58:00,51.1,46.1,29.65,NW,315,0.2,0.0,83,0.00,,---,0.00,VWS V14.01,2013-03-17 10:58:00,
2013-03-17 06:59:00,51.3,47.2,29.65,NW,315,0.2,0.0,86,0.00,,---,0.00,VWS V14.01,2013-03-17 10:59:00,
2013-03-17 07:00:00,51.1,46.1,29.65,NW,315,0.2,0.0,83,0.00,,---,0.00,VWS V14.01,2013-03-17 11:00:00,
2013-03-17 07:01:00,51.3,46.3,29.65,NW,315,0.2,0.0,83,0.00,,---,0.00,VWS V14.01,2013-03-17 11:01:00,
2013-03-17 07:02:00,51.3,47.2,29.65,NNW,338,0.2,0.0,86,0.00,,---,0.00,VWS V14.01,2013-03-17 11:02:00,
2013-03-17 07:03:00,51.3,47.2,29.65,NW,315,0.2,0.0,86,0.00,,---,0.00,VWS V14.01,2013-03-17 11:03:00,
2013-03-17 07:04:00,51.3,47.2,29.65,NW,315,0.2,0.0,86,0.00,,---,0.00,VWS V14.01,2013-03-17 11:04:00,
2013-03-17 07:05:00,51.3,47.2,29.65,NNW,338,0.2,0.0,86,0.00,,---,0.00,VWS V14.01,2013-03-17 11:05:00,
2013-03-17 07:06:00,51.3,46.9,29.65,NNW,338,0.2,0.0,85,0.00,,---,0.00,VWS V14.01,2013-03-17 11:06:00,
2013-03-17 07:07:00,51.3,47.2,29.65,NNW,338,0.2,0.0,86,0.00,,---,0.00,VWS V14.01,2013-03-17 11:07:00,
2013-03-17 07:08:00,51.3,47.5,29.65,NNW,338,0.2,0.0,87,0.00,,---,0.00,VWS V14.01,2013-03-17 11:08:00,
2013-03-17 07:09:00,51.1,46.4,29.65,NNW,338,0.2,0.0,84,0.00,,---,0.00,VWS V14.01,2013-03-17 11:09:00,
2013-03-17 07:10:00,51.3,47.2,29.65,NNW,338,0.2,0.0,86,0.00,,---,0.00,VWS V14.01,2013-03-17 11:10:00,
2013-03-17 07:11:00,51.3,46.9,29.65,NNW,338,0.2,0.0,85,0.00,,---,0.00,VWS V14.01,2013-03-17 11:11:00,
2013-03-17 07:12:00,51.1,46.4,29.65,NNW,338,0.2,0.0,84,0.00,,---,0.00,VWS V14.01,2013-03-17 11:12:00,
2013-03-17 07:13:00,51.3,46.6,29.65,NNW,338,0.2,0.0,84,0.00,,---,0.00,VWS V14.01,2013-03-17 11:13:00,
2013-03-17 07:14:00,51.1,46.4,29.65,NNW,338,0.2,0.0,84,0.00,,---,0.00,VWS V14.01,2013-03-17 11:14:00,
2013-03-17 07:15:00,51.1,46.4,29.65,North,0,0.2,0.0,84,0.00,,---,0.00,VWS V14.01,2013-03-17 11:15:00,
2013-03-17 07:16:00,51.1,46.4,29.65,North,0,0.2,0.0,84,0.00,,---,0.00,VWS V14.01,2013-03-17 11:16:00,
2013-03-17 07:17:00,51.1,46.4,29.65,NNW,338,0.2,0.0,84,0.00,,---,0.00,VWS V14.01,2013-03-17 11:17:00,
2013-03-17 07:18:00,51.3,46.6,29.65,North,0,0.2,0.0,84,0.00,,---,0.00,VWS V14.01,2013-03-17 11:18:00,
2013-03-17 07:19:00,51.1,46.4,29.65,NNW,338,0.2,0.0,84,0.00,,---,0.00,VWS V14.01,2013-03-17 11:19:00,
2013-03-17 07:20:00,51.1,46.4,29.65,North,0,0.2,0.0,84,0.00,,---,0.00,VWS V14.01,2013-03-17 11:20:00,
2013-03-17 07:21:00,51.3,46.6,29.65,NNE,22,0.2,0.0,84,0.00,,---,0.00,VWS V14.01,2013-03-17 11:21:00,
2013-03-17 07:22:00,51.3,46.6,29.65,North,0,0.2,0.0,84,0.00,,---,0.00,VWS V14.01,2013-03-17 11:22:00,
2013-03-17 07:23:00,51.3,46.9,29.65,NNE,22,0.2,0.0,85,0.00,,---,0.00,VWS V14.01,2013-03-17 11:23:00,
2013-03-17 07:24:00,51.3,46.6,29.65,North,0,0.2,0.0,84,0.00,,---,0.00,VWS V14.01,2013-03-17 11:24:00,
2013-03-17 07:25:00,51.3,46.6,29.65,NNE,22,0.2,0.0,84,0.00,,---,0.00,VWS V14.01,2013-03-17 11:25:00,
2013-03-17 07:26:00,51.3,46.6,29.65,NNE,22,0.2,0.0,84,0.00,,---,0.00,VWS V14.01,2013-03-17 11:26:00,
2013-03-17 07:27:00,51.4,46.8,29.65,NNE,22,0.2,0.0,84,0.00,,---,0.00,VWS V14.01,2013-03-17 11:27:00,
2013-03-17 07:28:00,51.3,46.9,29.65,NNE,22,0.2,0.0,85,0.00,,---,0.00,VWS V14.01,2013-03-17 11:28:00,
2013-03-17 07:29:00,51.4,46.8,29.65,NNE,22,0.2,0.0,84,0.00,,---,0.00,VWS V14.01,2013-03-17 11:29:00,
2013-03-17 07:30:00,51.4,46.8,29.65,NNE,22,0.2,0.0,84,0.00,,---,0.00,VWS V14.01,2013-03-17 11:30:00,
2013-03-17 07:31:00,51.4,46.8,29.65,NNE,22,0.2,0.0,84,0.00,,---,0.00,VWS V14.01,2013-03-17 11:31:00,
2013-03-17 07:32:00,51.4,46.8,29.65,NNE,22,0.2,0.0,84,0.00,,---,0.00,VWS V14.01,2013-03-17 11:32:00,
2013-03-17 07:33:00,51.4,46.8,29.65,NNE,22,0.2,0.0,84,0.00,,---,0.00,VWS V14.01,2013-03-17 11:33:00,
2013-03-17 07:34:00,51.4,46.8,29.65,NNE,22,0.2,0.0,84,0.00,,---,0.00,VWS V14.01,2013-03-17 11:34:00,
2013-03-17 07:35:00,51.4,46.8,29.65,NNE,22,0.2,0.0,84,0.00,,---,0.00,VWS V14.01,2013-03-17 11:35:00,
2013-03-17 07:36:00,51.4,46.8,29.65,NNE,22,0.2,0.0,84,0.00,,---,0.00,VWS V14.01,2013-03-17 11:36:00,
2013-03-17 07:37:00,51.6,47.0,29.65,NNE,22,0.2,0.0,84,0.00,,---,0.00,VWS V14.01,2013-03-17 11:37:00,
2013-03-17 07:38:00,51.6,47.0,29.65,NNE,22,0.2,0.0,84,0.00,,---,0.00,VWS V14.01,2013-03-17 11:38:00,
2013-03-17 07:39:00,51.6,47.0,29.65,NNE,22,0.2,0.0,84,0.00,,---,0.00,VWS V14.01,2013-03-17 11:39:00,
2013-03-17 07:40:00,51.6,47.0,29.65,NNE,22,0.2,0.0,84,0.00,,---,0.00,VWS V14.01,2013-03-17 11:40:00,
2013-03-17 07:41:00,51.6,47.0,29.65,NNE,22,0.2,0.0,84,0.00,,---,0.00,VWS V14.01,2013-03-17 11:41:00,
2013-03-17 07:42:00,51.6,47.0,29.65,NNE,22,0.2,0.0,84,0.00,,---,0.00,VWS V14.01,2013-03-17 11:42:00,
2013-03-17 07:43:00,51.8,46.8,29.65,NNE,22,0.2,0.0,83,0.00,,---,0.00,VWS V14.01,2013-03-17 11:43:00,
2013-03-17 07:44:00,51.6,47.0,29.65,NNE,22,0.2,0.0,84,0.00,,---,0.00,VWS V14.01,2013-03-17 11:44:00,
2013-03-17 07:45:00,51.6,47.0,29.65,NNE,22,0.2,0.0,84,0.00,,---,0.00,VWS V14.01,2013-03-17 11:45:00,
2013-03-17 07:46:00,51.6,47.0,29.65,NNE,22,0.2,0.0,84,0.00,,---,0.00,VWS V14.01,2013-03-17 11:46:00,
2013-03-17 07:47:00,52.0,47.0,29.65,NNE,22,0.2,0.0,83,0.00,,---,0.00,VWS V14.01,2013-03-17 11:47:00,
2013-03-17 07:48:00,52.0,47.3,29.65,NNE,22,0.2,0.0,84,0.00,,---,0.00,VWS V14.01,2013-03-17 11:48:00,
2013-03-17 07:49:00,51.8,46.8,29.65,NNE,22,0.2,0.0,83,0.00,,---,0.00,VWS V14.01,2013-03-17 11:49:00,
2013-03-17 07:50:00,51.8,46.8,29.65,NNE,22,0.2,0.0,83,0.00,,---,0.00,VWS V14.01,2013-03-17 11:50:00,
2013-03-17 07:51:00,51.8,46.8,29.65,NNE,22,0.2,0.0,83,0.00,,---,0.00,VWS V14.01,2013-03-17 11:51:00,
2013-03-17 07:52:00,52.0,47.0,29.65,NNE,22,0.2,0.0,83,0.00,,---,0.00,VWS V14.01,2013-03-17 11:52:00,
2013-03-17 07:53:00,52.0,47.0,29.65,NNE,22,0.2,0.0,83,0.00,,---,0.00,VWS V14.01,2013-03-17 11:53:00,
2013-03-17 07:54:00,52.0,47.0,29.65,NNE,22,0.2,0.0,83,0.00,,---,0.00,VWS V14.01,2013-03-17 11:54:00,
2013-03-17 07:55:00,52.0,47.0,29.65,NNE,22,0.2,0.0,83,0.00,,---,0.00,VWS V14.01,2013-03-17 11:55:00,
2013-03-17 07:56:00,52.0,47.0,29.65,NNE,22,0.2,0.0,83,0.00,,---,0.00,VWS V14.01,2013-03-17 11:56:00,
2013-03-17 07:57:00,52.0,47.0,29.65,NNE,22,0.2,0.0,83,0.00,,---,0.00,VWS V14.01,2013-03-17 11:57:00,
2013-03-17 07:58:00,52.0,47.0,29.65,NNE,22,0.2,0.0,83,0.00,,---,0.00,VWS V14.01,2013-03-17 11:58:00,
2013-03-17 07:59:00,52.0,47.3,29.65,NNW,338,0.2,0.0,84,0.00,,---,0.00,VWS V14.01,2013-03-17 11:59:00,
2013-03-17 08:00:00,52.0,47.0,29.65,NNE,22,0.2,0.0,83,0.00,,---,0.00,VWS V14.01,2013-03-17 12:00:00,
2013-03-17 08:01:00,52.0,47.0,29.65,NNE,22,0.2,0.0,83,0.00,,---,0.00,VWS V14.01,2013-03-17 12:01:00,
2013-03-17 08:02:00,52.0,47.3,29.65,NNW,338,0.2,0.0,84,0.00,,---,0.00,VWS V14.01,2013-03-17 12:02:00,
2013-03-17 08:03:00,52.0,47.0,29.65,NNE,22,0.2,0.0,83,0.00,,---,0.00,VWS V14.01,2013-03-17 12:03:00,
2013-03-17 08:04:00,52.0,47.3,29.65,NNW,338,0.2,0.0,84,0.00,,---,0.00,VWS V14.01,2013-03-17 12:04:00,
2013-03-17 08:05:00,52.0,47.3,29.65,NNW,338,0.2,0.0,84,0.00,,---,0.00,VWS V14.01,2013-03-17 12:05:00,
2013-03-17 08:06:00,52.0,47.3,29.65,NNW,338,0.2,0.0,84,0.00,,---,0.00,VWS V14.01,2013-03-17 12:06:00,
2013-03-17 08:07:00,52.0,47.0,29.65,NNW,338,0.2,0.0,83,0.00,,---,0.00,VWS V14.01,2013-03-17 12:07:00,
2013-03-17 08:08:00,52.0,47.3,29.65,NNW,338,0.2,0.0,84,0.00,,---,0.00,VWS V14.01,2013-03-17 12:08:00,
2013-03-17 08:09:00,51.8,46.8,29.65,NNW,338,0.2,0.0,83,0.00,,---,0.00,VWS V14.01,2013-03-17 12:09:00,
2013-03-17 08:10:00,52.0,47.3,29.65,NNW,338,0.2,0.0,84,0.00,,---,0.00,VWS V14.01,2013-03-17 12:10:00,
2013-03-17 08:11:00,52.0,47.3,29.65,NNW,338,0.2,0.0,84,0.00,,---,0.00,VWS V14.01,2013-03-17 12:11:00,
2013-03-17 08:12:00,52.0,47.0,29.65,NNW,338,0.2,0.0,83,0.00,,---,0.00,VWS V14.01,2013-03-17 12:12:00,
2013-03-17 08:13:00,51.8,46.8,29.65,NNW,338,0.2,0.0,83,0.00,,---,0.00,VWS V14.01,2013-03-17 12:13:00,
2013-03-17 08:14:00,52.0,47.3,29.65,NNW,338,0.2,0.0,84,0.00,,---,0.00,VWS V14.01,2013-03-17 12:14:00,
2013-03-17 08:15:00,51.8,46.8,29.65,NNW,338,0.2,0.0,83,0.00,,---,0.00,VWS V14.01,2013-03-17 12:15:00,
2013-03-17 08:16:00,51.8,46.8,29.65,NNW,338,0.2,0.0,83,0.00,,---,0.00,VWS V14.01,2013-03-17 12:16:00,
2013-03-17 08:17:00,51.8,47.4,29.65,NNW,338,0.2,0.0,85,0.00,,---,0.00,VWS V14.01,2013-03-17 12:17:00,
2013-03-17 08:18:00,51.8,46.8,29.65,NNW,338,0.2,0.0,83,0.00,,---,0.00,VWS V14.01,2013-03-17 12:18:00,
2013-03-17 08:19:00,52.0,47.3,29.65,NNW,338,0.2,0.0,84,0.00,,---,0.00,VWS V14.01,2013-03-17 12:19:00,
2013-03-17 08:20:00,51.8,47.1,29.65,NNW,338,0.2,0.0,84,0.00,,---,0.00,VWS V14.01,2013-03-17 12:20:00,
2013-03-17 08:21:00,51.8,47.4,29.65,NNW,338,0.2,0.0,85,0.00,,---,0.00,VWS V14.01,2013-03-17 12:21:00,
2013-03-17 08:22:00,52.0,47.3,29.65,NNW,338,0.2,0.0,84,0.00,,---,0.00,VWS V14.01,2013-03-17 12:22:00,
2013-03-17 08:23:00,51.8,47.4,29.65,NNW,338,0.2,0.0,85,0.00,,---,0.00,VWS V14.01,2013-03-17 12:23:00,
2013-03-17 08:24:00,51.8,47.4,29.65,NNW,338,0.2,0.0,85,0.00,,---,0.00,VWS V14.01,2013-03-17 12:24:00,
2013-03-17 08:25:00,51.8,47.1,29.65,NNW,338,0.2,0.0,84,0.00,,---,0.00,VWS V14.01,2013-03-17 12:25:00,
2013-03-17 08:26:00,52.0,47.3,29.65,NNW,338,0.2,0.0,84,0.00,,---,0.00,VWS V14.01,2013-03-17 12:26:00,
2013-03-17 08:27:00,52.0,47.3,29.65,NNW,338,0.2,0.0,84,0.00,,---,0.00,VWS V14.01,2013-03-17 12:27:00,
2013-03-17 08:28:00,52.0,47.3,29.65,NNW,338,0.2,0.0,84,0.00,,---,0.00,VWS V14.01,2013-03-17 12:28:00,
2013-03-17 08:29:00,52.0,47.3,29.65,NNW,338,0.2,0.0,84,0.00,,---,0.00,VWS V14.01,2013-03-17 12:29:00,
2013-03-17 08:30:00,52.0,47.3,29.65,NNW,338,0.2,0.0,84,0.00,,---,0.00,VWS V14.01,2013-03-17 12:30:00,
2013-03-17 08:31:00,52.2,47.5,29.65,NNW,338,0.2,0.0,84,0.00,,---,0.00,VWS V14.01,2013-03-17 12:31:00,
2013-03-17 08:32:00,52.2,47.5,29.65,NNW,338,0.2,0.0,84,0.00,,---,0.00,VWS V14.01,2013-03-17 12:32:00,
2013-03-17 08:33:00,52.0,47.3,29.65,NNW,338,0.2,0.0,84,0.00,,---,0.00,VWS V14.01,2013-03-17 12:33:00,
2013-03-17 08:34:00,52.2,47.5,29.65,NNW,338,0.2,0.0,84,0.00,,---,0.00,VWS V14.01,2013-03-17 12:34:00,
2013-03-17 08:35:00,52.2,47.5,29.65,NNW,338,0.2,0.0,84,0.00,,---,0.00,VWS V14.01,2013-03-17 12:35:00,
2013-03-17 08:36:00,52.2,47.5,29.65,NNW,338,0.2,0.0,84,0.00,,---,0.00,VWS V14.01,2013-03-17 12:36:00,
2013-03-17 08:37:00,52.2,47.5,29.65,NNW,338,0.2,0.0,84,0.00,,---,0.00,VWS V14.01,2013-03-17 12:37:00,
2013-03-17 08:38:00,52.2,47.5,29.65,NNW,338,0.2,0.0,84,0.00,,---,0.00,VWS V14.01,2013-03-17 12:38:00,
2013-03-17 08:39:00,52.2,47.5,29.65,NNW,338,0.2,0.0,84,0.00,,---,0.00,VWS V14.01,2013-03-17 12:39:00,
2013-03-17 08:40:00,52.2,47.8,29.65,NNW,338,0.2,0.0,85,0.00,,---,0.00,VWS V14.01,2013-03-17 12:40:00,
2013-03-17 08:41:00,52.2,47.5,29.65,NNW,338,0.2,0.0,84,0.00,,---,0.00,VWS V14.01,2013-03-17 12:41:00,
2013-03-17 08:42:00,52.2,47.5,29.68,NNE,22,0.2,0.0,84,0.00,,---,0.00,VWS V14.01,2013-03-17 12:42:00,
2013-03-17 08:43:00,52.3,47.7,29.68,NNE,22,0.2,0.0,84,0.00,,---,0.00,VWS V14.01,2013-03-17 12:43:00,
2013-03-17 08:44:00,52.3,47.7,29.68,NNE,22,0.2,0.0,84,0.00,,---,0.00,VWS V14.01,2013-03-17 12:44:00,
2013-03-17 08:45:00,52.2,47.5,29.68,NNW,338,0.2,0.0,84,0.00,,---,0.00,VWS V14.01,2013-03-17 12:45:00,
2013-03-17 08:46:00,52.2,47.5,29.68,NNW,338,0.2,0.0,84,0.00,,---,0.00,VWS V14.01,2013-03-17 12:46:00,
2013-03-17 08:47:00,52.2,47.5,29.68,NNE,22,0.2,0.0,84,0.00,,---,0.00,VWS V14.01,2013-03-17 12:47:00,
2013-03-17 08:48:00,52.3,47.7,29.68,NNE,22,0.2,0.0,84,0.00,,---,0.00,VWS V14.01,2013-03-17 12:48:00,
2013-03-17 08:49:00,52.3,47.7,29.68,NNE,22,0.2,0.0,84,0.00,,---,0.00,VWS V14.01,2013-03-17 12:49:00,
2013-03-17 08:50:00,52.3,47.7,29.68,NNE,22,0.2,0.0,84,0.00,,---,0.00,VWS V14.01,2013-03-17 12:50:00,
2013-03-17 08:51:00,52.3,47.7,29.68,NNE,22,0.2,0.0,84,0.00,,---,0.00,VWS V14.01,2013-03-17 12:51:00,
2013-03-17 08:52:00,52.5,47.5,29.68,NNE,22,0.2,0.0,83,0.00,,---,0.00,VWS V14.01,2013-03-17 12:52:00,
2013-03-17 08:53:00,52.3,47.7,29.68,NNE,22,0.2,0.0,84,0.00,,---,0.00,VWS V14.01,2013-03-17 12:53:00,
2013-03-17 08:54:00,52.3,47.7,29.68,NNE,22,0.2,0.0,84,0.00,,---,0.00,VWS V14.01,2013-03-17 12:54:00,
2013-03-17 08:55:00,52.5,47.5,29.68,NNE,22,0.2,0.0,83,0.00,,---,0.00,VWS V14.01,2013-03-17 12:55:00,
2013-03-17 08:56:00,52.3,47.7,29.68,NNE,22,0.2,0.0,84,0.00,,---,0.00,VWS V14.01,2013-03-17 12:56:00,
2013-03-17 08:57:00,52.5,47.5,29.68,NNE,22,0.2,0.0,83,0.00,,---,0.00,VWS V14.01,2013-03-17 12:57:00,
2013-03-17 08:58:00,52.7,47.7,29.68,NNE,22,0.2,0.0,83,0.00,,---,0.00,VWS V14.01,2013-03-17 12:58:00,
2013-03-17 08:59:00,52.5,47.5,29.68,NNE,22,0.2,0.0,83,0.00,,---,0.00,VWS V14.01,2013-03-17 12:59:00,
2013-03-17 09:00:00,52.9,48.2,29.68,NNE,22,0.2,0.0,84,0.00,,---,0.00,VWS V14.01,2013-03-17 13:00:00,
2013-03-17 09:01:00,52.5,47.5,29.68,NNE,22,0.2,0.0,83,0.00,,---,0.00,VWS V14.01,2013-03-17 13:01:00,
2013-03-17 09:02:00,52.9,48.2,29.68,NNE,22,0.2,0.0,84,0.00,,---,0.00,VWS V14.01,2013-03-17 13:02:00,
2013-03-17 09:03:00,53.1,48.4,29.68,NNE,22,0.2,0.0,84,0.00,,---,0.00,VWS V14.01,2013-03-17 13:03:00,
2013-03-17 09:04:00,52.7,47.7,29.68,NNE,22,0.2,0.0,83,0.00,,---,0.00,VWS V14.01,2013-03-17 13:04:00,
2013-03-17 09:05:00,52.9,48.2,29.68,NNE,22,0.2,0.0,84,0.00,,---,0.00,VWS V14.01,2013-03-17 13:05:00,
2013-03-17 09:06:00,52.9,48.2,29.68,NNE,22,0.2,0.0,84,0.00,,---,0.00,VWS V14.01,2013-03-17 13:06:00,
2013-03-17 09:07:00,52.9,48.2,29.68,NNE,22,0.2,0.0,84,0.00,,---,0.00,VWS V14.01,2013-03-17 13:07:00,
2013-03-17 09:08:00,53.2,48.5,29.68,North,0,0.0,1.3,84,0.00,,---,0.00,VWS V14.01,2013-03-17 13:08:00,
2013-03-17 09:09:00,53.4,48.7,29.68,North,0,0.0,0.0,84,0.00,,---,0.00,VWS V14.01,2013-03-17 13:09:00,
2013-03-17 09:10:00,53.1,48.4,29.68,North,0,0.2,1.3,84,0.00,,---,0.00,VWS V14.01,2013-03-17 13:10:00,
2013-03-17 09:11:00,53.4,48.7,29.68,SE,135,0.0,0.0,84,0.00,,---,0.00,VWS V14.01,2013-03-17 13:11:00,
2013-03-17 09:12:00,53.2,48.5,29.68,North,0,0.0,2.0,84,0.00,,---,0.00,VWS V14.01,2013-03-17 13:12:00,
2013-03-17 09:13:00,53.4,48.4,29.68,SE,135,0.7,2.7,83,0.00,,---,0.00,VWS V14.01,2013-03-17 13:13:00,
2013-03-17 09:14:00,53.4,48.7,29.68,North,0,0.0,0.0,84,0.00,,---,0.00,VWS V14.01,2013-03-17 13:14:00,
2013-03-17 09:15:00,53.4,48.7,29.68,North,0,0.0,0.0,84,0.00,,---,0.00,VWS V14.01,2013-03-17 13:15:00,
2013-03-17 09:16:00,53.4,48.7,29.68,SE,135,0.0,0.0,84,0.00,,---,0.00,VWS V14.01,2013-03-17 13:16:00,
2013-03-17 09:17:00,53.4,48.7,29.68,East,90,0.0,1.3,84,0.00,,---,0.00,VWS V14.01,2013-03-17 13:17:00,
2013-03-17 09:18:00,53.4,48.4,29.68,SE,135,0.7,2.7,83,0.00,,---,0.00,VWS V14.01,2013-03-17 13:18:00,
2013-03-17 09:19:00,53.6,48.9,29.68,NE,45,0.0,0.0,84,0.00,,---,0.00,VWS V14.01,2013-03-17 13:19:00,
2013-03-17 09:20:00,53.4,48.7,29.68,SE,135,0.5,2.5,84,0.00,,---,0.00,VWS V14.01,2013-03-17 13:20:00,
2013-03-17 09:21:00,53.4,48.7,29.68,ESE,112,0.0,2.5,84,0.00,,---,0.00,VWS V14.01,2013-03-17 13:21:00,
2013-03-17 09:22:00,53.4,48.7,29.68,East,90,0.0,1.3,84,0.00,,---,0.00,VWS V14.01,2013-03-17 13:22:00,
2013-03-17 09:23:00,53.6,48.9,29.68,NE,45,0.0,0.0,84,0.00,,---,0.00,VWS V14.01,2013-03-17 13:23:00,
2013-03-17 09:24:00,54.0,48.9,29.68,NE,45,0.0,0.0,83,0.00,,---,0.00,VWS V14.01,2013-03-17 13:24:00,
2013-03-17 09:25:00,54.0,48.9,29.71,NE,45,0.0,0.0,83,0.00,,---,0.00,VWS V14.01,2013-03-17 13:25:00,
2013-03-17 09:26:00,53.8,49.1,29.68,NE,45,0.0,0.0,84,0.00,,---,0.00,VWS V14.01,2013-03-17 13:26:00,
2013-03-17 09:27:00,54.1,49.4,29.71,NE,45,0.0,0.0,84,0.00,,---,0.00,VWS V14.01,2013-03-17 13:27:00,
2013-03-17 09:29:00,54.1,49.4,29.71,NE,45,0.0,0.0,84,0.00,,---,0.00,VWS V14.01,2013-03-17 13:29:00,
2013-03-17 09:30:00,54.5,49.8,29.71,NNW,338,0.0,0.0,84,0.00,,---,0.00,VWS V14.01,2013-03-17 13:30:00,
2013-03-17 09:31:00,54.1,49.1,29.71,NE,45,0.0,0.0,83,0.00,,---,0.00,VWS V14.01,2013-03-17 13:31:00,
2013-03-17 09:32:00,54.5,49.8,29.71,NW,315,0.0,1.3,84,0.00,,---,0.00,VWS V14.01,2013-03-17 13:32:00,
2013-03-17 09:33:00,54.1,49.4,29.71,NE,45,0.0,0.0,84,0.00,,---,0.00,VWS V14.01,2013-03-17 13:33:00,
2013-03-17 09:34:00,54.1,49.4,29.71,NE,45,0.0,0.0,84,0.00,,---,0.00,VWS V14.01,2013-03-17 13:34:00,
2013-03-17 09:35:00,54.7,50.0,29.71,NNW,338,0.0,1.3,84,0.00,,---,0.00,VWS V14.01,2013-03-17 13:35:00,
2013-03-17 09:36:00,54.5,49.8,29.71,NNW,338,0.0,1.6,84,0.00,,---,0.00,VWS V14.01,2013-03-17 13:36:00,
2013-03-17 09:37:00,54.5,49.8,29.71,NW,315,0.0,1.3,84,0.00,,---,0.00,VWS V14.01,2013-03-17 13:37:00,
2013-03-17 09:38:00,54.7,50.0,29.71,East,90,0.0,2.2,84,0.00,,---,0.00,VWS V14.01,2013-03-17 13:38:00,
2013-03-17 09:39:00,54.7,50.0,29.71,NNW,338,0.0,0.0,84,0.00,,---,0.00,VWS V14.01,2013-03-17 13:39:00,
2013-03-17 09:40:00,54.7,50.0,29.71,ENE,68,0.0,2.0,84,0.00,,---,0.00,VWS V14.01,2013-03-17 13:40:00,
2013-03-17 09:41:00,54.7,50.0,29.71,NNW,338,0.0,1.3,84,0.00,,---,0.00,VWS V14.01,2013-03-17 13:41:00,
2013-03-17 09:42:00,54.7,50.0,29.71,ENE,68,0.0,1.1,84,0.00,,---,0.00,VWS V14.01,2013-03-17 13:42:00,
2013-03-17 09:43:00,54.7,50.0,29.71,East,90,0.0,2.2,84,0.00,,---,0.00,VWS V14.01,2013-03-17 13:43:00,
2013-03-17 09:44:00,55.0,49.7,29.71,NE,45,0.0,0.0,82,0.00,,---,0.00,VWS V14.01,2013-03-17 13:44:00,
2013-03-17 09:45:00,54.7,50.0,29.71,ENE,68,0.0,2.0,84,0.00,,---,0.00,VWS V14.01,2013-03-17 13:45:00,
2013-03-17 09:46:00,54.7,50.0,29.71,ENE,68,0.0,2.0,84,0.00,,---,0.00,VWS V14.01,2013-03-17 13:46:00,
2013-03-17 09:47:00,54.7,50.0,29.71,ENE,68,0.0,1.1,84,0.00,,---,0.00,VWS V14.01,2013-03-17 13:47:00,
2013-03-17 09:48:00,55.4,50.0,29.71,NNW,338,0.2,0.0,82,0.00,,---,0.00,VWS V14.01,2013-03-17 13:48:00,
2013-03-17 09:49:00,55.0,49.7,29.71,NE,45,0.0,0.0,82,0.00,,---,0.00,VWS V14.01,2013-03-17 13:49:00,
2013-03-17 09:50:00,55.6,49.8,29.71,North,0,0.2,0.0,81,0.00,,---,0.00,VWS V14.01,2013-03-17 13:50:00,
2013-03-17 09:51:00,55.4,50.0,29.71,NNW,338,0.2,3.4,82,0.00,,---,0.00,VWS V14.01,2013-03-17 13:51:00,
2013-03-17 09:52:00,55.8,50.0,29.71,NNW,338,0.2,0.0,81,0.00,,---,0.00,VWS V14.01,2013-03-17 13:52:00,
2013-03-17 09:53:00,55.4,50.0,29.71,NNW,338,0.2,0.0,82,0.00,,---,0.00,VWS V14.01,2013-03-17 13:53:00,
2013-03-17 09:54:00,55.6,50.2,29.71,North,0,0.2,0.0,82,0.00,,---,0.00,VWS V14.01,2013-03-17 13:54:00,
2013-03-17 09:55:00,55.6,49.8,29.71,North,0,0.2,0.0,81,0.00,,---,0.00,VWS V14.01,2013-03-17 13:55:00,
2013-03-17 09:56:00,55.9,50.2,29.71,NNW,338,0.2,0.0,81,0.00,,---,0.00,VWS V14.01,2013-03-17 13:56:00,
2013-03-17 09:57:00,55.8,50.0,29.71,NNW,338,0.2,0.0,81,0.00,,---,0.00,VWS V14.01,2013-03-17 13:57:00,
2013-03-17 09:58:00,55.8,50.0,29.71,NNW,338,0.2,0.0,81,0.00,,---,0.00,VWS V14.01,2013-03-17 13:58:00,
2013-03-17 09:59:00,55.9,50.2,29.71,NNW,338,0.2,0.0,81,0.00,,---,0.00,VWS V14.01,2013-03-17 13:59:00,
2013-03-17 10:00:00,56.1,50.0,29.71,NNW,338,0.2,2.2,80,0.00,,---,0.00,VWS V14.01,2013-03-17 14:00:00,
2013-03-17 10:01:00,55.9,50.2,29.71,NNW,338,0.2,0.0,81,0.00,,---,0.00,VWS V14.01,2013-03-17 14:01:00,
2013-03-17 10:02:00,56.3,50.2,29.71,NNW,338,0.2,1.6,80,0.00,,---,0.00,VWS V14.01,2013-03-17 14:02:00,
2013-03-17 10:03:00,56.3,50.2,29.71,NNW,338,0.2,1.6,80,0.00,,---,0.00,VWS V14.01,2013-03-17 14:03:00,
2013-03-17 10:05:00,56.1,50.0,29.71,NNW,338,0.2,2.2,80,0.00,,---,0.00,VWS V14.01,2013-03-17 14:05:00,
2013-03-17 10:06:00,56.3,50.2,29.71,NNW,338,0.2,1.3,80,0.00,,---,0.00,VWS V14.01,2013-03-17 14:06:00,
2013-03-17 10:07:00,56.3,50.2,29.71,NNW,338,0.2,1.6,80,0.00,,---,0.00,VWS V14.01,2013-03-17 14:07:00,
2013-03-17 10:08:00,56.7,50.6,29.71,NE,45,0.0,2.0,80,0.00,,---,0.00,VWS V14.01,2013-03-17 14:08:00,
2013-03-17 10:09:00,56.7,50.6,29.71,NE,45,0.0,4.0,80,0.00,,---,0.00,VWS V14.01,2013-03-17 14:09:00,
2013-03-17 10:10:00,56.7,50.6,29.71,North,0,0.7,2.9,80,0.00,,---,0.00,VWS V14.01,2013-03-17 14:10:00,
2013-03-17 10:11:00,57.2,50.4,29.71,NNW,338,0.0,2.9,78,0.00,,---,0.00,VWS V14.01,2013-03-17 14:11:00,
2013-03-17 10:12:00,56.3,50.2,29.71,East,90,0.2,2.2,80,0.00,,---,0.00,VWS V14.01,2013-03-17 14:12:00,
2013-03-17 10:13:00,56.7,50.6,29.71,NE,45,0.0,2.0,80,0.00,,---,0.00,VWS V14.01,2013-03-17 14:13:00,
2013-03-17 10:14:00,57.2,50.4,29.71,NW,315,0.2,2.7,78,0.00,,---,0.00,VWS V14.01,2013-03-17 14:14:00,
2013-03-17 10:15:00,56.7,50.6,29.71,North,0,0.7,2.9,80,0.00,,---,0.00,VWS V14.01,2013-03-17 14:15:00,
2013-03-17 10:16:00,57.6,50.8,29.71,SE,135,0.5,2.5,78,0.00,,---,0.00,VWS V14.01,2013-03-17 14:16:00,
2013-03-17 10:17:00,57.7,50.6,29.71,NE,45,0.5,1.3,77,0.00,,---,0.00,VWS V14.01,2013-03-17 14:17:00,
2013-03-17 10:18:00,57.2,50.4,29.71,NNW,338,0.0,2.0,78,0.00,,---,0.00,VWS V14.01,2013-03-17 14:18:00,
2013-03-17 10:19:00,57.2,50.4,29.71,NW,315,0.2,2.7,78,0.00,,---,0.00,VWS V14.01,2013-03-17 14:19:00,
2013-03-17 10:20:00,57.9,50.8,29.71,ENE,68,0.7,3.1,77,0.00,,---,0.00,VWS V14.01,2013-03-17 14:20:00,
2013-03-17 10:21:00,57.6,50.8,29.71,SE,135,0.5,2.5,78,0.00,,---,0.00,VWS V14.01,2013-03-17 14:21:00,
2013-03-17 10:22:00,58.1,50.6,29.71,ENE,68,0.7,1.6,76,0.00,,---,0.00,VWS V14.01,2013-03-17 14:22:00,
2013-03-17 10:23:00,57.7,50.6,29.71,NNE,22,0.5,2.5,77,0.00,,---,0.00,VWS V14.01,2013-03-17 14:23:00,
2013-03-17 10:24:00,57.9,50.8,29.71,NW,315,1.1,3.1,77,0.00,,---,0.00,VWS V14.01,2013-03-17 14:24:00,
2013-03-17 10:25:00,58.3,50.4,29.71,WNW,292,0.0,3.1,75,0.00,,---,0.00,VWS V14.01,2013-03-17 14:25:00,
2013-03-17 10:26:00,57.9,50.8,29.71,North,0,0.7,2.7,77,0.00,,---,0.00,VWS V14.01,2013-03-17 14:26:00,
2013-03-17 10:27:00,58.1,50.6,29.71,ENE,68,0.7,1.6,76,0.00,,---,0.00,VWS V14.01,2013-03-17 14:27:00,
2013-03-17 10:28:00,58.5,50.2,29.71,NE,45,1.4,3.4,74,0.00,,---,0.00,VWS V14.01,2013-03-17 14:28:00,
2013-03-17 10:29:00,58.1,50.2,29.71,NNW,338,1.1,3.4,75,0.00,,---,0.00,VWS V14.01,2013-03-17 14:29:00,
2013-03-17 10:30:00,58.3,50.4,29.71,WNW,292,0.0,3.1,75,0.00,,---,0.00,VWS V14.01,2013-03-17 14:30:00,
2013-03-17 10:31:00,58.3,50.4,29.71,ENE,68,0.5,2.5,75,0.00,,---,0.00,VWS V14.01,2013-03-17 14:31:00,
2013-03-17 10:32:00,58.5,50.2,29.71,NNW,338,0.9,2.9,74,0.00,,---,0.00,VWS V14.01,2013-03-17 14:32:00,
2013-03-17 10:33:00,58.6,50.4,29.71,ENE,68,0.0,2.0,74,0.00,,---,0.00,VWS V14.01,2013-03-17 14:33:00,
2013-03-17 10:34:00,58.5,50.6,29.71,SSE,158,0.9,2.9,75,0.00,,---,0.00,VWS V14.01,2013-03-17 14:34:00,
2013-03-17 10:35:00,58.5,50.2,29.71,NW,315,0.7,2.9,74,0.00,,---,0.00,VWS V14.01,2013-03-17 14:35:00,
2013-03-17 10:36:00,58.6,50.4,29.71,NE,45,0.9,2.9,74,0.00,,---,0.00,VWS V14.01,2013-03-17 14:36:00,
2013-03-17 10:37:00,58.5,50.2,29.71,NNW,338,0.9,2.9,74,0.00,,---,0.00,VWS V14.01,2013-03-17 14:37:00,
2013-03-17 10:38:00,58.6,50.4,29.71,ENE,68,0.0,2.0,74,0.00,,---,0.00,VWS V14.01,2013-03-17 14:38:00,
2013-03-17 10:39:00,58.6,50.4,29.71,ENE,68,0.0,2.0,74,0.00,,---,0.00,VWS V14.01,2013-03-17 14:39:00,
2013-03-17 10:41:00,58.6,50.4,29.71,NE,45,0.9,2.9,74,0.00,,---,0.00,VWS V14.01,2013-03-17 14:41:00,
2013-03-17 10:42:00,59.0,50.4,29.68,NNW,338,1.1,1.1,73,0.00,,---,0.00,VWS V14.01,2013-03-17 14:42:00,
2013-03-17 10:43:00,58.8,50.6,29.71,NE,45,0.0,2.0,74,0.00,,---,0.00,VWS V14.01,2013-03-17 14:43:00,
2013-03-17 10:44:00,59.0,50.4,29.71,ENE,68,0.0,1.1,73,0.00,,---,0.00,VWS V14.01,2013-03-17 14:44:00,
2013-03-17 10:45:00,59.2,50.5,29.68,NNE,22,0.2,3.1,73,0.00,,---,0.00,VWS V14.01,2013-03-17 14:45:00,
2013-03-17 10:46:00,59.0,50.4,29.68,NNW,338,1.1,3.1,73,0.00,,---,0.00,VWS V14.01,2013-03-17 14:46:00,
2013-03-17 10:47:00,59.4,50.3,29.68,NE,45,2.9,4.9,72,0.00,,---,0.00,VWS V14.01,2013-03-17 14:47:00,
2013-03-17 10:48:00,59.4,50.3,29.68,East,90,1.8,4.9,72,0.00,,---,0.00,VWS V14.01,2013-03-17 14:48:00,
2013-03-17 10:49:00,59.2,50.5,29.68,East,90,1.1,1.6,73,0.00,,---,0.00,VWS V14.01,2013-03-17 14:49:00,
2013-03-17 10:50:00,59.4,50.3,29.68,East,90,0.7,3.6,72,0.00,,---,0.00,VWS V14.01,2013-03-17 14:50:00,
2013-03-17 10:51:00,59.4,50.3,29.68,NNE,22,0.5,3.8,72,0.00,,---,0.00,VWS V14.01,2013-03-17 14:51:00,
2013-03-17 10:52:00,59.4,50.3,29.68,NE,45,2.9,4.9,72,0.00,,---,0.00,VWS V14.01,2013-03-17 14:52:00,
2013-03-17 10:53:00,59.4,50.3,29.68,East,90,1.8,4.9,72,0.00,,---,0.00,VWS V14.01,2013-03-17 14:53:00,
2013-03-17 10:54:00,59.9,50.5,29.68,NNE,22,1.1,3.1,71,0.00,,---,0.00,VWS V14.01,2013-03-17 14:54:00,
2013-03-17 10:55:00,59.4,50.3,29.68,East,90,0.7,3.6,72,0.00,,---,0.00,VWS V14.01,2013-03-17 14:55:00,
2013-03-17 10:56:00,59.9,50.1,29.71,NNW,338,0.7,5.4,70,0.00,,---,0.00,VWS V14.01,2013-03-17 14:56:00,
2013-03-17 10:57:00,59.4,50.3,29.68,NE,45,0.0,2.0,72,0.00,,---,0.00,VWS V14.01,2013-03-17 14:57:00,
2013-03-17 10:58:00,59.7,50.3,29.68,NE,45,0.2,2.2,71,0.00,,---,0.00,VWS V14.01,2013-03-17 14:58:00,
2013-03-17 10:59:00,59.9,50.5,29.68,NNE,22,1.1,3.1,71,0.00,,---,0.00,VWS V14.01,2013-03-17 14:59:00,
2013-03-17 11:00:00,60.3,50.5,29.71,East,90,1.4,3.4,70,0.00,,---,0.00,VWS V14.01,2013-03-17 15:00:00,
2013-03-17 11:01:00,60.4,50.6,29.71,NE,45,0.2,3.4,70,0.00,,---,0.00,VWS V14.01,2013-03-17 15:01:00,
2013-03-17 11:02:00,60.1,50.3,29.71,NNW,338,2.0,4.7,70,0.00,,---,0.00,VWS V14.01,2013-03-17 15:02:00,
2013-03-17 11:03:00,60.1,50.3,29.71,NNW,338,3.6,5.6,70,0.00,,---,0.00,VWS V14.01,2013-03-17 15:03:00,
2013-03-17 11:04:00,60.6,50.8,29.71,WNW,292,0.5,1.6,70,0.00,,---,0.00,VWS V14.01,2013-03-17 15:04:00,
2013-03-17 11:05:00,60.6,50.4,29.71,NW,315,0.5,2.7,69,0.00,,---,0.00,VWS V14.01,2013-03-17 15:05:00,
2013-03-17 11:06:00,60.4,50.6,29.71,NE,45,0.2,3.4,70,0.00,,---,0.00,VWS V14.01,2013-03-17 15:06:00,
2013-03-17 11:07:00,60.8,50.6,29.71,NNW,338,1.8,4.7,69,0.00,,---,0.00,VWS V14.01,2013-03-17 15:07:00,
2013-03-17 11:08:00,60.4,50.2,29.71,WNW,292,0.5,3.1,69,0.00,,---,0.00,VWS V14.01,2013-03-17 15:08:00,
2013-03-17 11:09:00,60.6,50.8,29.71,WNW,292,0.5,1.6,70,0.00,,---,0.00,VWS V14.01,2013-03-17 15:09:00,
2013-03-17 11:10:00,60.8,50.2,29.71,SSE,158,0.0,2.7,68,0.00,,---,0.00,VWS V14.01,2013-03-17 15:10:00,
2013-03-17 11:11:00,60.6,50.4,29.71,NW,315,0.0,2.9,69,0.00,,---,0.00,VWS V14.01,2013-03-17 15:11:00,
2013-03-17 11:12:00,60.8,50.6,29.71,NNW,338,1.8,4.7,69,0.00,,---,0.00,VWS V14.01,2013-03-17 15:12:00,
2013-03-17 11:13:00,60.8,50.2,29.71,ESE,112,0.9,5.4,68,0.00,,---,0.00,VWS V14.01,2013-03-17 15:13:00,
2013-03-17 11:14:00,60.8,50.2,29.71,NNW,338,0.0,2.2,68,0.00,,---,0.00,VWS V14.01,2013-03-17 15:14:00,
2013-03-17 11:15:00,61.0,50.4,29.71,NNE,22,2.0,5.4,68,0.00,,---,0.00,VWS V14.01,2013-03-17 15:15:00,
2013-03-17 11:16:00,60.8,50.2,29.71,North,0,1.1,3.1,68,0.00,,---,0.00,VWS V14.01,2013-03-17 15:16:00,
2013-03-17 11:17:00,60.8,50.2,29.71,East,90,0.7,3.1,68,0.00,,---,0.00,VWS V14.01,2013-03-17 15:17:00,
2013-03-17 11:18:00,60.8,50.2,29.71,NNW,338,0.2,3.6,68,0.00,,---,0.00,VWS V14.01,2013-03-17 15:18:00,
2013-03-17 11:19:00,60.8,50.2,29.71,NNW,338,0.0,2.2,68,0.00,,---,0.00,VWS V14.01,2013-03-17 15:19:00,
2013-03-17 11:20:00,61.0,50.4,29.71,NNE,22,2.0,5.4,68,0.00,,---,0.00,VWS V14.01,2013-03-17 15:20:00,
2013-03-17 11:21:00,61.2,50.1,29.71,NNW,338,1.8,6.9,67,0.00,,---,0.00,VWS V14.01,2013-03-17 15:21:00,
2013-03-17 11:22:00,61.0,50.0,29.71,East,90,1.1,3.1,67,0.00,,---,0.00,VWS V14.01,2013-03-17 15:22:00,
2013-03-17 11:23:00,61.2,50.1,29.71,North,0,1.1,3.1,67,0.00,,---,0.00,VWS V14.01,2013-03-17 15:23:00,
2013-03-17 11:24:00,61.3,50.3,29.71,SE,135,1.1,3.1,67,0.00,,---,0.00,VWS V14.01,2013-03-17 15:24:00,
2013-03-17 11:25:00,61.2,50.1,29.71,NNE,22,1.8,3.8,67,0.00,,---,0.00,VWS V14.01,2013-03-17 15:25:00,
2013-03-17 11:26:00,61.2,50.1,29.71,NNW,338,1.8,6.9,67,0.00,,---,0.00,VWS V14.01,2013-03-17 15:26:00,
2013-03-17 11:27:00,61.2,50.1,29.71,NE,45,2.0,4.0,67,0.00,,---,0.00,VWS V14.01,2013-03-17 15:27:00,
2013-03-17 11:28:00,61.5,50.1,29.71,ESE,112,0.5,3.6,66,0.00,,---,0.00,VWS V14.01,2013-03-17 15:28:00,
2013-03-17 11:29:00,61.3,50.3,29.71,SE,135,1.1,3.1,67,0.00,,---,0.00,VWS V14.01,2013-03-17 15:29:00,
2013-03-17 11:30:00,61.7,50.2,29.71,East,90,0.2,4.7,66,0.00,,---,0.00,VWS V14.01,2013-03-17 15:30:00,
2013-03-17 11:31:00,61.5,50.5,29.71,WNW,292,0.5,2.7,67,0.00,,---,0.00,VWS V14.01,2013-03-17 15:31:00,
2013-03-17 11:32:00,61.9,50.8,29.71,SSE,158,0.0,2.2,67,0.00,,---,0.00,VWS V14.01,2013-03-17 15:32:00,
2013-03-17 11:33:00,62.1,51.0,29.71,NW,315,0.0,2.5,67,0.00,,---,0.00,VWS V14.01,2013-03-17 15:33:00,
2013-03-17 11:34:00,61.7,50.7,29.71,North,0,2.0,4.5,67,0.00,,---,0.00,VWS V14.01,2013-03-17 15:34:00,
2013-03-17 11:35:00,61.7,50.2,29.71,East,90,0.2,4.7,66,0.00,,---,0.00,VWS V14.01,2013-03-17 15:35:00,
2013-03-17 11:36:00,61.9,50.4,29.71,NNW,338,0.2,2.9,66,0.00,,---,0.00,VWS V14.01,2013-03-17 15:36:00,
2013-03-17 11:37:00,61.9,50.8,29.71,SSE,158,0.0,2.2,67,0.00,,---,0.00,VWS V14.01,2013-03-17 15:37:00,
2013-03-17 11:38:00,62.6,50.3,29.71,ENE,68,0.7,4.0,64,0.00,,---,0.00,VWS V14.01,2013-03-17 15:38:00,
2013-03-17 11:39:00,62.2,50.8,29.71,NE,45,0.9,3.6,66,0.00,,---,0.00,VWS V14.01,2013-03-17 15:39:00,
2013-03-17 11:40:00,62.8,50.4,29.71,NNE,22,1.6,3.6,64,0.00,,---,0.00,VWS V14.01,2013-03-17 15:40:00,
2013-03-17 11:41:00,62.4,50.9,29.71,NNE,22,0.5,3.4,66,0.00,,---,0.00,VWS V14.01,2013-03-17 15:41:00,
2013-03-17 11:42:00,62.6,50.7,29.71,East,90,0.5,3.6,65,0.00,,---,0.00,VWS V14.01,2013-03-17 15:42:00,
2013-03-17 11:43:00,62.6,50.3,29.71,ENE,68,0.7,4.0,64,0.00,,---,0.00,VWS V14.01,2013-03-17 15:43:00,
2013-03-17 11:44:00,62.8,50.4,29.71,ENE,68,1.6,3.6,64,0.00,,---,0.00,VWS V14.01,2013-03-17 15:44:00,
2013-03-17 11:45:00,63.1,50.8,29.71,SW,225,1.1,3.1,64,0.00,,---,0.00,VWS V14.01,2013-03-17 15:45:00,
2013-03-17 11:46:00,63.0,50.2,29.71,NNE,22,1.8,3.8,63,0.00,,---,0.00,VWS V14.01,2013-03-17 15:46:00,
2013-03-17 11:47:00,63.0,50.2,29.71,ENE,68,0.2,3.8,63,0.00,,---,0.00,VWS V14.01,2013-03-17 15:47:00,
2013-03-17 11:48:00,63.0,50.6,29.71,SE,135,0.5,2.5,64,0.00,,---,0.00,VWS V14.01,2013-03-17 15:48:00,
2013-03-17 11:49:00,63.3,50.5,29.71,ENE,68,0.2,2.2,63,0.00,,---,0.00,VWS V14.01,2013-03-17 15:49:00,
2013-03-17 11:50:00,63.1,50.8,29.71,SW,225,1.1,3.1,64,0.00,,---,0.00,VWS V14.01,2013-03-17 15:50:00,
2013-03-17 11:51:00,63.7,50.9,29.71,NNE,22,0.0,1.6,63,0.00,,---,0.00,VWS V14.01,2013-03-17 15:51:00,
2013-03-17 11:52:00,63.3,50.5,29.71,SE,135,0.2,3.4,63,0.00,,---,0.00,VWS V14.01,2013-03-17 15:52:00,
2013-03-17 11:53:00,63.3,50.5,29.71,South,180,0.2,2.5,63,0.00,,---,0.00,VWS V14.01,2013-03-17 15:53:00,
2013-03-17 11:54:00,63.9,50.2,29.71,NW,315,0.2,3.8,61,0.00,,---,0.00,VWS V14.01,2013-03-17 15:54:00,
2013-03-17 11:55:00,63.5,50.7,29.71,WNW,292,0.0,2.2,63,0.00,,---,0.00,VWS V14.01,2013-03-17 15:55:00,
2013-03-17 11:56:00,63.7,50.9,29.71,NNE,22,0.0,1.6,63,0.00,,---,0.00,VWS V14.01,2013-03-17 15:56:00,
2013-03-17 11:57:00,64.0,51.2,29.68,NNW,338,0.5,2.5,63,0.00,,---,0.00,VWS V14.01,2013-03-17 15:57:00,
2013-03-17 11:58:00,63.7,50.9,29.71,NW,315,1.8,3.8,63,0.00,,---,0.00,VWS V14.01,2013-03-17 15:58:00,
2013-03-17 11:59:00,64.2,50.5,29.68,East,90,1.1,3.1,61,0.00,,---,0.00,VWS V14.01,2013-03-17 15:59:00,
2013-03-17 12:00:00,63.9,50.2,29.68,NNW,338,1.1,3.4,61,0.00,,---,0.00,VWS V14.01,2013-03-17 16:00:00,
2013-03-17 12:01:00,64.0,50.8,29.68,ENE,68,0.5,2.5,62,0.00,,---,0.00,VWS V14.01,2013-03-17 16:01:00,
2013-03-17 12:02:00,64.0,51.2,29.68,NNW,338,0.5,2.5,63,0.00,,---,0.00,VWS V14.01,2013-03-17 16:02:00,
2013-03-17 12:03:00,64.2,50.5,29.68,NNE,22,1.1,3.8,61,0.00,,---,0.00,VWS V14.01,2013-03-17 16:03:00,
2013-03-17 12:04:00,64.2,50.5,29.68,NE,45,0.0,4.3,61,0.00,,---,0.00,VWS V14.01,2013-03-17 16:04:00,
2013-03-17 12:05:00,64.2,50.5,29.68,NW,315,1.1,3.6,61,0.00,,---,0.00,VWS V14.01,2013-03-17 16:05:00,
2013-03-17 12:06:00,64.2,49.6,29.68,NNW,338,0.5,4.0,59,0.00,,---,0.00,VWS V14.01,2013-03-17 16:06:00,
2013-03-17 12:07:00,64.6,50.8,29.68,NW,315,0.0,1.3,61,0.00,,---,0.00,VWS V14.01,2013-03-17 16:07:00,
2013-03-17 12:08:00,64.2,50.1,29.68,NE,45,2.3,4.3,60,0.00,,---,0.00,VWS V14.01,2013-03-17 16:08:00,
2013-03-17 12:09:00,64.2,50.5,29.68,NE,45,0.0,4.3,61,0.00,,---,0.00,VWS V14.01,2013-03-17 16:09:00,
2013-03-17 12:10:00,64.8,49.2,29.71,NW,315,3.6,5.6,57,0.00,,---,0.00,VWS V14.01,2013-03-17 16:10:00,
2013-03-17 12:11:00,64.4,50.7,29.68,SSE,158,0.0,4.7,61,0.00,,---,0.00,VWS V14.01,2013-03-17 16:11:00,
2013-03-17 12:12:00,64.8,49.7,29.71,NW,315,0.7,4.7,58,0.00,,---,0.00,VWS V14.01,2013-03-17 16:12:00,
2013-03-17 12:13:00,64.8,49.2,29.71,NNW,338,0.7,3.4,57,0.00,,---,0.00,VWS V14.01,2013-03-17 16:13:00,
2013-03-17 12:14:00,64.8,50.1,29.68,ENE,68,0.7,6.0,59,0.00,,---,0.00,VWS V14.01,2013-03-17 16:14:00,
2013-03-17 12:15:00,64.9,49.8,29.71,NE,45,0.9,3.8,58,0.00,,---,0.00,VWS V14.01,2013-03-17 16:15:00,
2013-03-17 12:16:00,64.8,49.7,29.71,NNW,338,0.0,5.6,58,0.00,,---,0.00,VWS V14.01,2013-03-17 16:16:00,
2013-03-17 12:17:00,64.8,49.7,29.71,NW,315,0.7,4.7,58,0.00,,---,0.00,VWS V14.01,2013-03-17 16:17:00,
2013-03-17 12:18:00,64.9,48.4,29.71,North,0,2.9,4.9,55,0.00,,---,0.00,VWS V14.01,2013-03-17 16:18:00,
2013-03-17 12:19:00,64.9,49.4,29.71,East,90,1.8,5.8,57,0.00,,---,0.00,VWS V14.01,2013-03-17 16:19:00,
2013-03-17 12:20:00,64.8,48.7,29.71,ESE,112,1.8,4.0,56,0.00,,---,0.00,VWS V14.01,2013-03-17 16:20:00,
2013-03-17 12:21:00,64.9,49.4,29.71,ESE,112,1.4,3.4,57,0.00,,---,0.00,VWS V14.01,2013-03-17 16:21:00,
2013-03-17 12:22:00,64.6,48.1,29.71,NNE,22,0.2,9.8,55,0.00,,---,0.00,VWS V14.01,2013-03-17 16:22:00,
2013-03-17 12:23:00,64.9,48.4,29.71,North,0,2.9,4.9,55,0.00,,---,0.00,VWS V14.01,2013-03-17 16:23:00,
2013-03-17 12:24:00,64.8,49.2,29.71,SE,135,0.2,2.9,57,0.00,,---,0.00,VWS V14.01,2013-03-17 16:24:00,
2013-03-17 12:25:00,64.8,48.7,29.68,North,0,1.6,3.6,56,0.00,,---,0.00,VWS V14.01,2013-03-17 16:25:00,
2013-03-17 12:26:00,64.8,48.2,29.71,North,0,7.8,9.8,55,0.00,,---,0.00,VWS V14.01,2013-03-17 16:26:00,
2013-03-17 12:27:00,64.9,49.4,29.68,SSE,158,0.7,3.6,57,0.00,,---,0.00,VWS V14.01,2013-03-17 16:27:00,
2013-03-17 12:28:00,64.8,48.7,29.71,ENE,68,0.0,3.4,56,0.00,,---,0.00,VWS V14.01,2013-03-17 16:28:00,
2013-03-17 12:29:00,64.8,49.2,29.71,SE,135,0.2,2.9,57,0.00,,---,0.00,VWS V14.01,2013-03-17 16:29:00,
2013-03-17 12:30:00,64.8,48.7,29.68,North,0,1.6,3.6,56,0.00,,---,0.00,VWS V14.01,2013-03-17 16:30:00,
2013-03-17 12:31:00,64.8,49.2,29.68,East,90,0.9,3.6,57,0.00,,---,0.00,VWS V14.01,2013-03-17 16:31:00,
2013-03-17 12:32:00,64.9,48.4,29.68,East,90,0.0,6.0,55,0.00,,---,0.00,VWS V14.01,2013-03-17 16:32:00,
2013-03-17 12:33:00,64.9,48.4,29.68,NE,45,2.0,4.0,55,0.00,,---,0.00,VWS V14.01,2013-03-17 16:33:00,
2013-03-17 12:34:00,64.8,47.8,29.68,North,0,1.8,4.9,54,0.00,,---,0.00,VWS V14.01,2013-03-17 16:34:00,
2013-03-17 12:35:00,64.9,48.4,29.68,NNE,22,0.7,3.4,55,0.00,,---,0.00,VWS V14.01,2013-03-17 16:35:00,
2013-03-17 12:36:00,64.6,48.1,29.68,NNW,338,1.1,6.3,55,0.00,,---,0.00,VWS V14.01,2013-03-17 16:36:00,
2013-03-17 12:37:00,64.9,48.4,29.68,East,90,0.0,6.0,55,0.00,,---,0.00,VWS V14.01,2013-03-17 16:37:00,
2013-03-17 12:38:00,64.8,48.2,29.68,NE,45,1.1,4.9,55,0.00,,---,0.00,VWS V14.01,2013-03-17 16:38:00,
2013-03-17 12:39:00,64.8,47.8,29.68,North,0,1.8,4.9,54,0.00,,---,0.00,VWS V14.01,2013-03-17 16:39:00,
2013-03-17 12:40:00,64.4,48.4,29.68,NW,315,0.5,3.4,56,0.00,,---,0.00,VWS V14.01,2013-03-17 16:40:00,
2013-03-17 12:41:00,64.6,48.5,29.68,East,90,0.5,2.9,56,0.00,,---,0.00,VWS V14.01,2013-03-17 16:41:00,
2013-03-17 12:42:00,64.6,48.1,29.68,NNE,22,1.6,6.5,55,0.00,,---,0.00,VWS V14.01,2013-03-17 16:42:00,
2013-03-17 12:43:00,64.6,48.5,29.74,NE,45,2.3,5.4,56,0.00,,---,0.00,VWS V14.01,2013-03-17 16:43:00,
2013-03-17 12:44:00,64.4,48.4,29.68,North,0,0.2,3.1,56,0.00,,---,0.00,VWS V14.01,2013-03-17 16:44:00,
2013-03-17 12:45:00,64.4,48.4,29.68,NW,315,0.5,3.4,56,0.00,,---,0.00,VWS V14.01,2013-03-17 16:45:00,
2013-03-17 12:46:00,64.6,48.5,29.68,East,90,0.5,2.9,56,0.00,,---,0.00,VWS V14.01,2013-03-17 16:46:00,
2013-03-17 12:47:00,64.8,48.2,29.74,North,0,3.4,5.4,55,0.00,,---,0.00,VWS V14.01,2013-03-17 16:47:00,
2013-03-17 12:48:00,64.8,48.2,29.74,ENE,68,3.8,6.5,55,0.00,,---,0.00,VWS V14.01,2013-03-17 16:48:00,
2013-03-17 12:49:00,64.8,48.7,29.74,NNW,338,0.2,6.5,56,0.00,,---,0.00,VWS V14.01,2013-03-17 16:49:00,
2013-03-17 12:50:00,64.8,48.7,29.74,NNW,338,4.3,6.3,56,0.00,,---,0.00,VWS V14.01,2013-03-17 16:50:00,
2013-03-17 12:51:00,64.8,48.7,29.74,NNW,338,1.8,6.3,56,0.00,,---,0.00,VWS V14.01,2013-03-17 16:51:00,
2013-03-17 12:52:00,64.9,49.4,29.74,ENE,68,2.7,4.7,57,0.00,,---,0.00,VWS V14.01,2013-03-17 16:52:00,
2013-03-17 12:53:00,64.9,48.4,29.74,NE,45,1.6,4.9,55,0.00,,---,0.00,VWS V14.01,2013-03-17 16:53:00,
2013-03-17 12:54:00,64.8,48.7,29.74,NNW,338,0.2,6.5,56,0.00,,---,0.00,VWS V14.01,2013-03-17 16:54:00,
2013-03-17 12:55:00,64.9,49.4,29.74,ENE,68,0.5,2.9,57,0.00,,---,0.00,VWS V14.01,2013-03-17 16:55:00,
2013-03-17 12:56:00,65.1,48.6,29.71,West,270,0.5,3.8,55,0.00,,---,0.00,VWS V14.01,2013-03-17 16:56:00,
2013-03-17 12:57:00,64.9,49.4,29.74,ENE,68,2.7,4.7,57,0.00,,---,0.00,VWS V14.01,2013-03-17 16:57:00,
2013-03-17 12:58:00,64.9,48.4,29.74,NE,45,1.6,4.9,55,0.00,,---,0.00,VWS V14.01,2013-03-17 16:58:00,
2013-03-17 12:59:00,65.1,48.1,29.71,North,0,3.4,5.4,54,0.00,,---,0.00,VWS V14.01,2013-03-17 16:59:00,
2013-03-17 13:00:00,65.1,48.6,29.71,NNW,338,5.8,7.8,55,0.00,,---,0.00,VWS V14.01,2013-03-17 17:00:00,
2013-03-17 13:01:00,65.1,48.6,29.71,West,270,0.5,3.8,55,0.00,,---,0.00,VWS V14.01,2013-03-17 17:01:00,
2013-03-17 13:02:00,64.9,47.9,29.71,WNW,292,0.9,6.0,54,0.00,,---,0.00,VWS V14.01,2013-03-17 17:02:00,
2013-03-17 13:03:00,65.1,49.0,29.71,NNE,22,2.0,4.3,56,0.00,,---,0.00,VWS V14.01,2013-03-17 17:03:00,
2013-03-17 13:04:00,65.1,48.1,29.71,North,0,3.4,5.4,54,0.00,,---,0.00,VWS V14.01,2013-03-17 17:04:00,
2013-03-17 13:05:00,65.1,48.6,29.71,NNW,338,5.8,7.8,55,0.00,,---,0.00,VWS V14.01,2013-03-17 17:05:00,
2013-03-17 13:06:00,64.9,47.9,29.71,ESE,112,2.0,7.8,54,0.00,,---,0.00,VWS V14.01,2013-03-17 17:06:00,
2013-03-17 13:07:00,64.6,48.1,29.71,NE,45,1.1,5.4,55,0.00,,---,0.00,VWS V14.01,2013-03-17 17:07:00,
2013-03-17 13:08:00,64.9,48.4,29.71,NNW,338,3.8,5.8,55,0.00,,---,0.00,VWS V14.01,2013-03-17 17:08:00,
2013-03-17 13:09:00,64.9,48.4,29.71,WNW,292,0.9,5.8,55,0.00,,---,0.00,VWS V14.01,2013-03-17 17:09:00,
2013-03-17 13:10:00,64.6,48.1,29.68,West,270,1.8,7.6,55,0.00,,---,0.00,VWS V14.01,2013-03-17 17:10:00,
2013-03-17 13:11:00,64.6,48.1,29.68,NNW,338,3.4,5.6,55,0.00,,---,0.00,VWS V14.01,2013-03-17 17:11:00,
2013-03-17 13:12:00,64.6,48.1,29.71,NE,45,1.1,5.4,55,0.00,,---,0.00,VWS V14.01,2013-03-17 17:12:00,
2013-03-17 13:13:00,64.8,48.7,29.68,NE,45,1.4,3.4,56,0.00,,---,0.00,VWS V14.01,2013-03-17 17:13:00,
2013-03-17 13:14:00,64.8,48.2,29.71,East,90,5.6,7.6,55,0.00,,---,0.00,VWS V14.01,2013-03-17 17:14:00,
2013-03-17 13:15:00,64.6,48.1,29.68,West,270,1.8,7.6,55,0.00,,---,0.00,VWS V14.01,2013-03-17 17:15:00,
2013-03-17 13:16:00,64.6,48.1,29.68,NNW,338,3.4,5.6,55,0.00,,---,0.00,VWS V14.01,2013-03-17 17:16:00,
2013-03-17 13:17:00,64.9,48.9,29.68,East,90,0.5,4.3,56,0.00,,---,0.00,VWS V14.01,2013-03-17 17:17:00,
2013-03-17 13:18:00,64.8,47.8,29.68,NW,315,2.0,4.0,54,0.00,,---,0.00,VWS V14.01,2013-03-17 17:18:00,
2013-03-17 13:19:00,64.8,47.8,29.68,NW,315,2.9,4.9,54,0.00,,---,0.00,VWS V14.01,2013-03-17 17:19:00,
2013-03-17 13:20:00,64.8,47.8,29.68,East,90,0.9,4.9,54,0.00,,---,0.00,VWS V14.01,2013-03-17 17:20:00,
2013-03-17 13:21:00,64.8,48.7,29.68,NW,315,1.4,3.4,56,0.00,,---,0.00,VWS V14.01,2013-03-17 17:21:00,
2013-03-17 13:22:00,64.9,48.4,29.68,WSW,248,1.6,3.6,55,0.00,,---,0.00,VWS V14.01,2013-03-17 17:22:00,
2013-03-17 13:23:00,64.8,47.8,29.68,NW,315,2.0,4.0,54,0.00,,---,0.00,VWS V14.01,2013-03-17 17:23:00,
2013-03-17 13:24:00,64.9,48.4,29.68,NW,315,2.3,4.3,55,0.00,,---,0.00,VWS V14.01,2013-03-17 17:24:00,
2013-03-17 13:25:00,64.9,48.4,29.71,NNW,338,0.2,4.3,55,0.00,,---,0.00,VWS V14.01,2013-03-17 17:25:00,
2013-03-17 13:26:00,64.8,48.7,29.71,NNW,338,4.0,6.0,56,0.00,,---,0.00,VWS V14.01,2013-03-17 17:26:00,
2013-03-17 13:27:00,64.9,48.4,29.68,WSW,248,1.6,3.6,55,0.00,,---,0.00,VWS V14.01,2013-03-17 17:27:00,
2013-03-17 13:28:00,64.4,47.4,29.71,ENE,68,2.9,6.3,54,0.00,,---,0.00,VWS V14.01,2013-03-17 17:28:00,
2013-03-17 13:29:00,64.9,48.4,29.68,NW,315,2.3,4.3,55,0.00,,---,0.00,VWS V14.01,2013-03-17 17:29:00,
2013-03-17 13:30:00,64.4,47.9,29.71,NNW,338,0.0,3.8,55,0.00,,---,0.00,VWS V14.01,2013-03-17 17:30:00,
2013-03-17 13:31:00,64.8,48.7,29.71,NNW,338,4.0,6.0,56,0.00,,---,0.00,VWS V14.01,2013-03-17 17:31:00,
2013-03-17 13:32:00,64.6,47.6,29.71,North,0,2.9,6.0,54,0.00,,---,0.00,VWS V14.01,2013-03-17 17:32:00,
2013-03-17 13:33:00,64.4,47.4,29.71,ENE,68,2.9,6.3,54,0.00,,---,0.00,VWS V14.01,2013-03-17 17:33:00,
2013-03-17 13:34:00,64.0,48.0,29.71,NE,45,1.1,3.1,56,0.00,,---,0.00,VWS V14.01,2013-03-17 17:34:00,
2013-03-17 13:35:00,64.0,48.0,29.71,ENE,68,1.6,4.3,56,0.00,,---,0.00,VWS V14.01,2013-03-17 17:35:00,
2013-03-17 13:36:00,64.4,47.9,29.71,ENE,68,2.3,8.5,55,0.00,,---,0.00,VWS V14.01,2013-03-17 17:36:00,
2013-03-17 13:37:00,64.2,47.7,29.71,NNE,22,1.1,4.3,55,0.00,,---,0.00,VWS V14.01,2013-03-17 17:37:00,
2013-03-17 13:38:00,64.0,47.6,29.71,NE,45,1.1,12.1,55,0.00,,---,0.00,VWS V14.01,2013-03-17 17:38:00,
2013-03-17 13:39:00,64.2,48.2,29.71,East,90,1.4,3.4,56,0.00,,---,0.00,VWS V14.01,2013-03-17 17:39:00,
2013-03-17 13:40:00,64.0,48.0,29.71,ENE,68,1.6,4.3,56,0.00,,---,0.00,VWS V14.01,2013-03-17 17:40:00,
2013-03-17 13:41:00,64.0,48.0,29.71,NW,315,1.8,4.7,56,0.00,,---,0.00,VWS V14.01,2013-03-17 17:41:00,
2013-03-17 13:42:00,64.2,48.2,29.68,NE,45,1.6,3.6,56,0.00,,---,0.00,VWS V14.01,2013-03-17 17:42:00,
2013-03-17 13:43:00,64.2,48.7,29.68,ENE,68,0.5,3.6,57,0.00,,---,0.00,VWS V14.01,2013-03-17 17:43:00,
2013-03-17 13:44:00,64.2,48.2,29.71,East,90,1.4,3.4,56,0.00,,---,0.00,VWS V14.01,2013-03-17 17:44:00,
2013-03-17 13:45:00,64.2,47.7,29.68,NNW,338,1.4,3.4,55,0.00,,---,0.00,VWS V14.01,2013-03-17 17:45:00,
2013-03-17 13:46:00,64.2,48.2,29.68,NE,45,0.7,3.4,56,0.00,,---,0.00,VWS V14.01,2013-03-17 17:46:00,
2013-03-17 13:47:00,64.4,48.4,29.68,NW,315,1.6,4.3,56,0.00,,---,0.00,VWS V14.01,2013-03-17 17:47:00,
2013-03-17 13:48:00,64.4,47.9,29.68,NW,315,0.2,5.4,55,0.00,,---,0.00,VWS V14.01,2013-03-17 17:48:00,
2013-03-17 13:49:00,64.2,47.7,29.68,NE,45,1.4,4.0,55,0.00,,---,0.00,VWS V14.01,2013-03-17 17:49:00,
2013-03-17 13:50:00,64.4,48.4,29.68,ENE,68,0.0,3.1,56,0.00,,---,0.00,VWS V14.01,2013-03-17 17:50:00,
2013-03-17 13:51:00,64.4,48.4,29.68,East,90,0.5,2.5,56,0.00,,---,0.00,VWS V14.01,2013-03-17 17:51:00,
2013-03-17 13:52:00,64.4,48.4,29.68,NW,315,1.6,4.3,56,0.00,,---,0.00,VWS V14.01,2013-03-17 17:52:00,
2013-03-17 13:53:00,63.7,47.2,29.68,NNE,22,1.1,3.1,55,0.00,,---,0.00,VWS V14.01,2013-03-17 17:53:00,
2013-03-17 13:54:00,63.5,47.5,29.68,North,0,2.0,4.3,56,0.00,,---,0.00,VWS V14.01,2013-03-17 17:54:00,
2013-03-17 13:55:00,63.5,47.5,29.68,ESE,112,2.0,4.0,56,0.00,,---,0.00,VWS V14.01,2013-03-17 17:55:00,
2013-03-17 13:56:00,64.0,47.6,29.68,East,90,2.0,4.0,55,0.00,,---,0.00,VWS V14.01,2013-03-17 17:56:00,
2013-03-17 13:57:00,63.9,47.4,29.68,NE,45,0.5,4.3,55,0.00,,---,0.00,VWS V14.01,2013-03-17 17:57:00,
2013-03-17 13:58:00,63.7,47.2,29.68,NNE,22,1.1,3.1,55,0.00,,---,0.00,VWS V14.01,2013-03-17 17:58:00,
2013-03-17 13:59:00,63.5,48.0,29.68,NNW,338,1.8,4.3,57,0.00,,---,0.00,VWS V14.01,2013-03-17 17:59:00,
2013-03-17 14:00:00,63.5,47.5,29.68,ESE,112,2.0,4.0,56,0.00,,---,0.00,VWS V14.01,2013-03-17 18:00:00,
2013-03-17 14:01:00,63.5,48.0,29.68,WNW,292,1.6,5.4,57,0.00,,---,0.00,VWS V14.01,2013-03-17 18:01:00,
2013-03-17 14:02:00,63.5,48.0,29.68,WNW,292,0.5,3.6,57,0.00,,---,0.00,VWS V14.01,2013-03-17 18:02:00,
2013-03-17 14:03:00,63.5,47.5,29.68,NNE,22,1.6,6.9,56,0.00,,---,0.00,VWS V14.01,2013-03-17 18:03:00,
2013-03-17 14:04:00,63.5,48.0,29.68,NNW,338,1.8,4.3,57,0.00,,---,0.00,VWS V14.01,2013-03-17 18:04:00,
2013-03-17 14:05:00,63.5,48.0,29.68,ENE,68,0.0,3.8,57,0.00,,---,0.00,VWS V14.01,2013-03-17 18:05:00,
2013-03-17 14:06:00,63.5,48.0,29.68,WNW,292,1.6,5.4,57,0.00,,---,0.00,VWS V14.01,2013-03-17 18:06:00,
2013-03-17 14:07:00,63.0,47.5,29.68,NNE,22,0.0,3.6,57,0.00,,---,0.00,VWS V14.01,2013-03-17 18:07:00,
2013-03-17 14:08:00,63.0,47.5,29.68,NNE,22,0.7,2.9,57,0.00,,---,0.00,VWS V14.01,2013-03-17 18:08:00,
2013-03-17 14:09:00,63.3,47.8,29.68,NNE,22,1.4,3.6,57,0.00,,---,0.00,VWS V14.01,2013-03-17 18:09:00,
2013-03-17 14:10:00,62.8,47.8,29.68,ESE,112,0.9,2.9,58,0.00,,---,0.00,VWS V14.01,2013-03-17 18:10:00,
2013-03-17 14:11:00,63.1,47.7,29.68,SE,135,0.7,3.4,57,0.00,,---,0.00,VWS V14.01,2013-03-17 18:11:00,
2013-03-17 14:12:00,62.6,47.6,29.68,WNW,292,0.7,5.6,58,0.00,,---,0.00,VWS V14.01,2013-03-17 18:12:00,
2013-03-17 14:13:00,62.6,47.6,29.68,NNW,338,1.6,3.6,58,0.00,,---,0.00,VWS V14.01,2013-03-17 18:13:00,
2013-03-17 14:14:00,62.6,47.6,29.68,WNW,292,0.0,3.6,58,0.00,,---,0.00,VWS V14.01,2013-03-17 18:14:00,
2013-03-17 14:15:00,62.8,47.8,29.68,ESE,112,0.9,2.9,58,0.00,,---,0.00,VWS V14.01,2013-03-17 18:15:00,
2013-03-17 14:16:00,62.6,47.2,29.68,NNW,338,3.6,5.6,57,0.00,,---,0.00,VWS V14.01,2013-03-17 18:16:00,
2013-03-17 14:17:00,62.4,47.5,29.68,NNW,338,0.7,3.8,58,0.00,,---,0.00,VWS V14.01,2013-03-17 18:17:00,
2013-03-17 14:18:00,62.4,47.9,29.68,NNE,22,0.7,2.7,59,0.00,,---,0.00,VWS V14.01,2013-03-17 18:18:00,
2013-03-17 14:19:00,62.6,47.6,29.68,WNW,292,0.0,3.6,58,0.00,,---,0.00,VWS V14.01,2013-03-17 18:19:00,
2013-03-17 14:20:00,62.4,47.5,29.68,SE,135,0.0,2.7,58,0.00,,---,0.00,VWS V14.01,2013-03-17 18:20:00,
2013-03-17 14:21:00,62.4,47.5,29.68,NNW,338,1.8,3.8,58,0.00,,---,0.00,VWS V14.01,2013-03-17 18:21:00,
2013-03-17 14:22:00,62.2,47.3,29.68,ESE,112,0.0,4.0,58,0.00,,---,0.00,VWS V14.01,2013-03-17 18:22:00,
2013-03-17 14:23:00,62.2,47.3,29.68,South,180,3.4,5.4,58,0.00,,---,0.00,VWS V14.01,2013-03-17 18:23:00,
2013-03-17 14:24:00,62.4,47.9,29.68,ESE,112,1.1,3.1,59,0.00,,---,0.00,VWS V14.01,2013-03-17 18:24:00,
2013-03-17 14:25:00,62.4,47.9,29.68,SE,135,0.5,3.1,59,0.00,,---,0.00,VWS V14.01,2013-03-17 18:25:00,
2013-03-17 14:26:00,62.2,47.3,29.68,WSW,248,0.0,2.9,58,0.00,,---,0.00,VWS V14.01,2013-03-17 18:26:00,
2013-03-17 14:27:00,62.1,47.6,29.68,NW,315,0.2,2.2,59,0.00,,---,0.00,VWS V14.01,2013-03-17 18:27:00,
2013-03-17 14:28:00,62.1,47.6,29.68,NNW,338,1.8,3.8,59,0.00,,---,0.00,VWS V14.01,2013-03-17 18:28:00,
2013-03-17 14:29:00,62.1,47.1,29.68,North,0,0.9,5.4,58,0.00,,---,0.00,VWS V14.01,2013-03-17 18:29:00,
2013-03-17 14:30:00,62.1,47.6,29.68,NE,45,2.9,4.9,59,0.00,,---,0.00,VWS V14.01,2013-03-17 18:30:00,
2013-03-17 14:31:00,62.1,47.6,29.68,SSE,158,0.9,4.9,59,0.00,,---,0.00,VWS V14.01,2013-03-17 18:31:00,
2013-03-17 14:32:00,62.1,47.6,29.68,NW,315,0.2,2.2,59,0.00,,---,0.00,VWS V14.01,2013-03-17 18:32:00,
2013-03-17 14:33:00,62.1,48.0,29.68,SE,135,1.1,3.6,60,0.00,,---,0.00,VWS V14.01,2013-03-17 18:33:00,
2013-03-17 14:34:00,62.1,47.6,29.68,West,270,1.1,4.3,59,0.00,,---,0.00,VWS V14.01,2013-03-17 18:34:00,
2013-03-17 14:35:00,62.1,48.0,29.68,NNW,338,1.1,3.1,60,0.00,,---,0.00,VWS V14.01,2013-03-17 18:35:00,
2013-03-17 14:36:00,61.7,46.8,29.68,WNW,292,1.1,4.3,58,0.00,,---,0.00,VWS V14.01,2013-03-17 18:36:00,
2013-03-17 14:37:00,62.1,47.6,29.68,East,90,1.6,3.6,59,0.00,,---,0.00,VWS V14.01,2013-03-17 18:37:00,
2013-03-17 14:38:00,61.5,46.6,29.68,North,0,1.8,6.3,58,0.00,,---,0.00,VWS V14.01,2013-03-17 18:38:00,
2013-03-17 14:39:00,61.3,46.9,29.68,NNE,22,5.4,7.4,59,0.00,,---,0.00,VWS V14.01,2013-03-17 18:39:00,
2013-03-17 14:40:00,62.1,48.0,29.68,NNW,338,1.1,3.1,60,0.00,,---,0.00,VWS V14.01,2013-03-17 18:40:00,
2013-03-17 14:41:00,61.7,46.8,29.68,WNW,292,1.1,4.3,58,0.00,,---,0.00,VWS V14.01,2013-03-17 18:41:00,
2013-03-17 14:42:00,61.0,46.6,29.71,ENE,68,0.5,3.4,59,0.00,,---,0.00,VWS V14.01,2013-03-17 18:42:00,
2013-03-17 14:43:00,61.5,46.6,29.68,North,0,1.8,6.3,58,0.00,,---,0.00,VWS V14.01,2013-03-17 18:43:00,
2013-03-17 14:44:00,61.0,46.6,29.71,East,90,0.0,1.6,59,0.00,,---,0.00,VWS V14.01,2013-03-17 18:44:00,
2013-03-17 14:45:00,61.0,46.6,29.71,NW,315,1.4,3.4,59,0.00,,---,0.00,VWS V14.01,2013-03-17 18:45:00,
2013-03-17 14:46:00,61.2,46.7,29.71,NNW,338,1.4,3.8,59,0.00,,---,0.00,VWS V14.01,2013-03-17 18:46:00,
2013-03-17 14:47:00,61.0,46.6,29.71,ENE,68,0.5,3.4,59,0.00,,---,0.00,VWS V14.01,2013-03-17 18:47:00,
2013-03-17 14:48:00,60.8,46.4,29.71,NE,45,1.1,4.9,59,0.00,,---,0.00,VWS V14.01,2013-03-17 18:48:00,
2013-03-17 14:49:00,61.0,46.6,29.71,East,90,0.0,1.6,59,0.00,,---,0.00,VWS V14.01,2013-03-17 18:49:00,
2013-03-17 14:50:00,60.8,46.4,29.71,WNW,292,4.3,6.3,59,0.00,,---,0.00,VWS V14.01,2013-03-17 18:50:00,
2013-03-17 14:51:00,61.0,47.0,29.71,NNW,338,0.2,3.4,60,0.00,,---,0.00,VWS V14.01,2013-03-17 18:51:00,
2013-03-17 14:52:00,61.0,47.0,29.71,NNE,22,0.9,2.9,60,0.00,,---,0.00,VWS V14.01,2013-03-17 18:52:00,
2013-03-17 14:53:00,60.6,46.2,29.71,SSE,158,1.4,5.6,59,0.00,,---,0.00,VWS V14.01,2013-03-17 18:53:00,
2013-03-17 14:54:00,60.6,46.2,29.71,NNW,338,0.7,3.4,59,0.00,,---,0.00,VWS V14.01,2013-03-17 18:54:00,
2013-03-17 14:55:00,60.8,46.4,29.71,WNW,292,4.3,6.3,59,0.00,,---,0.00,VWS V14.01,2013-03-17 18:55:00,
2013-03-17 14:56:00,60.6,46.2,29.71,ENE,68,0.7,9.2,59,0.00,,---,0.00,VWS V14.01,2013-03-17 18:56:00,
2013-03-17 14:57:00,60.6,46.2,29.71,ENE,68,3.6,5.6,59,0.00,,---,0.00,VWS V14.01,2013-03-17 18:57:00,
2013-03-17 14:58:00,60.6,46.2,29.71,SSE,158,1.4,5.6,59,0.00,,---,0.00,VWS V14.01,2013-03-17 18:58:00,
2013-03-17 14:59:00,60.4,46.5,29.71,NNE,22,0.0,5.4,60,0.00,,---,0.00,VWS V14.01,2013-03-17 18:59:00,
2013-03-17 15:00:00,60.1,45.7,29.71,NW,315,1.1,4.7,59,0.00,,---,0.00,VWS V14.01,2013-03-17 19:00:00,
2013-03-17 15:01:00,60.4,46.5,29.71,NNW,338,2.3,4.9,60,0.00,,---,0.00,VWS V14.01,2013-03-17 19:01:00,
2013-03-17 15:02:00,60.4,46.5,29.71,East,90,0.9,4.3,60,0.00,,---,0.00,VWS V14.01,2013-03-17 19:02:00,
2013-03-17 15:03:00,60.4,46.5,29.71,WNW,292,0.7,2.9,60,0.00,,---,0.00,VWS V14.01,2013-03-17 19:03:00,
2013-03-17 15:04:00,60.4,46.5,29.71,NNE,22,0.0,5.4,60,0.00,,---,0.00,VWS V14.01,2013-03-17 19:04:00,
2013-03-17 15:05:00,60.3,46.3,29.71,NNE,22,1.1,3.4,60,0.00,,---,0.00,VWS V14.01,2013-03-17 19:05:00,
2013-03-17 15:06:00,60.3,46.3,29.71,East,90,0.9,6.0,60,0.00,,---,0.00,VWS V14.01,2013-03-17 19:06:00,
2013-03-17 15:07:00,60.3,46.3,29.71,East,90,0.7,2.7,60,0.00,,---,0.00,VWS V14.01,2013-03-17 19:07:00,
2013-03-17 15:08:00,60.3,46.3,29.71,NW,315,0.0,6.3,60,0.00,,---,0.00,VWS V14.01,2013-03-17 19:08:00,
2013-03-17 15:09:00,60.3,46.3,29.71,East,90,1.1,4.7,60,0.00,,---,0.00,VWS V14.01,2013-03-17 19:09:00,
2013-03-17 15:10:00,60.3,46.3,29.71,NNE,22,1.1,3.4,60,0.00,,---,0.00,VWS V14.01,2013-03-17 19:10:00,
2013-03-17 15:11:00,60.3,46.3,29.71,NNW,338,0.5,3.8,60,0.00,,---,0.00,VWS V14.01,2013-03-17 19:11:00,
2013-03-17 15:12:00,60.3,45.9,29.74,ENE,68,0.0,2.0,59,0.00,,---,0.00,VWS V14.01,2013-03-17 19:12:00,
2013-03-17 15:13:00,60.3,46.3,29.71,NW,315,0.0,6.3,60,0.00,,---,0.00,VWS V14.01,2013-03-17 19:13:00,
2013-03-17 15:14:00,60.1,46.2,29.74,NW,315,1.8,4.3,60,0.00,,---,0.00,VWS V14.01,2013-03-17 19:14:00,
2013-03-17 15:15:00,60.1,46.2,29.74,NNW,338,0.0,2.7,60,0.00,,---,0.00,VWS V14.01,2013-03-17 19:15:00,
2013-03-17 15:16:00,60.3,45.9,29.74,ENE,68,0.0,3.8,59,0.00,,---,0.00,VWS V14.01,2013-03-17 19:16:00,
2013-03-17 15:17:00,60.3,45.9,29.74,ENE,68,0.0,2.0,59,0.00,,---,0.00,VWS V14.01,2013-03-17 19:17:00,
2013-03-17 15:18:00,59.9,45.1,29.74,SE,135,3.6,5.6,58,0.00,,---,0.00,VWS V14.01,2013-03-17 19:18:00,
2013-03-17 15:19:00,59.9,45.5,29.74,NNE,22,0.9,5.6,59,0.00,,---,0.00,VWS V14.01,2013-03-17 19:19:00,
2013-03-17 15:20:00,60.1,46.2,29.74,NNW,338,0.0,2.7,60,0.00,,---,0.00,VWS V14.01,2013-03-17 19:20:00,
2013-03-17 15:21:00,60.1,46.2,29.74,North,0,0.5,3.8,60,0.00,,---,0.00,VWS V14.01,2013-03-17 19:21:00,
2013-03-17 15:22:00,60.1,45.7,29.74,NNE,22,0.0,2.7,59,0.00,,---,0.00,VWS V14.01,2013-03-17 19:22:00,
2013-03-17 15:23:00,59.5,44.8,29.74,NNE,22,2.0,4.3,58,0.00,,---,0.00,VWS V14.01,2013-03-17 19:23:00,
2013-03-17 15:24:00,59.9,45.5,29.74,NNE,22,0.9,5.6,59,0.00,,---,0.00,VWS V14.01,2013-03-17 19:24:00,
2013-03-17 15:25:00,59.4,44.6,29.71,ENE,68,6.1,8.1,58,0.00,,---,0.00,VWS V14.01,2013-03-17 19:25:00,
2013-03-17 15:26:00,59.0,44.7,29.71,North,0,2.9,8.5,59,0.00,,---,0.00,VWS V14.01,2013-03-17 19:26:00,
2013-03-17 15:27:00,59.7,44.9,29.74,ENE,68,0.5,5.4,58,0.00,,---,0.00,VWS V14.01,2013-03-17 19:27:00,
2013-03-17 15:28:00,59.5,44.8,29.74,NNE,22,2.0,4.3,58,0.00,,---,0.00,VWS V14.01,2013-03-17 19:28:00,
2013-03-17 15:29:00,58.8,44.5,29.71,NNW,338,0.0,4.0,59,0.00,,---,0.00,VWS V14.01,2013-03-17 19:29:00,
2013-03-17 15:30:00,59.4,44.6,29.71,ENE,68,6.1,8.1,58,0.00,,---,0.00,VWS V14.01,2013-03-17 19:30:00,
2013-03-17 15:31:00,59.0,44.7,29.71,North,0,2.9,8.5,59,0.00,,---,0.00,VWS V14.01,2013-03-17 19:31:00,
2013-03-17 15:32:00,58.5,44.6,29.71,NNE,22,0.0,3.4,60,0.00,,---,0.00,VWS V14.01,2013-03-17 19:32:00,
2013-03-17 15:33:00,58.8,44.5,29.71,NW,315,1.6,8.1,59,0.00,,---,0.00,VWS V14.01,2013-03-17 19:33:00,
2013-03-17 15:34:00,58.8,44.5,29.71,NNW,338,0.0,4.0,59,0.00,,---,0.00,VWS V14.01,2013-03-17 19:34:00,
2013-03-17 15:35:00,58.1,44.3,29.71,NNE,22,1.6,5.4,60,0.00,,---,0.00,VWS V14.01,2013-03-17 19:35:00,
2013-03-17 15:36:00,58.6,44.8,29.71,NNE,22,0.9,4.9,60,0.00,,---,0.00,VWS V14.01,2013-03-17 19:36:00,
2013-03-17 15:37:00,57.9,44.1,29.71,NNE,22,1.1,4.0,60,0.00,,---,0.00,VWS V14.01,2013-03-17 19:37:00,
2013-03-17 15:38:00,57.7,44.4,29.71,NNE,22,0.5,4.0,61,0.00,,---,0.00,VWS V14.01,2013-03-17 19:38:00,
2013-03-17 15:39:00,58.1,44.3,29.71,WNW,292,0.7,2.7,60,0.00,,---,0.00,VWS V14.01,2013-03-17 19:39:00,
2013-03-17 15:40:00,58.1,44.3,29.71,NNE,22,1.6,5.4,60,0.00,,---,0.00,VWS V14.01,2013-03-17 19:40:00,
2013-03-17 15:41:00,57.6,44.7,29.71,West,270,0.0,2.5,62,0.00,,---,0.00,VWS V14.01,2013-03-17 19:41:00,
2013-03-17 15:42:00,57.9,44.1,29.71,NNE,22,1.1,4.0,60,0.00,,---,0.00,VWS V14.01,2013-03-17 19:42:00,
2013-03-17 15:43:00,57.6,44.7,29.71,SSE,158,0.5,2.9,62,0.00,,---,0.00,VWS V14.01,2013-03-17 19:43:00,
2013-03-17 15:44:00,57.7,44.4,29.71,NNW,338,1.1,4.3,61,0.00,,---,0.00,VWS V14.01,2013-03-17 19:44:00,
2013-03-17 15:45:00,57.7,44.4,29.71,NE,45,0.5,2.5,61,0.00,,---,0.00,VWS V14.01,2013-03-17 19:45:00,
2013-03-17 15:46:00,57.6,44.7,29.71,NE,45,0.9,2.9,62,0.00,,---,0.00,VWS V14.01,2013-03-17 19:46:00,
2013-03-17 15:47:00,57.6,44.7,29.71,ESE,112,0.0,2.9,62,0.00,,---,0.00,VWS V14.01,2013-03-17 19:47:00,
2013-03-17 15:48:00,57.6,44.7,29.71,NE,45,0.9,2.9,62,0.00,,---,0.00,VWS V14.01,2013-03-17 19:48:00,
2013-03-17 15:49:00,57.6,44.7,29.71,North,0,0.0,2.9,62,0.00,,---,0.00,VWS V14.01,2013-03-17 19:49:00,
2013-03-17 15:50:00,57.6,44.7,29.71,NNE,22,0.5,3.8,62,0.00,,---,0.00,VWS V14.01,2013-03-17 19:50:00,
2013-03-17 15:51:00,57.6,44.7,29.71,NE,45,0.9,2.9,62,0.00,,---,0.00,VWS V14.01,2013-03-17 19:51:00,
2013-03-17 15:52:00,57.2,43.9,29.71,SE,135,0.7,3.4,61,0.00,,---,0.00,VWS V14.01,2013-03-17 19:52:00,
2013-03-17 15:53:00,57.2,44.3,29.71,SSE,158,0.0,2.7,62,0.00,,---,0.00,VWS V14.01,2013-03-17 19:53:00,
2013-03-17 15:54:00,57.2,44.3,29.71,East,90,0.7,3.1,62,0.00,,---,0.00,VWS V14.01,2013-03-17 19:54:00,
2013-03-17 15:55:00,57.4,44.5,29.71,NNW,338,0.0,4.0,62,0.00,,---,0.00,VWS V14.01,2013-03-17 19:55:00,
2013-03-17 15:56:00,57.4,44.5,29.71,NNW,338,1.4,3.4,62,0.00,,---,0.00,VWS V14.01,2013-03-17 19:56:00,
2013-03-17 15:57:00,57.0,44.6,29.71,East,90,0.5,4.0,63,0.00,,---,0.00,VWS V14.01,2013-03-17 19:57:00,
2013-03-17 15:58:00,57.2,44.3,29.71,SSE,158,0.0,2.7,62,0.00,,---,0.00,VWS V14.01,2013-03-17 19:58:00,
2013-03-17 15:59:00,57.0,44.6,29.71,NNE,22,0.2,3.6,63,0.00,,---,0.00,VWS V14.01,2013-03-17 19:59:00,
2013-03-17 16:00:00,57.2,44.3,29.71,NE,45,0.2,4.0,62,0.00,,---,0.00,VWS V14.01,2013-03-17 20:00:00,
2013-03-17 16:01:00,57.0,44.6,29.71,SE,135,0.2,2.2,63,0.00,,---,0.00,VWS V14.01,2013-03-17 20:01:00,
2013-03-17 16:02:00,57.0,44.6,29.71,North,0,0.5,2.9,63,0.00,,---,0.00,VWS V14.01,2013-03-17 20:02:00,
2013-03-17 16:04:00,57.0,44.6,29.71,North,0,0.5,4.3,63,0.00,,---,0.00,VWS V14.01,2013-03-17 20:04:00,
2013-03-17 16:05:00,57.0,44.6,29.71,East,90,0.5,2.5,63,0.00,,---,0.00,VWS V14.01,2013-03-17 20:05:00,
2013-03-17 16:06:00,57.0,44.6,29.71,SE,135,0.7,2.9,63,0.00,,---,0.00,VWS V14.01,2013-03-17 20:06:00,
2013-03-17 16:07:00,57.0,44.6,29.71,North,0,0.5,2.9,63,0.00,,---,0.00,VWS V14.01,2013-03-17 20:07:00,
2013-03-17 16:08:00,56.8,44.4,29.71,ESE,112,0.5,3.4,63,0.00,,---,0.00,VWS V14.01,2013-03-17 20:08:00,
2013-03-17 16:09:00,57.0,44.6,29.71,North,0,0.5,4.3,63,0.00,,---,0.00,VWS V14.01,2013-03-17 20:09:00,
2013-03-17 16:10:00,56.7,43.8,29.71,NE,45,0.0,3.6,62,0.00,,---,0.00,VWS V14.01,2013-03-17 20:10:00,
2013-03-17 16:11:00,56.5,43.6,29.71,NNE,22,1.6,6.3,62,0.00,,---,0.00,VWS V14.01,2013-03-17 20:11:00,
2013-03-17 16:12:00,56.8,44.0,29.71,NNE,22,1.4,3.8,62,0.00,,---,0.00,VWS V14.01,2013-03-17 20:12:00,
2013-03-17 16:13:00,56.8,44.4,29.71,ESE,112,0.5,3.4,63,0.00,,---,0.00,VWS V14.01,2013-03-17 20:13:00,
2013-03-17 16:14:00,56.7,44.2,29.71,West,270,1.6,3.6,63,0.00,,---,0.00,VWS V14.01,2013-03-17 20:14:00,
2013-03-17 16:15:00,56.1,43.7,29.71,ESE,112,0.2,3.6,63,0.00,,---,0.00,VWS V14.01,2013-03-17 20:15:00,
2013-03-17 16:16:00,56.1,43.7,29.71,East,90,0.2,2.2,63,0.00,,---,0.00,VWS V14.01,2013-03-17 20:16:00,
2013-03-17 16:17:00,56.5,44.0,29.71,NW,315,0.5,3.8,63,0.00,,---,0.00,VWS V14.01,2013-03-17 20:17:00,
2013-03-17 16:18:00,56.3,43.9,29.71,North,0,0.5,4.0,63,0.00,,---,0.00,VWS V14.01,2013-03-17 20:18:00,
2013-03-17 16:19:00,56.3,43.9,29.71,East,90,1.6,3.6,63,0.00,,---,0.00,VWS V14.01,2013-03-17 20:19:00,
2013-03-17 16:20:00,55.9,43.5,29.71,North,0,1.1,3.8,63,0.00,,---,0.00,VWS V14.01,2013-03-17 20:20:00,
2013-03-17 16:21:00,56.1,43.7,29.71,East,90,0.2,2.2,63,0.00,,---,0.00,VWS V14.01,2013-03-17 20:21:00,
2013-03-17 16:22:00,55.6,43.2,29.71,NNW,338,0.7,3.6,63,0.00,,---,0.00,VWS V14.01,2013-03-17 20:22:00,
2013-03-17 16:23:00,55.9,43.5,29.71,NW,315,1.8,3.8,63,0.00,,---,0.00,VWS V14.01,2013-03-17 20:23:00,
2013-03-17 16:24:00,55.9,43.5,29.71,NW,315,1.8,3.8,63,0.00,,---,0.00,VWS V14.01,2013-03-17 20:24:00,
2013-03-17 16:25:00,55.6,43.2,29.71,NW,315,1.4,4.0,63,0.00,,---,0.00,VWS V14.01,2013-03-17 20:25:00,
2013-03-17 16:26:00,55.8,43.4,29.71,NNW,338,0.0,3.1,63,0.00,,---,0.00,VWS V14.01,2013-03-17 20:26:00,
2013-03-17 16:27:00,55.6,43.2,29.71,NNW,338,0.7,3.6,63,0.00,,---,0.00,VWS V14.01,2013-03-17 20:27:00,
2013-03-17 16:28:00,55.2,43.3,29.71,NNE,22,0.2,2.9,64,0.00,,---,0.00,VWS V14.01,2013-03-17 20:28:00,
2013-03-17 16:29:00,55.2,43.3,29.71,East,90,0.0,2.5,64,0.00,,---,0.00,VWS V14.01,2013-03-17 20:29:00,
2013-03-17 16:30:00,55.2,43.3,29.71,ENE,68,0.0,3.6,64,0.00,,---,0.00,VWS V14.01,2013-03-17 20:30:00,
2013-03-17 16:31:00,55.4,43.4,29.71,NE,45,1.6,3.6,64,0.00,,---,0.00,VWS V14.01,2013-03-17 20:31:00,
2013-03-17 16:32:00,55.4,43.0,29.71,NE,45,0.0,2.7,63,0.00,,---,0.00,VWS V14.01,2013-03-17 20:32:00,
2013-03-17 16:33:00,55.0,43.1,29.71,South,180,0.2,2.7,64,0.00,,---,0.00,VWS V14.01,2013-03-17 20:33:00,
2013-03-17 16:34:00,54.9,42.9,29.71,ESE,112,0.2,2.5,64,0.00,,---,0.00,VWS V14.01,2013-03-17 20:34:00,
2013-03-17 16:35:00,55.2,43.3,29.71,ENE,68,0.0,3.6,64,0.00,,---,0.00,VWS V14.01,2013-03-17 20:35:00,
2013-03-17 16:36:00,55.2,43.3,29.71,NW,315,0.7,2.7,64,0.00,,---,0.00,VWS V14.01,2013-03-17 20:36:00,
2013-03-17 16:37:00,55.2,43.3,29.71,NNW,338,0.7,1.3,64,0.00,,---,0.00,VWS V14.01,2013-03-17 20:37:00,
2013-03-17 16:38:00,54.7,42.8,29.71,ENE,68,0.9,2.9,64,0.00,,---,0.00,VWS V14.01,2013-03-17 20:38:00,
2013-03-17 16:39:00,54.7,42.8,29.71,NNW,338,0.0,5.4,64,0.00,,---,0.00,VWS V14.01,2013-03-17 20:39:00,
2013-03-17 16:40:00,54.9,42.9,29.71,NNW,338,0.5,2.9,64,0.00,,---,0.00,VWS V14.01,2013-03-17 20:40:00,
2013-03-17 16:41:00,54.9,42.9,29.71,NE,45,0.5,3.6,64,0.00,,---,0.00,VWS V14.01,2013-03-17 20:41:00,
2013-03-17 16:42:00,54.5,42.6,29.68,ENE,68,0.5,1.6,64,0.00,,---,0.00,VWS V14.01,2013-03-17 20:42:00,
2013-03-17 16:43:00,54.7,42.8,29.71,ENE,68,0.9,2.9,64,0.00,,---,0.00,VWS V14.01,2013-03-17 20:43:00,
2013-03-17 16:44:00,54.3,42.4,29.68,NNE,22,3.4,5.4,64,0.00,,---,0.00,VWS V14.01,2013-03-17 20:44:00,
2013-03-17 16:45:00,54.3,42.4,29.68,NNE,22,0.0,5.4,64,0.00,,---,0.00,VWS V14.01,2013-03-17 20:45:00,
2013-03-17 16:46:00,54.5,43.0,29.68,NNW,338,0.5,2.5,65,0.00,,---,0.00,VWS V14.01,2013-03-17 20:46:00,
2013-03-17 16:47:00,54.3,42.4,29.68,SE,135,0.7,2.7,64,0.00,,---,0.00,VWS V14.01,2013-03-17 20:47:00,
2013-03-17 16:48:00,54.5,42.6,29.68,North,0,0.0,2.0,64,0.00,,---,0.00,VWS V14.01,2013-03-17 20:48:00,
2013-03-17 16:49:00,54.3,42.4,29.68,NNE,22,3.4,5.4,64,0.00,,---,0.00,VWS V14.01,2013-03-17 20:49:00,
2013-03-17 16:50:00,54.3,42.4,29.68,NNE,22,0.0,5.4,64,0.00,,---,0.00,VWS V14.01,2013-03-17 20:50:00,
2013-03-17 16:51:00,54.3,42.4,29.68,ESE,112,0.0,2.0,64,0.00,,---,0.00,VWS V14.01,2013-03-17 20:51:00,
2013-03-17 16:52:00,53.6,41.7,29.68,SSE,158,0.0,2.5,64,0.00,,---,0.00,VWS V14.01,2013-03-17 20:52:00,
2013-03-17 16:53:00,54.1,42.7,29.68,SE,135,0.0,3.8,65,0.00,,---,0.00,VWS V14.01,2013-03-17 20:53:00,
2013-03-17 16:54:00,53.4,42.0,29.68,NNW,338,0.7,2.7,65,0.00,,---,0.00,VWS V14.01,2013-03-17 20:54:00,
2013-03-17 16:55:00,53.8,41.9,29.68,ESE,112,0.2,2.7,64,0.00,,---,0.00,VWS V14.01,2013-03-17 20:55:00,
2013-03-17 16:56:00,53.6,41.7,29.68,ESE,112,0.5,2.5,64,0.00,,---,0.00,VWS V14.01,2013-03-17 20:56:00,
2013-03-17 16:57:00,53.6,41.7,29.68,SSE,158,0.0,2.5,64,0.00,,---,0.00,VWS V14.01,2013-03-17 20:57:00,
2013-03-17 16:58:00,53.4,41.6,29.68,NNW,338,0.0,2.0,64,0.00,,---,0.00,VWS V14.01,2013-03-17 20:58:00,
2013-03-17 16:59:00,53.1,41.6,29.71,NNE,22,3.6,3.6,65,0.00,,---,0.00,VWS V14.01,2013-03-17 20:59:00,
2013-03-17 17:00:00,53.2,41.8,29.71,North,0,3.6,5.6,65,0.00,,---,0.00,VWS V14.01,2013-03-17 21:00:00,
2013-03-17 17:01:00,53.2,41.8,29.71,North,0,3.6,5.6,65,0.00,,---,0.00,VWS V14.01,2013-03-17 21:01:00,
2013-03-17 17:02:00,53.1,41.6,29.71,North,0,3.6,5.6,65,0.00,,---,0.00,VWS V14.01,2013-03-17 21:02:00,
2013-03-17 17:03:00,52.5,41.5,29.71,ENE,68,0.7,3.1,66,0.00,,---,0.00,VWS V14.01,2013-03-17 21:03:00,
2013-03-17 17:04:00,52.2,41.2,29.71,NNW,338,1.4,3.4,66,0.00,,---,0.00,VWS V14.01,2013-03-17 21:04:00,
2013-03-17 17:05:00,52.2,41.2,29.71,NW,315,1.4,3.4,66,0.00,,---,0.00,VWS V14.01,2013-03-17 21:05:00,
2013-03-17 17:06:00,52.5,41.5,29.71,NNE,22,0.5,5.6,66,0.00,,---,0.00,VWS V14.01,2013-03-17 21:06:00,
2013-03-17 17:07:00,52.5,41.5,29.71,NNW,338,1.1,3.1,66,0.00,,---,0.00,VWS V14.01,2013-03-17 21:07:00,
2013-03-17 17:08:00,51.8,41.2,29.71,ESE,112,0.7,1.6,67,0.00,,---,0.00,VWS V14.01,2013-03-17 21:08:00,
2013-03-17 17:09:00,51.8,41.2,29.71,SSE,158,0.7,1.6,67,0.00,,---,0.00,VWS V14.01,2013-03-17 21:09:00,
2013-03-17 17:10:00,52.2,41.2,29.71,NW,315,1.4,3.4,66,0.00,,---,0.00,VWS V14.01,2013-03-17 21:10:00,
2013-03-17 17:11:00,52.0,41.8,29.71,East,90,1.6,3.6,68,0.00,,---,0.00,VWS V14.01,2013-03-17 21:11:00,
2013-03-17 17:12:00,51.6,41.4,29.71,SSE,158,0.0,2.2,68,0.00,,---,0.00,VWS V14.01,2013-03-17 21:12:00,
2013-03-17 17:13:00,51.6,41.4,29.71,SW,225,0.0,2.0,68,0.00,,---,0.00,VWS V14.01,2013-03-17 21:13:00,
2013-03-17 17:14:00,51.8,41.2,29.71,SSE,158,0.7,1.6,67,0.00,,---,0.00,VWS V14.01,2013-03-17 21:14:00,
2013-03-17 17:15:00,51.6,41.4,29.71,ESE,112,0.0,2.9,68,0.00,,---,0.00,VWS V14.01,2013-03-17 21:15:00,
2013-03-17 17:16:00,51.6,41.0,29.71,SSE,158,0.0,2.0,67,0.00,,---,0.00,VWS V14.01,2013-03-17 21:16:00,
2013-03-17 17:17:00,51.6,41.4,29.71,SSE,158,0.0,2.2,68,0.00,,---,0.00,VWS V14.01,2013-03-17 21:17:00,
2013-03-17 17:18:00,51.3,41.1,29.71,NNE,22,0.5,2.5,68,0.00,,---,0.00,VWS V14.01,2013-03-17 21:18:00,
2013-03-17 17:19:00,51.3,40.7,29.71,East,90,0.2,2.2,67,0.00,,---,0.00,VWS V14.01,2013-03-17 21:19:00,
2013-03-17 17:20:00,51.4,41.2,29.71,SE,135,0.7,2.7,68,0.00,,---,0.00,VWS V14.01,2013-03-17 21:20:00,
2013-03-17 17:21:00,51.1,40.9,29.71,East,90,0.2,1.3,68,0.00,,---,0.00,VWS V14.01,2013-03-17 21:21:00,
2013-03-17 17:22:00,51.4,41.2,29.71,East,90,0.5,0.0,68,0.00,,---,0.00,VWS V14.01,2013-03-17 21:22:00,
2013-03-17 17:23:00,51.3,41.1,29.71,NNE,22,0.5,2.5,68,0.00,,---,0.00,VWS V14.01,2013-03-17 21:23:00,
2013-03-17 17:24:00,51.3,40.7,29.71,East,90,0.2,2.2,67,0.00,,---,0.00,VWS V14.01,2013-03-17 21:24:00,
2013-03-17 17:25:00,50.9,40.7,29.74,NNW,338,0.2,1.3,68,0.00,,---,0.00,VWS V14.01,2013-03-17 21:25:00,
2013-03-17 17:26:00,51.1,40.9,29.71,East,90,0.2,1.3,68,0.00,,---,0.00,VWS V14.01,2013-03-17 21:26:00,
2013-03-17 17:27:00,50.7,40.9,29.74,East,90,0.7,2.7,69,0.00,,---,0.00,VWS V14.01,2013-03-17 21:27:00,
2013-03-17 17:28:00,51.1,41.3,29.71,ENE,68,0.5,2.5,69,0.00,,---,0.00,VWS V14.01,2013-03-17 21:28:00,
2013-03-17 17:29:00,50.7,41.3,29.74,ENE,68,1.4,7.2,70,0.00,,---,0.00,VWS V14.01,2013-03-17 21:29:00,
2013-03-17 17:30:00,50.9,40.7,29.74,NNW,338,0.2,1.3,68,0.00,,---,0.00,VWS V14.01,2013-03-17 21:30:00,
2013-03-17 17:31:00,50.9,41.5,29.74,ESE,112,0.0,2.7,70,0.00,,---,0.00,VWS V14.01,2013-03-17 21:31:00,
2013-03-17 17:32:00,50.7,40.9,29.74,East,90,0.7,2.7,69,0.00,,---,0.00,VWS V14.01,2013-03-17 21:32:00,
2013-03-17 17:33:00,50.7,41.3,29.74,NNW,338,2.0,4.3,70,0.00,,---,0.00,VWS V14.01,2013-03-17 21:33:00,
2013-03-17 17:34:00,50.4,41.0,29.74,SSE,158,0.0,2.0,70,0.00,,---,0.00,VWS V14.01,2013-03-17 21:34:00,
2013-03-17 17:35:00,50.4,40.6,29.74,NE,45,0.0,2.0,69,0.00,,---,0.00,VWS V14.01,2013-03-17 21:35:00,
2013-03-17 17:36:00,50.4,41.0,29.74,ESE,112,0.5,2.7,70,0.00,,---,0.00,VWS V14.01,2013-03-17 21:36:00,
2013-03-17 17:37:00,50.5,41.1,29.74,East,90,0.2,2.5,70,0.00,,---,0.00,VWS V14.01,2013-03-17 21:37:00,
2013-03-17 17:38:00,50.4,41.0,29.74,ESE,112,0.0,2.0,70,0.00,,---,0.00,VWS V14.01,2013-03-17 21:38:00,
2013-03-17 17:39:00,50.4,41.0,29.74,SSE,158,0.0,2.0,70,0.00,,---,0.00,VWS V14.01,2013-03-17 21:39:00,
2013-03-17 17:40:00,50.4,40.6,29.74,NE,45,0.0,2.0,69,0.00,,---,0.00,VWS V14.01,2013-03-17 21:40:00,
2013-03-17 17:41:00,50.4,41.0,29.74,ESE,112,0.5,2.7,70,0.00,,---,0.00,VWS V14.01,2013-03-17 21:41:00,
2013-03-17 17:42:00,50.2,40.8,29.74,NE,45,0.0,2.7,70,0.00,,---,0.00,VWS V14.01,2013-03-17 21:42:00,
2013-03-17 17:43:00,50.4,41.0,29.74,ESE,112,0.0,2.0,70,0.00,,---,0.00,VWS V14.01,2013-03-17 21:43:00,
2013-03-17 17:44:00,50.2,41.2,29.74,ESE,112,0.0,2.5,71,0.00,,---,0.00,VWS V14.01,2013-03-17 21:44:00,
2013-03-17 17:45:00,50.2,40.8,29.74,ENE,68,0.0,1.6,70,0.00,,---,0.00,VWS V14.01,2013-03-17 21:45:00,
2013-03-17 17:46:00,50.0,40.6,29.74,SSW,202,0.0,1.6,70,0.00,,---,0.00,VWS V14.01,2013-03-17 21:46:00,
2013-03-17 17:47:00,50.2,40.8,29.74,NE,45,0.0,2.7,70,0.00,,---,0.00,VWS V14.01,2013-03-17 21:47:00,
2013-03-17 17:48:00,50.0,41.0,29.74,WNW,292,0.0,1.1,71,0.00,,---,0.00,VWS V14.01,2013-03-17 21:48:00,
2013-03-17 17:49:00,50.2,41.2,29.74,ESE,112,0.0,2.5,71,0.00,,---,0.00,VWS V14.01,2013-03-17 21:49:00,
2013-03-17 17:50:00,50.0,40.6,29.74,ESE,112,0.0,2.0,70,0.00,,---,0.00,VWS V14.01,2013-03-17 21:50:00,
2013-03-17 17:51:00,50.0,40.6,29.74,SSW,202,0.0,1.6,70,0.00,,---,0.00,VWS V14.01,2013-03-17 21:51:00,
2013-03-17 17:52:00,50.0,40.6,29.74,NE,45,0.0,2.0,70,0.00,,---,0.00,VWS V14.01,2013-03-17 21:52:00,
2013-03-17 17:53:00,49.8,40.4,29.74,ESE,112,0.2,0.0,70,0.00,,---,0.00,VWS V14.01,2013-03-17 21:53:00,
2013-03-17 17:54:00,50.0,40.6,29.74,NW,315,0.0,2.0,70,0.00,,---,0.00,VWS V14.01,2013-03-17 21:54:00,
2013-03-17 17:55:00,49.6,40.6,29.74,East,90,0.7,2.9,71,0.00,,---,0.00,VWS V14.01,2013-03-17 21:55:00,
2013-03-17 17:56:00,49.6,40.6,29.74,NE,45,0.7,2.7,71,0.00,,---,0.00,VWS V14.01,2013-03-17 21:56:00,
2013-03-17 17:57:00,49.6,40.6,29.74,WNW,292,0.7,1.1,71,0.00,,---,0.00,VWS V14.01,2013-03-17 21:57:00,
2013-03-17 17:58:00,49.8,40.4,29.74,ESE,112,0.2,0.0,70,0.00,,---,0.00,VWS V14.01,2013-03-17 21:58:00,
2013-03-17 17:59:00,49.8,40.8,29.74,SSE,158,0.0,2.0,71,0.00,,---,0.00,VWS V14.01,2013-03-17 21:59:00,
2013-03-17 18:00:00,49.6,40.6,29.74,East,90,0.7,2.9,71,0.00,,---,0.00,VWS V14.01,2013-03-17 22:00:00,
2013-03-17 18:01:00,49.6,40.6,29.74,NE,45,0.7,2.7,71,0.00,,---,0.00,VWS V14.01,2013-03-17 22:01:00,
2013-03-17 18:02:00,49.3,40.7,29.74,NNE,22,0.2,2.9,72,0.00,,---,0.00,VWS V14.01,2013-03-17 22:02:00,
2013-03-17 18:03:00,49.5,40.5,29.74,NNE,22,0.0,2.5,71,0.00,,---,0.00,VWS V14.01,2013-03-17 22:03:00,
2013-03-17 18:04:00,49.3,40.3,29.74,East,90,0.9,2.9,71,0.00,,---,0.00,VWS V14.01,2013-03-17 22:04:00,
2013-03-17 18:05:00,49.3,40.7,29.74,NE,45,1.4,3.6,72,0.00,,---,0.00,VWS V14.01,2013-03-17 22:05:00,
2013-03-17 18:06:00,49.3,40.3,29.74,ESE,112,0.7,2.9,71,0.00,,---,0.00,VWS V14.01,2013-03-17 22:06:00,
2013-03-17 18:07:00,49.1,40.5,29.74,NNW,338,1.4,1.4,72,0.00,,---,0.00,VWS V14.01,2013-03-17 22:07:00,
2013-03-17 18:08:00,49.3,40.3,29.74,SSW,202,0.2,1.1,71,0.00,,---,0.00,VWS V14.01,2013-03-17 22:08:00,
2013-03-17 18:09:00,49.3,40.3,29.74,East,90,0.9,2.9,71,0.00,,---,0.00,VWS V14.01,2013-03-17 22:09:00,
2013-03-17 18:10:00,49.1,40.5,29.76,NNW,338,0.0,2.0,72,0.00,,---,0.00,VWS V14.01,2013-03-17 22:10:00,
2013-03-17 18:11:00,49.3,40.7,29.74,North,0,1.4,1.4,72,0.00,,---,0.00,VWS V14.01,2013-03-17 22:11:00,
2013-03-17 18:12:00,48.9,40.7,29.76,WNW,292,1.6,3.6,73,0.00,,---,0.00,VWS V14.01,2013-03-17 22:12:00,
2013-03-17 18:13:00,48.9,40.3,29.76,NNE,22,0.7,5.6,72,0.00,,---,0.00,VWS V14.01,2013-03-17 22:13:00,
2013-03-17 18:14:00,49.1,40.1,29.74,NNW,338,1.4,1.4,71,0.00,,---,0.00,VWS V14.01,2013-03-17 22:14:00,
2013-03-17 18:15:00,49.1,40.5,29.76,NNW,338,0.0,2.0,72,0.00,,---,0.00,VWS V14.01,2013-03-17 22:15:00,
2013-03-17 18:16:00,49.1,40.5,29.76,ESE,112,0.2,2.7,72,0.00,,---,0.00,VWS V14.01,2013-03-17 22:16:00,
2013-03-17 18:17:00,48.9,40.7,29.76,WNW,292,1.6,3.6,73,0.00,,---,0.00,VWS V14.01,2013-03-17 22:17:00,
2013-03-17 18:18:00,48.7,40.1,29.76,SE,135,0.2,2.2,72,0.00,,---,0.00,VWS V14.01,2013-03-17 22:18:00,
2013-03-17 18:19:00,48.7,40.1,29.76,NE,45,0.5,2.5,72,0.00,,---,0.00,VWS V14.01,2013-03-17 22:19:00,
2013-03-17 18:20:00,48.7,40.1,29.76,NW,315,0.5,0.9,72,0.00,,---,0.00,VWS V14.01,2013-03-17 22:20:00,
2013-03-17 18:21:00,48.7,40.1,29.76,NNW,338,0.0,1.6,72,0.00,,---,0.00,VWS V14.01,2013-03-17 22:21:00,
2013-03-17 18:22:00,48.6,40.3,29.76,East,90,0.2,3.1,73,0.00,,---,0.00,VWS V14.01,2013-03-17 22:22:00,
2013-03-17 18:23:00,48.6,40.0,29.76,NE,45,0.2,2.2,72,0.00,,---,0.00,VWS V14.01,2013-03-17 22:23:00,
2013-03-17 18:24:00,48.7,40.1,29.76,NE,45,0.5,2.5,72,0.00,,---,0.00,VWS V14.01,2013-03-17 22:24:00,
2013-03-17 18:25:00,48.6,40.0,29.76,NW,315,0.2,2.5,72,0.00,,---,0.00,VWS V14.01,2013-03-17 22:25:00,
2013-03-17 18:26:00,48.6,40.0,29.76,North,0,1.1,3.1,72,0.00,,---,0.00,VWS V14.01,2013-03-17 22:26:00,
2013-03-17 18:27:00,48.6,40.0,29.76,ESE,112,0.0,2.7,72,0.00,,---,0.00,VWS V14.01,2013-03-17 22:27:00,
2013-03-17 18:28:00,48.6,40.0,29.76,NE,45,0.2,2.2,72,0.00,,---,0.00,VWS V14.01,2013-03-17 22:28:00,
2013-03-17 18:29:00,48.6,40.0,29.76,NNE,22,0.5,2.7,72,0.00,,---,0.00,VWS V14.01,2013-03-17 22:29:00,
2013-03-17 18:30:00,48.6,40.0,29.76,NW,315,0.2,2.5,72,0.00,,---,0.00,VWS V14.01,2013-03-17 22:30:00,
2013-03-17 18:31:00,48.2,39.6,29.76,NE,45,1.1,1.1,72,0.00,,---,0.00,VWS V14.01,2013-03-17 22:31:00,
2013-03-17 18:32:00,48.2,39.6,29.76,NNE,22,1.1,0.0,72,0.00,,---,0.00,VWS V14.01,2013-03-17 22:32:00,
2013-03-17 18:33:00,48.2,39.6,29.76,North,0,1.1,0.0,72,0.00,,---,0.00,VWS V14.01,2013-03-17 22:33:00,
2013-03-17 18:34:00,48.2,39.6,29.76,ESE,112,0.0,2.0,72,0.00,,---,0.00,VWS V14.01,2013-03-17 22:34:00,
2013-03-17 18:35:00,48.2,39.6,29.76,NE,45,1.1,3.1,72,0.00,,---,0.00,VWS V14.01,2013-03-17 22:35:00,
2013-03-17 18:36:00,48.2,39.6,29.76,NE,45,1.1,1.1,72,0.00,,---,0.00,VWS V14.01,2013-03-17 22:36:00,
2013-03-17 18:37:00,48.2,40.0,29.76,NNW,338,0.0,2.9,73,0.00,,---,0.00,VWS V14.01,2013-03-17 22:37:00,
2013-03-17 18:38:00,48.2,39.6,29.76,East,90,0.0,2.0,72,0.00,,---,0.00,VWS V14.01,2013-03-17 22:38:00,
2013-03-17 18:39:00,48.0,39.8,29.76,East,90,0.0,1.6,73,0.00,,---,0.00,VWS V14.01,2013-03-17 22:39:00,
2013-03-17 18:40:00,48.2,39.6,29.76,East,90,0.0,2.0,72,0.00,,---,0.00,VWS V14.01,2013-03-17 22:40:00,
2013-03-17 18:41:00,48.0,40.1,29.76,East,90,0.5,4.0,74,0.00,,---,0.00,VWS V14.01,2013-03-17 22:41:00,
2013-03-17 18:42:00,48.2,40.0,29.76,NNW,338,0.0,2.9,73,0.00,,---,0.00,VWS V14.01,2013-03-17 22:42:00,
2013-03-17 18:43:00,48.0,40.1,29.76,SSE,158,0.5,2.5,74,0.00,,---,0.00,VWS V14.01,2013-03-17 22:43:00,
2013-03-17 18:44:00,47.8,40.0,29.76,SE,135,0.2,2.7,74,0.00,,---,0.00,VWS V14.01,2013-03-17 22:44:00,
2013-03-17 18:45:00,48.0,39.8,29.76,West,270,0.7,3.1,73,0.00,,---,0.00,VWS V14.01,2013-03-17 22:45:00,
2013-03-17 18:46:00,48.0,40.1,29.76,East,90,0.5,4.0,74,0.00,,---,0.00,VWS V14.01,2013-03-17 22:46:00,
2013-03-17 18:47:00,47.8,39.6,29.76,SSE,158,0.2,1.6,73,0.00,,---,0.00,VWS V14.01,2013-03-17 22:47:00,
2013-03-17 18:48:00,48.0,40.1,29.76,SSE,158,0.5,2.5,74,0.00,,---,0.00,VWS V14.01,2013-03-17 22:48:00,
2013-03-17 18:49:00,47.7,39.4,29.76,East,90,0.7,2.7,73,0.00,,---,0.00,VWS V14.01,2013-03-17 22:49:00,
2013-03-17 18:50:00,47.8,40.0,29.76,NNW,338,0.2,2.2,74,0.00,,---,0.00,VWS V14.01,2013-03-17 22:50:00,
2013-03-17 18:51:00,47.8,39.6,29.76,SE,135,0.2,2.5,73,0.00,,---,0.00,VWS V14.01,2013-03-17 22:51:00,
2013-03-17 18:52:00,47.7,39.8,29.76,NNE,22,1.1,3.1,74,0.00,,---,0.00,VWS V14.01,2013-03-17 22:52:00,
2013-03-17 18:53:00,47.7,39.8,29.76,ESE,112,0.0,2.0,74,0.00,,---,0.00,VWS V14.01,2013-03-17 22:53:00,
2013-03-17 18:54:00,47.7,39.4,29.76,East,90,0.7,2.7,73,0.00,,---,0.00,VWS V14.01,2013-03-17 22:54:00,
2013-03-17 18:55:00,47.7,39.8,29.76,East,90,0.2,2.9,74,0.00,,---,0.00,VWS V14.01,2013-03-17 22:55:00,
2013-03-17 18:56:00,47.5,39.6,29.76,ESE,112,0.0,2.9,74,0.00,,---,0.00,VWS V14.01,2013-03-17 22:56:00,
2013-03-17 18:57:00,47.5,39.6,29.76,WSW,248,0.0,2.2,74,0.00,,---,0.00,VWS V14.01,2013-03-17 22:57:00,
2013-03-17 18:58:00,47.3,39.5,29.76,ESE,112,0.0,2.0,74,0.00,,---,0.00,VWS V14.01,2013-03-17 22:58:00,
2013-03-17 18:59:00,47.3,39.5,29.76,ENE,68,0.0,2.5,74,0.00,,---,0.00,VWS V14.01,2013-03-17 22:59:00,
2013-03-17 19:00:00,47.5,39.6,29.76,WNW,292,0.0,1.6,74,0.00,,---,0.00,VWS V14.01,2013-03-17 23:00:00,
2013-03-17 19:01:00,47.5,39.6,29.76,ESE,112,0.0,2.9,74,0.00,,---,0.00,VWS V14.01,2013-03-17 23:01:00,
2013-03-17 19:02:00,47.5,39.6,29.76,WSW,248,0.0,2.2,74,0.00,,---,0.00,VWS V14.01,2013-03-17 23:02:00,
2013-03-17 19:03:00,47.3,39.5,29.76,East,90,0.2,2.2,74,0.00,,---,0.00,VWS V14.01,2013-03-17 23:03:00,
2013-03-17 19:04:00,47.3,39.4,29.76,ENE,68,0.0,2.5,74,0.00,,---,0.00,VWS V14.01,2013-03-17 23:04:00,
2013-03-17 19:05:00,47.1,39.3,29.76,NNE,22,0.2,2.9,74,0.00,,---,0.00,VWS V14.01,2013-03-17 23:05:00,
2013-03-17 19:06:00,47.3,39.1,29.76,NNE,22,0.0,0.0,73,0.00,,---,0.00,VWS V14.01,2013-03-17 23:06:00,
2013-03-17 19:07:00,47.1,39.6,29.76,ENE,68,0.2,3.1,75,0.00,,---,0.00,VWS V14.01,2013-03-17 23:07:00,
2013-03-17 19:08:00,47.3,39.4,29.76,East,90,0.2,2.2,74,0.00,,---,0.00,VWS V14.01,2013-03-17 23:08:00,
2013-03-17 19:09:00,47.3,39.4,29.76,ENE,68,0.7,2.7,74,0.00,,---,0.00,VWS V14.01,2013-03-17 23:09:00,
2013-03-17 19:10:00,47.1,39.6,29.76,East,90,0.0,3.4,75,0.00,,---,0.00,VWS V14.01,2013-03-17 23:10:00,
2013-03-17 19:11:00,47.1,39.6,29.76,NNE,22,1.1,3.1,75,0.00,,---,0.00,VWS V14.01,2013-03-17 23:11:00,
2013-03-17 19:12:00,46.9,39.1,29.76,SE,135,0.9,1.6,74,0.00,,---,0.00,VWS V14.01,2013-03-17 23:12:00,
2013-03-17 19:13:00,47.1,39.6,29.76,NE,45,0.0,2.5,75,0.00,,---,0.00,VWS V14.01,2013-03-17 23:13:00,
2013-03-17 19:14:00,46.9,39.4,29.76,ESE,112,0.9,1.6,75,0.00,,---,0.00,VWS V14.01,2013-03-17 23:14:00,
2013-03-17 19:15:00,47.1,39.6,29.76,East,90,0.0,3.4,75,0.00,,---,0.00,VWS V14.01,2013-03-17 23:15:00,
2013-03-17 19:16:00,47.1,39.6,29.76,East,90,0.9,2.9,75,0.00,,---,0.00,VWS V14.01,2013-03-17 23:16:00,
2013-03-17 19:17:00,46.8,39.3,29.76,East,90,0.0,1.6,75,0.00,,---,0.00,VWS V14.01,2013-03-17 23:17:00,
2013-03-17 19:18:00,46.8,39.3,29.76,South,180,0.2,2.2,75,0.00,,---,0.00,VWS V14.01,2013-03-17 23:18:00,
2013-03-17 19:19:00,46.9,39.4,29.76,NE,45,2.0,4.0,75,0.00,,---,0.00,VWS V14.01,2013-03-17 23:19:00,
2013-03-17 19:20:00,46.9,39.4,29.76,ESE,112,0.9,4.0,75,0.00,,---,0.00,VWS V14.01,2013-03-17 23:20:00,
2013-03-17 19:21:00,46.9,39.4,29.76,East,90,0.0,2.0,75,0.00,,---,0.00,VWS V14.01,2013-03-17 23:21:00,
2013-03-17 19:22:00,46.8,39.3,29.76,ESE,112,0.7,1.1,75,0.00,,---,0.00,VWS V14.01,2013-03-17 23:22:00,
2013-03-17 19:23:00,46.8,39.3,29.76,South,180,0.2,2.2,75,0.00,,---,0.00,VWS V14.01,2013-03-17 23:23:00,
2013-03-17 19:24:00,46.8,39.3,29.76,NW,315,0.7,0.9,75,0.00,,---,0.00,VWS V14.01,2013-03-17 23:24:00,
2013-03-17 19:25:00,46.6,39.4,29.76,NE,45,0.2,2.5,76,0.00,,---,0.00,VWS V14.01,2013-03-17 23:25:00,
2013-03-17 19:26:00,46.8,39.3,29.76,ESE,112,0.7,3.4,75,0.00,,---,0.00,VWS V14.01,2013-03-17 23:26:00,
2013-03-17 19:27:00,46.8,39.3,29.76,ESE,112,0.7,1.1,75,0.00,,---,0.00,VWS V14.01,2013-03-17 23:27:00,
2013-03-17 19:28:00,46.6,39.1,29.76,North,0,0.9,2.9,75,0.00,,---,0.00,VWS V14.01,2013-03-17 23:28:00,
2013-03-17 19:29:00,46.8,39.3,29.76,NW,315,0.7,0.9,75,0.00,,---,0.00,VWS V14.01,2013-03-17 23:29:00,
2013-03-17 19:30:00,46.6,39.4,29.76,NE,45,0.2,2.5,76,0.00,,---,0.00,VWS V14.01,2013-03-17 23:30:00,
2013-03-17 19:31:00,46.6,39.1,29.76,NNE,22,0.2,1.6,75,0.00,,---,0.00,VWS V14.01,2013-03-17 23:31:00,
2013-03-17 19:32:00,46.6,39.1,29.76,ESE,112,0.7,2.7,75,0.00,,---,0.00,VWS V14.01,2013-03-17 23:32:00,
2013-03-17 19:33:00,46.4,39.3,29.76,ENE,68,1.6,5.6,76,0.00,,---,0.00,VWS V14.01,2013-03-17 23:33:00,
2013-03-17 19:34:00,46.6,39.1,29.76,NNW,338,0.5,2.5,75,0.00,,---,0.00,VWS V14.01,2013-03-17 23:34:00,
2013-03-17 19:35:00,46.6,39.4,29.76,NE,45,0.0,3.8,76,0.00,,---,0.00,VWS V14.01,2013-03-17 23:35:00,
2013-03-17 19:36:00,46.6,39.4,29.76,NNW,338,0.7,3.8,76,0.00,,---,0.00,VWS V14.01,2013-03-17 23:36:00,
2013-03-17 19:37:00,46.4,39.3,29.76,North,0,0.9,2.9,76,0.00,,---,0.00,VWS V14.01,2013-03-17 23:37:00,
2013-03-17 19:38:00,46.4,39.3,29.76,NNW,338,0.0,3.6,76,0.00,,---,0.00,VWS V14.01,2013-03-17 23:38:00,
2013-03-17 19:39:00,46.4,39.3,29.76,NW,315,0.0,2.9,76,0.00,,---,0.00,VWS V14.01,2013-03-17 23:39:00,
2013-03-17 19:40:00,46.4,39.3,29.76,NNE,22,2.0,4.0,76,0.00,,---,0.00,VWS V14.01,2013-03-17 23:40:00,
2013-03-17 19:41:00,46.4,39.3,29.76,East,90,0.0,1.6,76,0.00,,---,0.00,VWS V14.01,2013-03-17 23:41:00,
2013-03-17 19:42:00,46.4,39.3,29.76,North,0,0.9,2.9,76,0.00,,---,0.00,VWS V14.01,2013-03-17 23:42:00,
2013-03-17 19:43:00,46.2,39.1,29.76,East,90,0.0,2.9,76,0.00,,---,0.00,VWS V14.01,2013-03-17 23:43:00,
2013-03-17 19:44:00,46.4,39.3,29.76,NW,315,0.0,2.9,76,0.00,,---,0.00,VWS V14.01,2013-03-17 23:44:00,
2013-03-17 19:45:00,46.4,39.3,29.76,North,0,0.0,2.2,76,0.00,,---,0.00,VWS V14.01,2013-03-17 23:45:00,
2013-03-17 19:46:00,46.4,39.3,29.76,East,90,0.0,1.6,76,0.00,,---,0.00,VWS V14.01,2013-03-17 23:46:00,
2013-03-17 19:47:00,46.2,39.4,29.76,NNW,338,0.2,2.9,77,0.00,,---,0.00,VWS V14.01,2013-03-17 23:47:00,
2013-03-17 19:48:00,46.2,39.4,29.76,NE,45,0.2,2.2,77,0.00,,---,0.00,VWS V14.01,2013-03-17 23:48:00,
2013-03-17 19:49:00,46.2,39.1,29.76,East,90,0.5,2.5,76,0.00,,---,0.00,VWS V14.01,2013-03-17 23:49:00,
2013-03-17 19:50:00,46.2,39.4,29.76,NE,45,0.5,2.5,77,0.00,,---,0.00,VWS V14.01,2013-03-17 23:50:00,
2013-03-17 19:51:00,46.2,39.1,29.76,ENE,68,0.2,2.5,76,0.00,,---,0.00,VWS V14.01,2013-03-17 23:51:00,
2013-03-17 19:52:00,46.2,39.1,29.76,NNW,338,0.5,0.0,76,0.00,,---,0.00,VWS V14.01,2013-03-17 23:52:00,
2013-03-17 19:53:00,46.2,39.4,29.76,NNW,338,2.3,4.3,77,0.00,,---,0.00,VWS V14.01,2013-03-17 23:53:00,
2013-03-17 19:54:00,46.2,39.4,29.76,East,90,0.2,2.2,77,0.00,,---,0.00,VWS V14.01,2013-03-17 23:54:00,
2013-03-17 19:55:00,46.0,39.2,29.76,NNW,338,0.9,4.9,77,0.00,,---,0.00,VWS V14.01,2013-03-17 23:55:00,
2013-03-17 19:56:00,46.0,39.2,29.76,ENE,68,0.7,2.9,77,0.00,,---,0.00,VWS V14.01,2013-03-17 23:56:00,
2013-03-17 19:57:00,46.2,39.1,29.76,NNW,338,0.5,0.0,76,0.00,,---,0.00,VWS V14.01,2013-03-17 23:57:00,
2013-03-17 19:58:00,46.2,39.4,29.76,NNW,338,2.3,4.3,77,0.00,,---,0.00,VWS V14.01,2013-03-17 23:58:00,
2013-03-17 19:59:00,46.0,39.2,29.76,NE,45,1.4,4.7,77,0.00,,---,0.00,VWS V14.01,2013-03-17 23:59:00,
2013-03-17 20:00:00,46.0,39.2,29.76,NNW,338,0.9,4.9,77,0.00,,---,0.00,VWS V14.01,2013-03-18 00:00:00,
2013-03-17 20:01:00,46.0,39.2,29.76,ENE,68,0.7,2.9,77,0.00,,---,0.00,VWS V14.01,2013-03-18 00:01:00,
2013-03-17 20:02:00,46.0,39.2,29.76,NE,45,0.0,2.7,77,0.00,,---,0.00,VWS V14.01,2013-03-18 00:02:00,
2013-03-17 20:03:00,45.9,39.1,29.76,NE,45,0.7,2.7,77,0.00,,---,0.00,VWS V14.01,2013-03-18 00:03:00,
2013-03-17 20:04:00,45.9,39.1,29.76,NNW,338,0.7,4.7,77,0.00,,---,0.00,VWS V14.01,2013-03-18 00:04:00,
2013-03-17 20:05:00,45.7,38.9,29.76,NNW,338,1.4,3.4,77,0.00,,---,0.00,VWS V14.01,2013-03-18 00:05:00,
2013-03-17 20:06:00,45.9,39.1,29.76,North,0,0.0,3.1,77,0.00,,---,0.00,VWS V14.01,2013-03-18 00:06:00,
2013-03-17 20:08:00,45.9,39.1,29.76,NE,45,0.7,2.7,77,0.00,,---,0.00,VWS V14.01,2013-03-18 00:08:00,
2013-03-17 20:09:00,45.7,38.9,29.76,NNE,22,0.7,2.7,77,0.00,,---,0.00,VWS V14.01,2013-03-18 00:09:00,
2013-03-17 20:10:00,45.7,38.9,29.76,NNW,338,1.4,3.4,77,0.00,,---,0.00,VWS V14.01,2013-03-18 00:10:00,
2013-03-17 20:11:00,45.5,39.0,29.79,NNE,22,1.1,3.1,78,0.00,,---,0.00,VWS V14.01,2013-03-18 00:11:00,
2013-03-17 20:12:00,45.7,38.9,29.76,NNE,22,0.2,2.2,77,0.00,,---,0.00,VWS V14.01,2013-03-18 00:12:00,
2013-03-17 20:13:00,45.5,38.7,29.76,NE,45,0.2,2.2,77,0.00,,---,0.00,VWS V14.01,2013-03-18 00:13:00,
2013-03-17 20:14:00,45.5,38.7,29.76,West,270,0.2,1.1,77,0.00,,---,0.00,VWS V14.01,2013-03-18 00:14:00,
2013-03-17 20:15:00,45.5,39.0,29.80,NNE,22,1.1,3.1,78,0.00,,---,0.00,VWS V14.01,2013-03-18 00:15:00,
2013-03-17 20:16:00,45.5,39.0,29.79,NNE,22,0.5,2.5,78,0.00,,---,0.00,VWS V14.01,2013-03-18 00:16:00,
2013-03-17 20:17:00,45.5,39.0,29.79,NE,45,4.3,6.3,78,0.00,,---,0.00,VWS V14.01,2013-03-18 00:17:00,
2013-03-17 20:18:00,45.5,39.0,29.80,ESE,112,0.2,2.2,78,0.00,,---,0.00,VWS V14.01,2013-03-18 00:18:00,
2013-03-17 20:19:00,45.3,38.9,29.79,NNW,338,0.0,2.9,78,0.00,,---,0.00,VWS V14.01,2013-03-18 00:19:00,
2013-03-17 20:20:00,45.5,39.0,29.80,NNE,22,0.5,4.3,78,0.00,,---,0.00,VWS V14.01,2013-03-18 00:20:00,
2013-03-17 20:21:00,45.5,39.0,29.80,NNE,22,0.5,2.5,78,0.00,,---,0.00,VWS V14.01,2013-03-18 00:21:00,
2013-03-17 20:22:00,45.5,39.0,29.80,NE,45,4.3,6.3,78,0.00,,---,0.00,VWS V14.01,2013-03-18 00:22:00,
2013-03-17 20:23:00,45.3,38.9,29.79,NNW,338,0.5,3.4,78,0.00,,---,0.00,VWS V14.01,2013-03-18 00:23:00,
2013-03-17 20:24:00,45.3,38.9,29.79,East,90,1.4,3.8,78,0.00,,---,0.00,VWS V14.01,2013-03-18 00:24:00,
2013-03-17 20:25:00,45.1,38.7,29.82,NE,45,0.5,3.4,78,0.00,,---,0.00,VWS V14.01,2013-03-18 00:25:00,
2013-03-17 20:26:00,45.3,38.9,29.80,NW,315,0.0,2.0,78,0.00,,---,0.00,VWS V14.01,2013-03-18 00:26:00,
2013-03-17 20:27:00,45.1,38.7,29.82,SSE,158,0.0,1.6,78,0.00,,---,0.00,VWS V14.01,2013-03-18 00:27:00,
2013-03-17 20:28:00,45.3,38.9,29.80,NNW,338,0.5,3.4,78,0.00,,---,0.00,VWS V14.01,2013-03-18 00:28:00,
2013-03-17 20:29:00,45.1,38.7,29.82,NW,315,0.0,2.5,78,0.00,,---,0.00,VWS V14.01,2013-03-18 00:29:00,
2013-03-17 20:30:00,45.1,38.7,29.82,NE,45,0.5,3.4,78,0.00,,---,0.00,VWS V14.01,2013-03-18 00:30:00,
2013-03-17 20:31:00,45.1,38.7,29.82,NNE,22,0.0,3.1,78,0.00,,---,0.00,VWS V14.01,2013-03-18 00:31:00,
2013-03-17 20:32:00,45.1,38.7,29.82,SSE,158,0.0,1.6,78,0.00,,---,0.00,VWS V14.01,2013-03-18 00:32:00,
2013-03-17 20:33:00,45.1,38.7,29.82,NW,315,0.0,2.5,78,0.00,,---,0.00,VWS V14.01,2013-03-18 00:33:00,
2013-03-17 20:34:00,45.1,38.7,29.82,NE,45,0.0,2.9,78,0.00,,---,0.00,VWS V14.01,2013-03-18 00:34:00,
2013-03-17 20:35:00,45.1,38.4,29.82,NNE,22,0.0,1.3,77,0.00,,---,0.00,VWS V14.01,2013-03-18 00:35:00,
2013-03-17 20:36:00,45.0,38.5,29.82,NNE,22,0.0,1.6,78,0.00,,---,0.00,VWS V14.01,2013-03-18 00:36:00,
2013-03-17 20:37:00,45.0,38.5,29.82,East,90,0.0,1.6,78,0.00,,---,0.00,VWS V14.01,2013-03-18 00:37:00,
2013-03-17 20:38:00,45.1,38.4,29.82,SE,135,0.0,0.0,77,0.00,,---,0.00,VWS V14.01,2013-03-18 00:38:00,
2013-03-17 20:39:00,45.1,38.7,29.82,NE,45,0.0,2.9,78,0.00,,---,0.00,VWS V14.01,2013-03-18 00:39:00,
2013-03-17 20:40:00,45.0,38.5,29.82,ESE,112,0.0,1.1,78,0.00,,---,0.00,VWS V14.01,2013-03-18 00:40:00,
2013-03-17 20:41:00,45.0,38.5,29.82,NNE,22,0.0,1.6,78,0.00,,---,0.00,VWS V14.01,2013-03-18 00:41:00,
2013-03-17 20:42:00,44.8,38.3,29.82,ESE,112,0.7,2.7,78,0.00,,---,0.00,VWS V14.01,2013-03-18 00:42:00,
2013-03-17 20:43:00,44.8,38.3,29.82,East,90,0.7,1.6,78,0.00,,---,0.00,VWS V14.01,2013-03-18 00:43:00,
2013-03-17 20:44:00,45.0,38.5,29.82,SSE,158,0.0,2.0,78,0.00,,---,0.00,VWS V14.01,2013-03-18 00:44:00,
2013-03-17 20:45:00,44.8,38.3,29.82,SW,225,0.7,2.7,78,0.00,,---,0.00,VWS V14.01,2013-03-18 00:45:00,
2013-03-17 20:46:00,45.0,38.5,29.82,ESE,112,0.7,2.7,78,0.00,,---,0.00,VWS V14.01,2013-03-18 00:46:00,
2013-03-17 20:47:00,44.8,38.3,29.82,ESE,112,0.7,2.7,78,0.00,,---,0.00,VWS V14.01,2013-03-18 00:47:00,
2013-03-17 20:48:00,44.8,38.3,29.82,East,90,0.7,1.6,78,0.00,,---,0.00,VWS V14.01,2013-03-18 00:48:00,
2013-03-17 20:49:00,44.6,38.2,29.82,SE,135,0.0,0.0,78,0.00,,---,0.00,VWS V14.01,2013-03-18 00:49:00,
2013-03-17 20:50:00,44.6,38.2,29.82,ESE,112,0.0,0.0,78,0.00,,---,0.00,VWS V14.01,2013-03-18 00:50:00,
2013-03-17 20:51:00,44.6,38.2,29.82,ESE,112,0.0,0.0,78,0.00,,---,0.00,VWS V14.01,2013-03-18 00:51:00,
2013-03-17 20:52:00,44.8,38.7,29.82,NE,45,0.0,2.0,79,0.00,,---,0.00,VWS V14.01,2013-03-18 00:52:00,
2013-03-17 20:53:00,44.8,38.7,29.82,NE,45,0.0,0.0,79,0.00,,---,0.00,VWS V14.01,2013-03-18 00:53:00,
2013-03-17 20:54:00,44.6,38.2,29.82,SE,135,0.0,0.0,78,0.00,,---,0.00,VWS V14.01,2013-03-18 00:54:00,
2013-03-17 20:55:00,44.6,38.5,29.82,NNE,22,0.0,0.0,79,0.00,,---,0.00,VWS V14.01,2013-03-18 00:55:00,
2013-03-17 20:56:00,44.6,38.2,29.82,East,90,0.0,2.0,78,0.00,,---,0.00,VWS V14.01,2013-03-18 00:56:00,
2013-03-17 20:57:00,44.6,38.2,29.82,ESE,112,0.0,0.0,78,0.00,,---,0.00,VWS V14.01,2013-03-18 00:57:00,
2013-03-17 20:58:00,44.6,38.5,29.82,SW,225,0.5,2.5,79,0.00,,---,0.00,VWS V14.01,2013-03-18 00:58:00,
2013-03-17 20:59:00,44.6,38.2,29.82,ESE,112,0.0,2.0,78,0.00,,---,0.00,VWS V14.01,2013-03-18 00:59:00,
2013-03-17 21:00:00,44.6,38.5,29.82,NNE,22,0.0,0.0,79,0.00,,---,0.00,VWS V14.01,2013-03-18 01:00:00,
2013-03-17 21:01:00,44.6,38.2,29.82,East,90,0.0,1.6,78,0.00,,---,0.00,VWS V14.01,2013-03-18 01:01:00,
2013-03-17 21:02:00,44.6,38.2,29.82,East,90,0.0,2.0,78,0.00,,---,0.00,VWS V14.01,2013-03-18 01:02:00,
2013-03-17 21:04:00,44.4,38.3,29.82,SSE,158,0.0,1.1,79,0.00,,---,0.00,VWS V14.01,2013-03-18 01:04:00,
2013-03-17 21:05:00,44.4,38.3,29.82,East,90,0.0,1.3,79,0.00,,---,0.00,VWS V14.01,2013-03-18 01:05:00,
2013-03-17 21:06:00,44.6,38.2,29.82,East,90,0.0,1.6,78,0.00,,---,0.00,VWS V14.01,2013-03-18 01:06:00,
2013-03-17 21:07:00,44.2,38.2,29.82,NE,45,0.5,3.8,79,0.00,,---,0.00,VWS V14.01,2013-03-18 01:07:00,
2013-03-17 21:08:00,44.4,38.3,29.82,ESE,112,0.0,2.0,79,0.00,,---,0.00,VWS V14.01,2013-03-18 01:08:00,
2013-03-17 21:09:00,44.2,38.2,29.82,North,0,0.5,0.0,79,0.00,,---,0.00,VWS V14.01,2013-03-18 01:09:00,
2013-03-17 21:10:00,44.4,38.3,29.82,East,90,0.0,1.3,79,0.00,,---,0.00,VWS V14.01,2013-03-18 01:10:00,
2013-03-17 21:11:00,44.4,38.3,29.82,NNW,338,1.8,3.8,79,0.00,,---,0.00,VWS V14.01,2013-03-18 01:11:00,
2013-03-17 21:12:00,44.2,38.2,29.82,NE,45,0.5,3.8,79,0.00,,---,0.00,VWS V14.01,2013-03-18 01:12:00,
2013-03-17 21:13:00,44.2,38.2,29.82,NE,45,0.5,0.0,79,0.00,,---,0.00,VWS V14.01,2013-03-18 01:13:00,
2013-03-17 21:14:00,44.2,38.5,29.79,ENE,68,0.9,6.3,80,0.00,,---,0.00,VWS V14.01,2013-03-18 01:14:00,
2013-03-17 21:15:00,44.2,38.5,29.79,ESE,112,0.9,1.6,80,0.00,,---,0.00,VWS V14.01,2013-03-18 01:15:00,
2013-03-17 21:16:00,44.2,38.2,29.80,ESE,112,0.9,3.4,79,0.00,,---,0.00,VWS V14.01,2013-03-18 01:16:00,
2013-03-17 21:17:00,44.2,38.5,29.80,NNE,22,0.5,4.0,80,0.00,,---,0.00,VWS V14.01,2013-03-18 01:17:00,
2013-03-17 21:18:00,44.2,38.5,29.79,NNE,22,0.0,2.0,80,0.00,,---,0.00,VWS V14.01,2013-03-18 01:18:00,
2013-03-17 21:19:00,44.2,38.5,29.80,ENE,68,0.9,6.3,80,0.00,,---,0.00,VWS V14.01,2013-03-18 01:19:00,
2013-03-17 21:20:00,44.1,38.3,29.79,ESE,112,0.0,1.3,80,0.00,,---,0.00,VWS V14.01,2013-03-18 01:20:00,
2013-03-17 21:21:00,44.2,38.5,29.80,North,0,0.9,1.1,80,0.00,,---,0.00,VWS V14.01,2013-03-18 01:21:00,
2013-03-17 21:22:00,44.1,38.6,29.79,ENE,68,0.0,4.7,81,0.00,,---,0.00,VWS V14.01,2013-03-18 01:22:00,
2013-03-17 21:23:00,44.2,38.5,29.80,NNE,22,0.0,2.0,80,0.00,,---,0.00,VWS V14.01,2013-03-18 01:23:00,
2013-03-17 21:24:00,44.1,38.6,29.79,NE,45,0.0,2.0,81,0.00,,---,0.00,VWS V14.01,2013-03-18 01:24:00,
2013-03-17 21:25:00,44.1,38.3,29.80,ESE,112,0.0,1.3,80,0.00,,---,0.00,VWS V14.01,2013-03-18 01:25:00,
2013-03-17 21:26:00,44.1,38.3,29.80,NNW,338,2.7,4.7,80,0.00,,---,0.00,VWS V14.01,2013-03-18 01:26:00,
2013-03-17 21:27:00,44.1,38.3,29.82,NE,45,0.7,2.7,80,0.00,,---,0.00,VWS V14.01,2013-03-18 01:27:00,
2013-03-17 21:28:00,44.1,38.3,29.80,NNW,338,0.0,1.3,80,0.00,,---,0.00,VWS V14.01,2013-03-18 01:28:00,
2013-03-17 21:29:00,44.1,38.3,29.82,North,0,0.0,2.0,80,0.00,,---,0.00,VWS V14.01,2013-03-18 01:29:00,
2013-03-17 21:30:00,44.1,38.6,29.82,ENE,68,0.2,2.5,81,0.00,,---,0.00,VWS V14.01,2013-03-18 01:30:00,
2013-03-17 21:31:00,43.9,38.1,29.82,North,0,0.0,1.3,80,0.00,,---,0.00,VWS V14.01,2013-03-18 01:31:00,
2013-03-17 21:32:00,43.9,38.4,29.82,NNE,22,0.2,2.7,81,0.00,,---,0.00,VWS V14.01,2013-03-18 01:32:00,
2013-03-17 21:33:00,44.1,38.3,29.82,NNW,338,0.7,1.1,80,0.00,,---,0.00,VWS V14.01,2013-03-18 01:33:00,
2013-03-17 21:34:00,43.9,38.4,29.82,ENE,68,1.6,3.6,81,0.00,,---,0.00,VWS V14.01,2013-03-18 01:34:00,
2013-03-17 21:35:00,43.9,38.1,29.82,NNW,338,0.0,2.0,80,0.00,,---,0.00,VWS V14.01,2013-03-18 01:35:00,
2013-03-17 21:36:00,43.9,38.4,29.82,NNW,338,0.2,2.2,81,0.00,,---,0.00,VWS V14.01,2013-03-18 01:36:00,
2013-03-17 21:37:00,43.9,38.4,29.82,NNE,22,0.2,2.7,81,0.00,,---,0.00,VWS V14.01,2013-03-18 01:37:00,
2013-03-17 21:38:00,43.7,38.3,29.82,SE,135,0.7,3.4,81,0.00,,---,69.36,VWS V14.01,2013-03-18 01:38:00,
2013-03-17 21:39:00,43.9,38.4,29.82,ENE,68,1.6,3.6,81,0.00,,---,0.00,VWS V14.01,2013-03-18 01:39:00,
2013-03-17 21:40:00,43.7,38.3,29.82,East,90,0.5,2.7,81,0.00,,---,69.36,VWS V14.01,2013-03-18 01:40:00,
2013-03-17 21:41:00,43.7,38.3,29.82,WNW,292,0.2,2.2,81,0.00,,---,69.36,VWS V14.01,2013-03-18 01:41:00,
2013-03-17 21:42:00,43.7,38.3,29.82,NNW,338,1.4,3.4,81,0.00,,---,69.36,VWS V14.01,2013-03-18 01:42:00,
2013-03-17 21:43:00,43.7,38.3,29.82,ESE,112,0.2,3.6,81,0.00,,---,69.36,VWS V14.01,2013-03-18 01:43:00,
2013-03-17 21:44:00,43.7,38.3,29.82,East,90,0.5,2.7,81,0.00,,---,69.36,VWS V14.01,2013-03-18 01:44:00,
2013-03-17 21:45:00,43.7,38.3,29.82,ESE,112,0.5,1.3,81,0.00,,---,69.36,VWS V14.01,2013-03-18 01:45:00,
2013-03-17 21:46:00,43.7,38.3,29.82,WNW,292,0.2,2.2,81,0.00,,---,69.36,VWS V14.01,2013-03-18 01:46:00,
2013-03-17 21:47:00,43.7,38.3,29.82,NE,45,1.6,3.6,81,0.00,,---,69.36,VWS V14.01,2013-03-18 01:47:00,
2013-03-17 21:48:00,43.5,38.4,29.82,NW,315,0.0,2.5,82,0.00,,---,69.36,VWS V14.01,2013-03-18 01:48:00,
2013-03-17 21:49:00,43.7,38.3,29.82,East,90,0.2,1.6,81,0.00,,---,69.36,VWS V14.01,2013-03-18 01:49:00,
2013-03-17 21:50:00,43.7,38.3,29.82,NW,315,0.0,2.0,81,0.00,,---,69.36,VWS V14.01,2013-03-18 01:50:00,
2013-03-17 21:51:00,43.5,38.4,29.82,NNW,338,0.2,2.9,82,0.00,,---,69.36,VWS V14.01,2013-03-18 01:51:00,
2013-03-17 21:52:00,43.7,38.3,29.82,NNE,22,0.0,3.4,81,0.00,,---,69.36,VWS V14.01,2013-03-18 01:52:00,
2013-03-17 21:53:00,43.3,38.2,29.82,ESE,112,0.0,2.0,82,0.00,,---,69.36,VWS V14.01,2013-03-18 01:53:00,
2013-03-17 21:54:00,43.5,38.4,29.82,East,90,0.5,2.5,82,0.00,,---,69.36,VWS V14.01,2013-03-18 01:54:00,
2013-03-17 21:55:00,43.3,38.2,29.82,East,90,0.0,0.0,82,0.00,,---,69.36,VWS V14.01,2013-03-18 01:55:00,
2013-03-17 21:56:00,43.5,38.4,29.82,NNW,338,0.2,2.9,82,0.00,,---,69.36,VWS V14.01,2013-03-18 01:56:00,
2013-03-17 21:57:00,43.3,38.2,29.82,NNE,22,0.7,3.1,82,0.00,,---,69.36,VWS V14.01,2013-03-18 01:57:00,
2013-03-17 21:58:00,43.3,38.2,29.82,ESE,112,0.0,2.0,82,0.00,,---,69.36,VWS V14.01,2013-03-18 01:58:00,
2013-03-17 21:59:00,43.3,38.2,29.82,ESE,112,0.0,1.1,82,0.00,,---,69.36,VWS V14.01,2013-03-18 01:59:00,
2013-03-17 22:00:00,43.3,38.2,29.82,ESE,112,1.4,3.4,82,0.00,,---,69.36,VWS V14.01,2013-03-18 02:00:00,
2013-03-17 22:02:00,43.3,38.2,29.82,NNW,338,0.7,0.0,82,0.00,,---,69.36,VWS V14.01,2013-03-18 02:02:00,
2013-03-17 22:03:00,43.3,38.2,29.82,ENE,68,0.7,1.1,82,0.00,,---,69.36,VWS V14.01,2013-03-18 02:03:00,
2013-03-17 22:04:00,43.3,38.2,29.82,NNE,22,0.2,2.2,82,0.00,,---,69.36,VWS V14.01,2013-03-18 02:04:00,
2013-03-17 22:05:00,43.3,38.2,29.82,East,90,0.2,2.2,82,0.00,,---,69.36,VWS V14.01,2013-03-18 02:05:00,
2013-03-17 22:06:00,43.3,38.2,29.82,East,90,0.7,3.6,82,0.00,,---,69.36,VWS V14.01,2013-03-18 02:06:00,
2013-03-17 22:07:00,43.3,38.2,29.82,NE,45,0.7,2.7,82,0.00,,---,69.36,VWS V14.01,2013-03-18 02:07:00,
2013-03-17 22:08:00,43.3,38.2,29.82,NE,45,0.7,0.0,82,0.00,,---,69.36,VWS V14.01,2013-03-18 02:08:00,
2013-03-17 22:09:00,43.3,38.2,29.82,East,90,0.2,3.4,82,0.00,,---,69.36,VWS V14.01,2013-03-18 02:09:00,
2013-03-17 22:10:00,43.3,38.2,29.85,ESE,112,0.7,0.0,82,0.00,,---,69.36,VWS V14.01,2013-03-18 02:10:00,
2013-03-17 22:11:00,43.3,38.2,29.82,East,90,0.2,0.0,82,0.00,,---,69.36,VWS V14.01,2013-03-18 02:11:00,
2013-03-17 22:12:00,43.3,38.2,29.85,NW,315,0.0,1.1,82,0.00,,---,69.36,VWS V14.01,2013-03-18 02:12:00,
2013-03-17 22:13:00,43.3,38.2,29.82,NE,45,0.7,0.0,82,0.00,,---,69.36,VWS V14.01,2013-03-18 02:13:00,
2013-03-17 22:14:00,43.0,37.9,29.85,WNW,292,0.0,1.3,82,0.00,,---,69.36,VWS V14.01,2013-03-18 02:14:00,
2013-03-17 22:15:00,43.3,38.2,29.85,ESE,112,0.7,0.0,82,0.00,,---,69.36,VWS V14.01,2013-03-18 02:15:00,
2013-03-17 22:16:00,43.3,38.2,29.85,ESE,112,0.0,2.0,82,0.00,,---,69.36,VWS V14.01,2013-03-18 02:16:00,
2013-03-17 22:17:00,43.3,38.2,29.85,NW,315,0.0,1.1,82,0.00,,---,69.36,VWS V14.01,2013-03-18 02:17:00,
2013-03-17 22:18:00,43.0,37.9,29.85,NNW,338,0.5,2.5,82,0.00,,---,69.36,VWS V14.01,2013-03-18 02:18:00,
2013-03-17 22:19:00,43.0,37.9,29.85,NNE,22,0.0,2.7,82,0.00,,---,69.36,VWS V14.01,2013-03-18 02:19:00,
2013-03-17 22:20:00,43.0,37.9,29.85,NNW,338,0.0,3.4,82,0.00,,---,69.36,VWS V14.01,2013-03-18 02:20:00,
2013-03-17 22:21:00,42.8,37.7,29.85,East,90,0.0,2.0,82,0.00,,---,69.36,VWS V14.01,2013-03-18 02:21:00,
2013-03-17 22:22:00,43.0,37.9,29.85,NE,45,0.7,2.7,82,0.00,,---,69.36,VWS V14.01,2013-03-18 02:22:00,
2013-03-17 22:23:00,43.0,37.9,29.85,NNW,338,0.5,2.5,82,0.00,,---,69.36,VWS V14.01,2013-03-18 02:23:00,
2013-03-17 22:24:00,42.8,37.7,29.85,NNW,338,0.2,2.2,82,0.00,,---,69.36,VWS V14.01,2013-03-18 02:24:00,
2013-03-17 22:25:00,43.0,37.9,29.85,NNW,338,0.0,3.4,82,0.00,,---,69.36,VWS V14.01,2013-03-18 02:25:00,
2013-03-17 22:26:00,42.8,38.0,29.85,ENE,68,2.3,6.3,83,0.00,,---,69.36,VWS V14.01,2013-03-18 02:26:00,
2013-03-17 22:27:00,42.8,38.0,29.85,East,90,0.0,4.3,83,0.00,,---,69.36,VWS V14.01,2013-03-18 02:27:00,
2013-03-17 22:28:00,42.8,37.7,29.85,NE,45,0.0,1.3,82,0.00,,---,69.36,VWS V14.01,2013-03-18 02:28:00,
2013-03-17 22:29:00,42.8,37.7,29.85,NNW,338,0.2,2.2,82,0.00,,---,69.36,VWS V14.01,2013-03-18 02:29:00,
2013-03-17 22:30:00,42.8,37.7,29.85,NNW,338,0.2,1.6,82,0.00,,---,69.36,VWS V14.01,2013-03-18 02:30:00,
2013-03-17 22:31:00,42.8,38.0,29.85,ENE,68,2.3,6.3,83,0.00,,---,69.36,VWS V14.01,2013-03-18 02:31:00,
2013-03-17 22:32:00,42.6,38.1,29.85,NE,45,0.7,2.7,84,0.00,,---,69.36,VWS V14.01,2013-03-18 02:32:00,
2013-03-17 22:33:00,42.6,38.1,29.85,NE,45,0.7,3.4,84,0.00,,---,69.36,VWS V14.01,2013-03-18 02:33:00,
2013-03-17 22:34:00,42.4,38.0,29.85,NE,45,0.2,2.7,84,0.00,,---,69.36,VWS V14.01,2013-03-18 02:34:00,
2013-03-17 22:35:00,42.6,37.8,29.85,NE,45,1.1,3.1,83,0.00,,---,69.36,VWS V14.01,2013-03-18 02:35:00,
2013-03-17 22:36:00,42.4,37.7,29.85,SE,135,0.2,0.0,83,0.00,,---,69.36,VWS V14.01,2013-03-18 02:36:00,
2013-03-17 22:37:00,42.4,37.7,29.85,NW,315,0.2,0.0,83,0.00,,---,69.36,VWS V14.01,2013-03-18 02:37:00,
2013-03-17 22:38:00,42.6,38.1,29.85,NE,45,0.7,3.4,84,0.00,,---,69.36,VWS V14.01,2013-03-18 02:38:00,
2013-03-17 22:39:00,42.4,38.0,29.85,NE,45,0.2,2.7,84,0.00,,---,69.36,VWS V14.01,2013-03-18 02:39:00,
2013-03-17 22:40:00,42.4,37.7,29.85,NE,45,0.2,1.1,83,0.00,,---,69.36,VWS V14.01,2013-03-18 02:40:00,
2013-03-17 22:41:00,42.3,37.8,29.88,NW,315,0.0,0.0,84,0.00,,---,69.36,VWS V14.01,2013-03-18 02:41:00,
2013-03-17 22:42:00,42.3,37.8,29.88,North,0,0.5,2.5,84,0.00,,---,69.36,VWS V14.01,2013-03-18 02:42:00,
2013-03-17 22:43:00,42.3,37.8,29.88,ESE,112,0.2,2.5,84,0.00,,---,69.36,VWS V14.01,2013-03-18 02:43:00,
2013-03-17 22:44:00,42.4,38.0,29.85,ESE,112,0.0,2.7,84,0.00,,---,69.36,VWS V14.01,2013-03-18 02:44:00,
2013-03-17 22:45:00,42.3,37.8,29.88,NW,315,0.0,0.0,84,0.00,,---,69.36,VWS V14.01,2013-03-18 02:45:00,
2013-03-17 22:46:00,42.3,37.8,29.88,NW,315,0.0,0.0,84,0.00,,---,69.36,VWS V14.01,2013-03-18 02:46:00,
2013-03-17 22:47:00,42.3,37.8,29.88,North,0,0.5,2.5,84,0.00,,---,69.36,VWS V14.01,2013-03-18 02:47:00,
2013-03-17 22:48:00,42.1,38.2,29.88,East,90,0.0,0.0,86,0.00,,---,69.36,VWS V14.01,2013-03-18 02:48:00,
2013-03-17 22:49:00,42.3,38.4,29.88,NE,45,0.7,2.7,86,0.00,,---,69.36,VWS V14.01,2013-03-18 02:49:00,
2013-03-17 22:50:00,42.1,37.9,29.88,East,90,0.7,2.9,85,0.00,,---,69.36,VWS V14.01,2013-03-18 02:50:00,
2013-03-17 22:51:00,42.1,38.2,29.88,East,90,0.0,2.5,86,0.00,,---,69.36,VWS V14.01,2013-03-18 02:51:00,
2013-03-17 22:52:00,42.1,38.2,29.88,ENE,68,0.0,1.1,86,0.00,,---,69.36,VWS V14.01,2013-03-18 02:52:00,
2013-03-17 22:53:00,42.1,38.2,29.88,East,90,0.0,0.0,86,0.00,,---,69.36,VWS V14.01,2013-03-18 02:53:00,
2013-03-17 22:54:00,42.1,37.9,29.88,East,90,0.0,0.0,85,0.00,,---,69.36,VWS V14.01,2013-03-18 02:54:00,
2013-03-17 22:55:00,41.9,38.0,29.88,East,90,0.7,0.0,86,0.00,,---,69.36,VWS V14.01,2013-03-18 02:55:00,
2013-03-17 22:56:00,41.9,38.0,29.88,NE,45,0.7,1.1,86,0.00,,---,69.36,VWS V14.01,2013-03-18 02:56:00,
2013-03-17 22:57:00,41.9,38.0,29.88,East,90,0.2,2.2,86,0.00,,---,69.36,VWS V14.01,2013-03-18 02:57:00,
2013-03-17 22:58:00,41.9,38.0,29.88,NNW,338,0.7,0.0,86,0.00,,---,69.36,VWS V14.01,2013-03-18 02:58:00,
2013-03-17 22:59:00,41.9,38.0,29.88,East,90,0.7,0.0,86,0.00,,---,69.36,VWS V14.01,2013-03-18 02:59:00,
2013-03-17 23:00:00,41.9,38.0,29.88,ENE,68,0.7,1.1,86,0.00,,---,69.36,VWS V14.01,2013-03-18 03:00:00,
2013-03-17 23:01:00,41.9,38.0,29.88,NE,45,0.7,1.1,86,0.00,,---,69.36,VWS V14.01,2013-03-18 03:01:00,
2013-03-17 23:02:00,41.7,38.1,29.88,NE,45,0.2,1.3,87,0.00,,---,69.36,VWS V14.01,2013-03-18 03:02:00,
2013-03-17 23:03:00,41.5,37.7,29.88,NW,315,0.2,0.0,86,0.00,,---,69.36,VWS V14.01,2013-03-18 03:03:00,
2013-03-17 23:04:00,41.5,38.0,29.88,NNW,338,0.0,2.7,87,0.00,,---,69.36,VWS V14.01,2013-03-18 03:04:00,
2013-03-17 23:05:00,41.7,38.1,29.88,ESE,112,0.2,1.3,87,0.00,,---,69.36,VWS V14.01,2013-03-18 03:05:00,
2013-03-17 23:06:00,41.7,38.1,29.88,NW,315,0.2,1.3,87,0.00,,---,69.36,VWS V14.01,2013-03-18 03:06:00,
2013-03-17 23:07:00,41.7,38.1,29.88,NE,45,0.2,1.3,87,0.00,,---,69.36,VWS V14.01,2013-03-18 03:07:00,
2013-03-17 23:08:00,41.5,38.0,29.88,NNW,338,0.7,0.0,87,0.00,,---,69.36,VWS V14.01,2013-03-18 03:08:00,
2013-03-17 23:09:00,41.5,38.0,29.88,NNW,338,0.7,0.0,87,0.00,,---,69.36,VWS V14.01,2013-03-18 03:09:00,
2013-03-17 23:10:00,41.5,38.0,29.88,ESE,112,0.7,0.9,87,0.00,,---,69.36,VWS V14.01,2013-03-18 03:10:00,
2013-03-17 23:11:00,41.5,38.3,29.88,ENE,68,0.7,2.7,88,0.00,,---,69.36,VWS V14.01,2013-03-18 03:11:00,
2013-03-17 23:12:00,41.5,38.0,29.88,NNW,338,1.1,3.1,87,0.00,,---,69.36,VWS V14.01,2013-03-18 03:12:00,
2013-03-17 23:13:00,41.5,38.0,29.88,NNW,338,0.7,0.0,87,0.00,,---,69.36,VWS V14.01,2013-03-18 03:13:00,
2013-03-17 23:14:00,41.4,37.8,29.88,ENE,68,0.2,2.9,87,0.00,,---,69.36,VWS V14.01,2013-03-18 03:14:00,
2013-03-17 23:15:00,41.5,38.0,29.88,ESE,112,0.7,0.9,87,0.00,,---,69.36,VWS V14.01,2013-03-18 03:15:00,
2013-03-17 23:16:00,41.5,38.0,29.88,ESE,112,0.5,2.5,87,0.00,,---,69.36,VWS V14.01,2013-03-18 03:16:00,
2013-03-17 23:17:00,41.4,37.8,29.88,ENE,68,0.2,0.0,87,0.00,,---,69.36,VWS V14.01,2013-03-18 03:17:00,
2013-03-17 23:18:00,41.5,38.0,29.88,NE,45,0.9,2.9,87,0.00,,---,69.36,VWS V14.01,2013-03-18 03:18:00,
2013-03-17 23:19:00,41.4,37.8,29.88,SSE,158,0.2,1.1,87,0.00,,---,69.36,VWS V14.01,2013-03-18 03:19:00,
2013-03-17 23:20:00,41.4,37.8,29.88,ENE,68,0.2,1.1,87,0.00,,---,69.36,VWS V14.01,2013-03-18 03:20:00,
2013-03-17 23:21:00,41.4,37.8,29.88,ENE,68,0.2,0.0,87,0.00,,---,69.36,VWS V14.01,2013-03-18 03:21:00,
2013-03-17 23:22:00,41.2,37.9,29.88,NE,45,1.1,3.1,88,0.00,,---,69.36,VWS V14.01,2013-03-18 03:22:00,
2013-03-17 23:23:00,41.2,37.9,29.88,WNW,292,1.1,3.1,88,0.00,,---,69.36,VWS V14.01,2013-03-18 03:23:00,
2013-03-17 23:24:00,41.4,37.8,29.88,SSE,158,0.2,1.1,87,0.00,,---,69.36,VWS V14.01,2013-03-18 03:24:00,
2013-03-17 23:25:00,41.2,38.2,29.88,NNE,22,1.1,0.0,89,0.00,,---,69.36,VWS V14.01,2013-03-18 03:25:00,
2013-03-17 23:26:00,41.2,37.9,29.88,NNE,22,0.0,2.0,88,0.00,,---,69.36,VWS V14.01,2013-03-18 03:26:00,
2013-03-17 23:27:00,41.2,37.9,29.88,NE,45,1.1,3.1,88,0.00,,---,69.36,VWS V14.01,2013-03-18 03:27:00,
2013-03-17 23:28:00,41.2,37.9,29.88,WNW,292,1.1,3.1,88,0.00,,---,69.36,VWS V14.01,2013-03-18 03:28:00,
2013-03-17 23:29:00,41.2,37.9,29.88,NNW,338,0.2,1.6,88,0.00,,---,69.36,VWS V14.01,2013-03-18 03:29:00,
2013-03-17 23:30:00,41.0,37.7,29.88,NNW,338,0.0,2.0,88,0.00,,---,69.36,VWS V14.01,2013-03-18 03:30:00,
2013-03-17 23:31:00,41.0,37.7,29.88,NNW,338,0.0,2.0,88,0.00,,---,69.36,VWS V14.01,2013-03-18 03:31:00,
2013-03-17 23:32:00,41.2,38.2,29.88,NE,45,0.2,3.1,89,0.00,,---,69.36,VWS V14.01,2013-03-18 03:32:00,
2013-03-17 23:33:00,41.0,37.7,29.88,ESE,112,0.0,2.0,88,0.00,,---,69.36,VWS V14.01,2013-03-18 03:33:00,
2013-03-17 23:34:00,41.2,37.9,29.88,NNW,338,0.2,1.6,88,0.00,,---,69.36,VWS V14.01,2013-03-18 03:34:00,
2013-03-17 23:35:00,41.0,38.3,29.88,NNW,338,0.0,2.0,90,0.00,,---,69.36,VWS V14.01,2013-03-18 03:35:00,
2013-03-17 23:36:00,41.0,37.7,29.88,NNW,338,0.0,2.0,88,0.00,,---,69.36,VWS V14.01,2013-03-18 03:36:00,
2013-03-17 23:37:00,41.0,38.6,29.88,NNW,338,0.0,2.5,91,0.00,,---,69.36,VWS V14.01,2013-03-18 03:37:00,
2013-03-17 23:38:00,41.0,37.7,29.88,ESE,112,0.0,2.0,88,0.00,,---,69.36,VWS V14.01,2013-03-18 03:38:00,
2013-03-17 23:39:00,41.0,38.9,29.88,NNE,22,0.9,2.9,92,0.00,,---,69.36,VWS V14.01,2013-03-18 03:39:00,
2013-03-17 23:40:00,41.0,38.3,29.88,NNW,338,0.0,2.0,90,0.00,,---,69.36,VWS V14.01,2013-03-18 03:40:00,
2013-03-17 23:41:00,41.0,38.6,29.88,NNW,338,0.0,3.4,91,0.00,,---,69.36,VWS V14.01,2013-03-18 03:41:00,
2013-03-17 23:42:00,40.8,39.0,29.88,West,270,0.7,3.4,93,0.00,,---,69.36,VWS V14.01,2013-03-18 03:42:00,
2013-03-17 23:43:00,41.0,38.9,29.88,NW,315,0.5,2.9,92,0.00,,---,69.36,VWS V14.01,2013-03-18 03:43:00,
2013-03-17 23:44:00,41.0,38.9,29.88,NNE,22,0.9,2.9,92,0.00,,---,69.36,VWS V14.01,2013-03-18 03:44:00,
2013-03-17 23:45:00,40.6,38.8,29.88,NNE,22,0.0,2.5,93,0.00,,---,69.36,VWS V14.01,2013-03-18 03:45:00,
2013-03-17 23:46:00,40.6,38.8,29.88,NE,45,0.0,3.6,93,0.00,,---,69.36,VWS V14.01,2013-03-18 03:46:00,
2013-03-17 23:47:00,40.8,39.0,29.88,West,270,0.7,3.4,93,0.00,,---,69.36,VWS V14.01,2013-03-18 03:47:00,
2013-03-17 23:48:00,40.8,39.0,29.88,ESE,112,0.2,2.9,93,0.00,,---,69.36,VWS V14.01,2013-03-18 03:48:00,
2013-03-17 23:49:00,40.6,38.5,29.88,NE,45,1.1,3.1,92,0.00,,---,69.36,VWS V14.01,2013-03-18 03:49:00,
2013-03-17 23:50:00,40.5,38.6,29.88,NNW,338,0.5,3.1,93,0.00,,---,69.36,VWS V14.01,2013-03-18 03:50:00,
2013-03-17 23:51:00,40.6,38.8,29.88,NE,45,0.0,3.6,93,0.00,,---,69.36,VWS V14.01,2013-03-18 03:51:00,
2013-03-17 23:52:00,40.5,38.6,29.88,NNW,338,0.5,2.5,93,0.00,,---,69.36,VWS V14.01,2013-03-18 03:52:00,
2013-03-17 23:53:00,40.6,38.5,29.88,WNW,292,0.0,1.6,92,0.00,,---,69.36,VWS V14.01,2013-03-18 03:53:00,
2013-03-17 23:54:00,40.6,38.5,29.88,NE,45,1.1,3.1,92,0.00,,---,69.36,VWS V14.01,2013-03-18 03:54:00,
2013-03-17 23:55:00,40.5,38.6,29.85,ESE,112,0.5,0.9,93,0.00,,---,0.00,VWS V14.01,2013-03-18 03:55:00,
2013-03-17 23:57:00,40.5,38.6,29.88,NNW,338,0.5,2.5,93,0.00,,---,69.36,VWS V14.01,2013-03-18 03:57:00,
2013-03-17 23:58:00,40.3,38.4,29.85,WNW,292,0.0,2.0,93,0.00,,---,0.00,VWS V14.01,2013-03-18 03:58:00,
2013-03-17 23:59:00,40.5,38.6,29.88,NNW,338,0.5,1.3,93,0.00,,---,69.36,VWS V14.01,2013-03-18 03:59:00,